[[{"header":{"parameterUnit":"m.s-1","parameterCategory":1,"la1":31.0,"la2":29.5877,"lo1":-88.7671,"lo2":-86.6584,"dy":0.0162,"dx":0.0185,"nx":115,"ny":88,"refTime":"2023-06-29T06:00:00:Z","depth":0,"parameterNumber":2,"parameterNumberName":"U-component_of_WINDS"},"data":[0.0,0.0,0.0,0.0,0.0,0.0,0.0,0.0,0.0,0.0,0.0,0.0,0.0,0.0,0.0,0.0,0.0,0.0,0.0,0.0,0.0,0.0,0.0,0.0,0.0,0.0,0.0,0.0,0.0,0.0,0.0,0.0,0.0,0.0,0.0,0.0,0.0,0.0,0.0,0.0,0.0,0.0,0.0,0.0,0.0,0.0,0.0,0.0,0.0,0.0,0.0,0.0,0.0,0.0,0.0,0.0,0.0,0.0,0.0,0.0,0.0,0.0,0.0,0.0,0.0,0.0,0.0,0.0,0.0,0.0,0.0,0.0,0.0,0.0,0.0,0.0,0.0,0.0,0.0,0.0,0.0,0.0,0.0,0.0,0.0,0.0,0.0,0.0,0.0,0.0,0.0,0.0,0.0,0.0,0.0,0.0,0.0,0.0,0.0,0.0,0.0,0.0,0.0,0.0,0.0,0.0,0.0,0.0,0.0,0.0,0.0,0.0,0.0,0.0,0.0,0.0,0.0,0.0,0.0,0.0,0.0,0.0,0.0,0.0,0.0,0.0,0.0,0.0,0.0,0.0,0.0,0.0,0.0,0.0,0.0,0.0,0.0,0.0,0.0,0.0,0.0,0.0,0.0,0.0,0.0,0.0,0.0,0.0,0.0,0.0,0.0,0.0,0.0,0.0,0.0,0.0,0.0,0.0,0.0,0.0,0.0,0.0,0.0,0.0,0.0,0.0,0.0,0.0,0.0,0.0,0.0,0.0,0.0,0.0,0.0,0.0,0.0,0.0,0.0,0.0,0.0,0.0,0.0,0.0,0.0,0.0,0.0,0.0,0.0,0.0,0.0,0.0,0.0,0.0,0.0,0.0,0.0,0.0,0.0,0.0,0.0,0.0,0.0,0.0,0.0,0.0,0.0,0.0,0.0,0.0,0.0,0.0,0.0,0.0,0.0,0.0,0.0,0.0,0.0,0.0,0.0,0.0,0.0,0.0,0.0,0.0,0.0,0.0,0.0,0.0,0.0,0.0,0.0,0.0,0.0,0.0,0.0,0.0,0.0,0.0,0.0,0.0,0.0,0.0,0.0,0.0,0.0,0.0,0.0,0.0,0.0,0.0,0.0,0.0,0.0,0.0,0.0,0.0,0.0,0.0,0.0,0.0,0.0,0.0,0.0,0.0,0.0,0.0,0.0,0.0,0.0,0.0,0.0,0.0,0.0,0.0,0.0,0.0,0.0,0.0,0.0,0.0,0.0,0.0,0.0,0.0,0.0,0.0,0.0,0.0,0.0,0.0,0.0,0.0,0.0,0.0,0.0,0.0,0.0,0.0,0.0,0.0,0.0,0.0,0.0,0.0,0.0,0.0,0.0,0.0,0.0,0.0,0.0,0.0,0.0,0.0,0.0,0.0,0.0,0.0,0.0,0.0,0.0,0.0,0.0,0.0,0.0,0.0,0.0,0.0,0.0,0.0,0.0,0.0,0.0,0.0,0.0,0.0,0.0,0.0,0.0,0.0,0.0,0.0,0.0,0.0,0.0,0.0,0.0,0.0,0.0,0.0,0.0,0.0,0.0,0.0,0.0,0.0,0.0,0.0,0.0,0.0,0.0,0.0,0.0,0.0,0.0,0.0,0.0,0.0,0.0,0.0,0.0,0.0,0.0,0.0,0.0,0.0,0.0,0.0,0.0,0.0,0.0,0.0,0.0,0.0,0.0,0.0,0.0,0.0,0.0,0.0,0.0,0.0,0.0,0.0,0.0,0.0,0.0,0.0,0.0,0.0,0.0,0.0,0.0,0.0,0.0,0.0,0.0,0.0,0.0,0.0,0.0,0.0,0.0,0.0,0.0,0.0,0.0,0.0,0.0,0.0,0.0,0.0,0.0,0.0,0.0,0.0,0.0,0.0,0.0,0.0,0.0,0.0,0.0,0.0,0.0,0.0,0.0,0.0,0.0,0.0,0.0,0.0,0.0,0.0,0.0,0.0,0.0,0.0,0.0,0.0,0.0,0.0,0.0,0.0,0.0,0.0,0.0,0.0,0.0,0.0,0.0,0.0,0.0,0.0,0.0,0.0,0.0,0.0,0.0,0.0,0.0,0.0,0.0,0.0,0.0,0.0,0.0,0.0,0.0,0.0,0.0,0.0,0.0,0.0,0.0,0.0,0.0,0.0,0.0,0.0,0.0,0.0,0.0,0.0,0.0,0.0,0.0,0.0,0.0,0.0,0.0,0.0,0.0,0.0,0.0,0.0,0.0,0.0,0.0,0.0,0.0,0.0,0.0,0.0,0.0,0.0,0.0,0.0,0.0,0.0,0.0,0.0,0.0,0.0,0.0,0.0,0.0,0.0,0.0,0.0,0.0,0.0,0.0,0.0,0.0,0.0,0.0,0.0,0.0,0.0,0.0,0.0,0.0,0.0,0.0,0.0,0.0,0.0,0.0,0.0,0.0,0.0,0.0,0.0,0.0,0.0,0.0,0.0,0.0,0.0,0.0,0.0,0.0,0.0,0.0,0.0,0.0,0.0,0.0,0.0,0.0,0.0,0.0,0.0,0.0,0.0,0.0,0.0,0.0,0.0,0.0,0.0,0.0,0.0,0.0,0.0,0.0,0.0,0.0,0.0,0.0,0.0,0.0,0.0,0.0,0.0,0.0,0.0,0.0,0.0,0.0,0.0,0.0,0.0,0.0,0.0,0.0,0.0,0.0,0.0,0.0,0.0,0.0,0.0,0.0,0.0,0.0,0.0,0.0,0.0,0.0,0.0,0.0,0.0,0.0,0.0,0.0,0.0,0.0,0.0,0.0,0.0,0.0,0.0,0.0,0.0,0.0,0.0,0.0,0.0,0.0,0.0,0.0,0.0,0.0,0.0,0.0,0.0,0.0,0.0,0.0,0.0,0.0,0.0,0.0,0.0,0.0,0.0,0.0,0.0,0.0,0.0,0.0,0.0,0.0,0.0,0.0,0.0,0.0,0.0,0.0,0.0,0.0,0.0,0.0,0.0,0.0,0.0,0.0,0.0,0.0,0.0,0.0,0.0,0.0,0.0,0.0,0.0,0.0,0.0,0.0,0.0,0.0,0.0,0.0,0.0,0.0,0.0,0.0,0.0,0.0,0.0,0.0,0.0,0.0,0.0,0.0,0.0,0.0,0.0,0.0,0.0,0.0,0.0,0.0,0.0,0.0,0.0,0.0,0.0,0.0,0.0,0.0,0.0,0.0,0.0,0.0,0.0,0.0,0.0,0.0,0.0,0.0,0.0,0.0,0.0,0.0,0.0,0.0,0.0,0.0,0.0,0.0,0.0,0.0,0.0,0.0,0.0,0.0,0.0,0.0,0.0,0.0,0.0,0.0,0.0,0.0,0.0,0.0,0.0,0.0,0.0,0.0,0.0,0.0,0.0,0.0,0.0,0.0,0.0,0.0,0.0,0.0,0.0,0.0,0.0,0.0,0.0,0.0,0.0,0.0,0.0,0.0,0.0,0.0,0.0,0.0,0.0,0.0,0.0,0.0,0.0,0.0,0.0,0.0,0.0,0.0,0.0,0.0,0.0,0.0,0.0,0.0,0.0,0.0,0.0,0.0,0.0,0.0,0.0,0.0,0.0,0.0,0.0,0.0,0.0,0.0,0.0,0.0,0.0,0.0,0.0,0.0,0.0,0.0,0.0,0.0,0.0,0.0,0.0,0.0,0.0,0.0,0.0,0.0,0.0,0.0,0.0,0.0,0.0,0.0,0.0,0.0,0.0,0.0,0.0,0.0,0.0,0.0,0.0,0.0,0.0,0.0,0.0,0.0,0.0,0.0,0.0,0.0,0.0,0.0,0.0,0.0,0.0,0.0,0.0,0.0,0.0,0.0,0.0,0.0,0.0,0.0,0.0,0.0,0.0,0.0,0.0,0.0,0.0,0.0,0.0,0.0,0.0,0.0,0.0,0.0,0.0,0.0,0.0,0.0,0.0,0.0,0.0,0.0,0.0,0.0,0.0,0.0,0.0,0.0,0.0,0.0,0.0,0.0,0.0,0.0,0.0,0.0,0.0,0.0,0.0,0.0,0.0,0.0,0.0,0.0,0.0,0.0,0.0,0.0,0.0,0.0,0.0,0.0,0.0,0.0,0.0,0.0,0.0,0.0,0.0,0.0,0.0,0.0,0.0,0.0,0.0,0.0,0.0,0.0,0.0,0.0,0.0,0.0,0.0,0.0,0.0,0.0,0.0,0.0,0.0,0.0,0.0,0.0,0.0,0.0,0.0,0.0,0.0,0.0,0.0,0.0,0.0,-1.9866,0.0,0.0,0.0,0.0,0.0,0.0,0.0,0.0,0.0,0.0,0.0,0.0,0.0,0.0,0.0,0.0,0.0,0.0,0.0,0.0,0.0,0.0,0.0,0.0,0.0,0.0,0.0,0.0,0.0,0.0,0.0,0.0,0.0,0.0,0.0,0.0,0.0,0.0,0.0,0.0,0.0,0.0,0.0,0.0,0.0,0.0,0.0,0.0,0.0,0.0,0.0,0.0,0.0,0.0,0.0,0.0,0.0,0.0,0.0,0.0,0.0,0.0,0.0,0.0,0.0,0.0,0.0,0.0,0.0,0.0,0.0,0.0,0.0,0.0,0.0,0.0,0.0,0.0,0.0,0.0,0.0,0.0,0.0,0.0,0.0,0.0,0.0,0.0,0.0,0.0,0.0,0.0,0.0,0.0,0.0,0.0,0.0,0.0,0.0,0.0,0.0,0.0,0.0,0.0,0.0,0.0,0.0,0.0,0.0,0.0,-2.1402,-2.1404,-2.1553,-2.1512,-2.114,0.0,0.0,0.0,0.0,0.0,0.0,0.0,0.0,0.0,0.0,0.0,0.0,0.0,0.0,0.0,0.0,0.0,0.0,0.0,0.0,0.0,0.0,0.0,0.0,0.0,0.0,0.0,0.0,0.0,0.0,0.0,0.0,0.0,0.0,0.0,0.0,0.0,0.0,0.0,0.0,0.0,0.0,0.0,0.0,0.0,0.0,0.0,0.0,0.0,0.0,0.0,0.0,0.0,0.0,0.0,0.0,0.0,0.0,0.0,0.0,0.0,0.0,0.0,0.0,0.0,0.0,0.0,0.0,0.0,0.0,0.0,0.0,0.0,0.0,0.0,0.0,0.0,0.0,0.0,0.0,0.0,0.0,0.0,0.0,0.0,0.0,0.0,0.0,0.0,0.0,0.0,0.0,0.0,0.0,0.0,0.0,0.0,0.0,0.0,0.0,0.0,0.0,0.0,0.0,0.0,0.0,0.0,0.0,0.0,0.0,0.0,0.0,-2.2836,-2.2707,-2.1836,0.0,0.0,0.0,0.0,0.0,0.0,0.0,0.0,0.0,0.0,0.0,0.0,0.0,0.0,0.0,0.0,0.0,0.0,0.0,0.0,0.0,0.0,0.0,0.0,0.0,0.0,0.0,0.0,0.0,0.0,0.0,0.0,0.0,0.0,0.0,0.0,0.0,0.0,0.0,0.0,0.0,0.0,0.0,0.0,0.0,0.0,0.0,0.0,0.0,0.0,0.0,0.0,0.0,0.0,0.0,0.0,0.0,0.0,0.0,0.0,0.0,0.0,0.0,0.0,0.0,0.0,0.0,0.0,0.0,0.0,0.0,0.0,0.0,0.0,0.0,0.0,0.0,0.0,0.0,0.0,0.0,0.0,0.0,0.0,0.0,0.0,0.0,0.0,0.0,0.0,0.0,0.0,0.0,0.0,0.0,0.0,0.0,0.0,0.0,0.0,0.0,0.0,0.0,0.0,0.0,0.0,0.0,0.0,0.0,0.0,-2.3934,-2.4326,-2.3765,0.0,-2.1305,0.0,0.0,0.0,0.0,0.0,0.0,0.0,0.0,0.0,0.0,0.0,0.0,0.0,0.0,0.0,0.0,0.0,0.0,0.0,0.0,0.0,0.0,0.0,0.0,0.0,0.0,0.0,0.0,0.0,0.0,0.0,0.0,0.0,0.0,0.0,0.0,0.0,0.0,0.0,0.0,0.0,0.0,0.0,0.0,0.0,0.0,0.0,0.0,0.0,0.0,0.0,0.0,0.0,0.0,0.0,0.0,0.0,0.0,0.0,0.0,0.0,0.0,0.0,0.0,0.0,0.0,0.0,0.0,0.0,0.0,0.0,0.0,0.0,0.0,0.0,0.0,0.0,0.0,0.0,0.0,0.0,0.0,0.0,0.0,0.0,0.0,0.0,0.0,0.0,0.0,0.0,0.0,0.0,0.0,0.0,0.0,0.0,0.0,0.0,0.0,0.0,0.0,0.0,0.0,0.0,0.0,0.0,0.0,0.0,0.0,-2.4422,-2.4766,-2.4674,-2.4081,0.0,0.0,0.0,0.0,0.0,0.0,0.0,0.0,0.0,0.0,0.0,0.0,0.0,0.0,0.0,0.0,0.0,0.0,0.0,0.0,0.0,0.0,0.0,0.0,0.0,0.0,0.0,0.0,0.0,0.0,0.0,0.0,0.0,0.0,0.0,0.0,0.0,0.0,0.0,0.0,0.0,0.0,0.0,0.0,0.0,0.0,0.0,0.0,0.0,0.0,0.0,0.0,0.0,0.0,0.0,0.0,0.0,0.0,0.0,0.0,0.0,0.0,0.0,0.0,0.0,0.0,0.0,0.0,0.0,0.0,0.0,0.0,0.0,0.0,0.0,0.0,0.0,0.0,0.0,0.0,0.0,0.0,0.0,0.0,0.0,0.0,0.0,0.0,0.0,0.0,0.0,0.0,0.0,0.0,0.0,0.0,0.0,0.0,0.0,0.0,0.0,0.0,0.0,0.0,0.0,0.0,0.0,0.0,0.0,0.0,-2.4706,-2.5066,-2.5354,-2.5407,-2.5039,-2.4178,0.0,0.0,0.0,0.0,0.0,0.0,0.0,0.0,0.0,0.0,0.0,0.0,0.0,0.0,0.0,0.0,0.0,0.0,0.0,0.0,0.0,0.0,0.0,0.0,0.0,0.0,0.0,0.0,0.0,0.0,0.0,0.0,0.0,0.0,0.0,0.0,0.0,0.0,0.0,0.0,0.0,0.0,0.0,0.0,0.0,0.0,0.0,0.0,0.0,0.0,0.0,0.0,0.0,0.0,0.0,0.0,0.0,0.0,0.0,0.0,0.0,0.0,0.0,0.0,0.0,0.0,0.0,0.0,0.0,0.0,0.0,0.0,0.0,0.0,0.0,0.0,0.0,0.0,0.0,0.0,0.0,0.0,0.0,0.0,0.0,0.0,0.0,0.0,0.0,0.0,0.0,0.0,0.0,0.0,0.0,0.0,0.0,0.0,0.0,0.0,0.0,0.0,0.0,0.0,0.0,0.0,0.0,0.0,-2.5467,-2.5783,-2.6135,-2.6494,-2.5939,-2.52,0.0,0.0,0.0,0.0,0.0,0.0,0.0,0.0,0.0,0.0,0.0,0.0,0.0,0.0,0.0,0.0,0.0,0.0,0.0,0.0,0.0,0.0,0.0,0.0,0.0,0.0,0.0,0.0,0.0,0.0,0.0,0.0,0.0,0.0,0.0,0.0,0.0,0.0,0.0,0.0,0.0,0.0,0.0,0.0,0.0,0.0,0.0,0.0,0.0,0.0,0.0,0.0,0.0,0.0,0.0,0.0,0.0,0.0,0.0,0.0,0.0,0.0,0.0,0.0,0.0,0.0,0.0,0.0,0.0,0.0,0.0,0.0,0.0,0.0,0.0,0.0,0.0,0.0,0.0,0.0,0.0,0.0,0.0,0.0,0.0,0.0,0.0,0.0,0.0,0.0,0.0,0.0,0.0,0.0,0.0,0.0,0.0,0.0,0.0,0.0,0.0,0.0,0.0,0.0,0.0,0.0,0.0,0.0,0.0,-2.5735,-2.6681,-2.7314,-2.7469,-2.6797,-2.6288,0.0,0.0,0.0,0.0,0.0,0.0,0.0,0.0,0.0,0.0,0.0,0.0,0.0,0.0,0.0,0.0,0.0,0.0,0.0,0.0,0.0,0.0,0.0,0.0,0.0,0.0,0.0,0.0,0.0,0.0,0.0,0.0,0.0,0.0,0.0,0.0,0.0,0.0,0.0,0.0,0.0,0.0,0.0,0.0,0.0,0.0,0.0,0.0,0.0,0.0,0.0,0.0,0.0,0.0,0.0,0.0,0.0,0.0,0.0,0.0,0.0,0.0,0.0,0.0,0.0,0.0,0.0,0.0,0.0,0.0,0.0,0.0,0.0,0.0,0.0,0.0,0.0,0.0,0.0,0.0,0.0,0.0,0.0,0.0,0.0,0.0,0.0,0.0,0.0,0.0,0.0,0.0,0.0,0.0,0.0,0.0,0.0,0.0,0.0,0.0,0.0,0.0,0.0,0.0,0.0,0.0,0.0,0.0,0.0,-2.6873,0.0,-2.8381,-2.8415,-2.7468,-2.6913,0.0,0.0,0.0,0.0,0.0,0.0,0.0,0.0,0.0,0.0,0.0,0.0,0.0,0.0,0.0,0.0,0.0,0.0,0.0,0.0,0.0,0.0,0.0,0.0,0.0,0.0,0.0,0.0,0.0,0.0,0.0,0.0,0.0,0.0,0.0,0.0,0.0,0.0,0.0,0.0,0.0,0.0,0.0,0.0,0.0,0.0,0.0,0.0,0.0,0.0,0.0,0.0,0.0,0.0,0.0,0.0,0.0,0.0,0.0,0.0,0.0,0.0,0.0,0.0,0.0,0.0,0.0,0.0,0.0,0.0,0.0,0.0,0.0,0.0,0.0,0.0,0.0,0.0,0.0,0.0,0.0,0.0,0.0,0.0,0.0,0.0,0.0,0.0,0.0,0.0,0.0,0.0,0.0,0.0,0.0,0.0,0.0,0.0,0.0,0.0,0.0,0.0,0.0,0.0,0.0,0.0,0.0,0.0,-2.7808,-2.9055,-2.9268,-2.9446,-2.939,-2.7963,-2.7047,0.0,0.0,0.0,0.0,0.0,0.0,0.0,0.0,0.0,0.0,0.0,0.0,0.0,0.0,0.0,0.0,0.0,0.0,0.0,0.0,0.0,0.0,0.0,0.0,0.0,0.0,0.0,0.0,0.0,0.0,0.0,0.0,0.0,0.0,0.0,0.0,0.0,0.0,0.0,0.0,0.0,0.0,0.0,0.0,0.0,0.0,0.0,0.0,0.0,0.0,0.0,0.0,0.0,0.0,0.0,0.0,0.0,0.0,0.0,0.0,0.0,0.0,0.0,0.0,0.0,0.0,0.0,0.0,0.0,0.0,0.0,0.0,0.0,0.0,0.0,0.0,0.0,0.0,0.0,0.0,0.0,0.0,0.0,0.0,0.0,0.0,0.0,0.0,0.0,0.0,0.0,0.0,0.0,0.0,0.0,0.0,0.0,0.0,0.0,0.0,0.0,0.0,0.0,0.0,0.0,0.0,0.0,0.0,0.0,-3.0963,-3.167,-3.1791,-3.1188,-3.0175,-2.9049,0.0,0.0,0.0,0.0,0.0,0.0,0.0,0.0,0.0,0.0,0.0,0.0,0.0,0.0,0.0,0.0,0.0,0.0,0.0,0.0,0.0,0.0,0.0,0.0,0.0,0.0,0.0,0.0,0.0,0.0,0.0,0.0,0.0,0.0,0.0,0.0,0.0,0.0,0.0,0.0,0.0,0.0,0.0,0.0,0.0,0.0,0.0,0.0,0.0,0.0,0.0,0.0,0.0,0.0,0.0,0.0,0.0,0.0,0.0,0.0,0.0,0.0,0.0,0.0,0.0,0.0,0.0,0.0,0.0,0.0,0.0,0.0,0.0,0.0,0.0,0.0,0.0,0.0,0.0,0.0,0.0,0.0,0.0,0.0,0.0,0.0,0.0,0.0,0.0,0.0,0.0,0.0,0.0,0.0,0.0,0.0,0.0,0.0,0.0,0.0,0.0,0.0,0.0,0.0,0.0,0.0,0.0,0.0,0.0,-3.4232,-3.4251,-3.4038,-3.3509,-3.2383,-3.0801,-2.8766,0.0,0.0,0.0,0.0,0.0,0.0,0.0,0.0,0.0,0.0,0.0,0.0,0.0,0.0,0.0,0.0,0.0,0.0,0.0,0.0,0.0,0.0,0.0,0.0,0.0,0.0,0.0,0.0,0.0,0.0,0.0,0.0,0.0,0.0,0.0,0.0,0.0,0.0,0.0,0.0,0.0,0.0,0.0,0.0,0.0,0.0,0.0,0.0,0.0,0.0,0.0,0.0,0.0,0.0,0.0,0.0,0.0,0.0,0.0,0.0,0.0,0.0,0.0,0.0,0.0,0.0,0.0,0.0,0.0,0.0,0.0,0.0,0.0,0.0,0.0,0.0,0.0,0.0,0.0,0.0,0.0,0.0,0.0,0.0,0.0,0.0,0.0,0.0,0.0,0.0,0.0,0.0,0.0,0.0,0.0,0.0,0.0,0.0,0.0,0.0,0.0,0.0,0.0,0.0,0.0,0.0,0.0,0.0,-3.8505,-3.7097,-3.6362,-3.6262,-3.455,-3.2402,0.0,0.0,0.0,0.0,0.0,0.0,0.0,0.0,0.0,0.0,0.0,0.0,0.0,0.0,0.0,0.0,0.0,0.0,0.0,0.0,0.0,0.0,0.0,0.0,0.0,0.0,0.0,0.0,0.0,0.0,0.0,0.0,0.0,0.0,0.0,0.0,0.0,0.0,0.0,0.0,0.0,0.0,0.0,0.0,0.0,0.0,0.0,0.0,0.0,0.0,0.0,0.0,0.0,0.0,0.0,0.0,0.0,0.0,0.0,0.0,0.0,0.0,0.0,0.0,0.0,0.0,0.0,0.0,0.0,0.0,0.0,0.0,0.0,0.0,0.0,0.0,0.0,0.0,0.0,0.0,0.0,0.0,0.0,0.0,0.0,0.0,0.0,0.0,0.0,0.0,0.0,0.0,0.0,0.0,0.0,0.0,0.0,0.0,0.0,0.0,0.0,0.0,0.0,0.0,0.0,0.0,0.0,0.0,0.0,-4.0262,-4.1225,-4.1043,-3.9783,-3.7458,-3.497,0.0,0.0,0.0,0.0,0.0,0.0,0.0,0.0,0.0,0.0,0.0,0.0,0.0,0.0,0.0,0.0,0.0,0.0,0.0,0.0,0.0,0.0,0.0,0.0,0.0,0.0,0.0,0.0,0.0,0.0,0.0,0.0,0.0,0.0,0.0,0.0,0.0,0.0,0.0,0.0,0.0,0.0,0.0,0.0,0.0,0.0,0.0,0.0,0.0,0.0,0.0,0.0,0.0,0.0,0.0,0.0,0.0,0.0,0.0,0.0,0.0,0.0,0.0,0.0,0.0,0.0,0.0,0.0,0.0,0.0,0.0,0.0,0.0,0.0,0.0,0.0,0.0,0.0,0.0,0.0,0.0,0.0,0.0,0.0,0.0,0.0,0.0,0.0,0.0,0.0,0.0,0.0,0.0,0.0,0.0,0.0,0.0,0.0,0.0,0.0,0.0,0.0,0.0,0.0,0.0,0.0,0.0,0.0,-3.8688,-4.2132,-4.4257,-4.4856,-4.3867,-4.0231,-3.6905,0.0,0.0,0.0,0.0,0.0,0.0,0.0,0.0,0.0,0.0,0.0,0.0,0.0,0.0,0.0,0.0,0.0,0.0,0.0,0.0,0.0,0.0,0.0,0.0,0.0,0.0,0.0,0.0,0.0,0.0,0.0,0.0,0.0,0.0,0.0,0.0,0.0,0.0,0.0,0.0,0.0,0.0,0.0,0.0,0.0,0.0,0.0,0.0,0.0,0.0,0.0,0.0,0.0,0.0,0.0,0.0,0.0,0.0,0.0,0.0,0.0,0.0,0.0,0.0,0.0,0.0,0.0,0.0,0.0,0.0,0.0,0.0,0.0,0.0,0.0,0.0,0.0,0.0,0.0,0.0,0.0,0.0,0.0,0.0,0.0,0.0,0.0,0.0,0.0,0.0,0.0,0.0,0.0,0.0,0.0,0.0,0.0,0.0,0.0,0.0,0.0,0.0,0.0,0.0,0.0,0.0,0.0,0.0,-4.032,-4.3775,-4.6212,-4.7494,-4.7441,-4.2612,-3.8391,0.0,0.0,0.0,0.0,0.0,0.0,0.0,0.0,0.0,0.0,0.0,0.0,0.0,0.0,0.0,0.0,0.0,0.0,0.0,0.0,0.0,0.0,0.0,0.0,0.0,0.0,0.0,0.0,0.0,0.0,0.0,0.0,0.0,0.0,0.0,0.0,0.0,0.0,0.0,0.0,0.0,0.0,0.0,0.0,0.0,0.0,0.0,0.0,0.0,0.0,0.0,0.0,0.0,0.0,0.0,0.0,0.0,0.0,0.0,0.0,0.0,0.0,0.0,0.0,0.0,0.0,0.0,0.0,0.0,0.0,0.0,0.0,0.0,0.0,0.0,0.0,0.0,0.0,0.0,0.0,0.0,0.0,0.0,0.0,0.0,0.0,0.0,0.0,0.0,0.0,0.0,0.0,0.0,0.0,0.0,0.0,0.0,0.0,0.0,0.0,0.0,0.0,0.0,0.0,0.0,0.0,0.0,0.0,-4.1222,-4.4624,-4.5944,-4.6874,-4.7471,-4.3171,-3.9813,0.0,0.0,0.0,0.0,0.0,0.0,0.0,0.0,0.0,0.0,0.0,0.0,0.0,0.0,0.0,0.0,0.0,0.0,0.0,0.0,0.0,0.0,0.0,0.0,0.0,0.0,0.0,0.0,0.0,0.0,0.0,0.0,0.0,0.0,0.0,0.0,0.0,0.0,0.0,0.0,0.0,0.0,0.0,0.0,0.0,0.0,0.0,0.0,-2.7569,0.0,0.0,0.0,0.0,0.0,0.0,0.0,0.0,0.0,0.0,0.0,0.0,0.0,0.0,0.0,0.0,0.0,0.0,0.0,0.0,0.0,0.0,0.0,0.0,0.0,0.0,0.0,0.0,0.0,0.0,0.0,0.0,0.0,0.0,0.0,0.0,0.0,0.0,0.0,0.0,0.0,0.0,0.0,0.0,0.0,0.0,0.0,0.0,0.0,0.0,0.0,0.0,0.0,0.0,0.0,0.0,0.0,0.0,0.0,-4.1521,-4.4891,-4.5868,-4.6484,-4.6751,-4.3534,-4.0866,0.0,0.0,0.0,0.0,0.0,0.0,0.0,0.0,0.0,0.0,0.0,0.0,0.0,0.0,0.0,0.0,0.0,0.0,0.0,0.0,0.0,0.0,0.0,0.0,0.0,0.0,0.0,0.0,0.0,0.0,0.0,0.0,0.0,0.0,0.0,0.0,0.0,0.0,0.0,0.0,0.0,0.0,0.0,0.0,0.0,0.0,0.0,0.0,0.0,0.0,0.0,0.0,0.0,0.0,0.0,0.0,0.0,0.0,0.0,0.0,0.0,0.0,0.0,0.0,0.0,0.0,0.0,0.0,0.0,0.0,0.0,0.0,0.0,0.0,0.0,0.0,0.0,0.0,0.0,0.0,0.0,0.0,0.0,0.0,0.0,0.0,0.0,0.0,0.0,0.0,0.0,0.0,0.0,0.0,0.0,0.0,0.0,0.0,0.0,0.0,0.0,0.0,0.0,0.0,0.0,0.0,0.0,-3.9688,-4.1738,-4.5043,-4.593,-4.6269,-4.6168,-4.3833,-4.1727,-3.9902,0.0,0.0,0.0,0.0,0.0,0.0,0.0,0.0,0.0,0.0,0.0,0.0,0.0,0.0,0.0,0.0,0.0,0.0,0.0,0.0,0.0,0.0,0.0,0.0,0.0,0.0,0.0,0.0,0.0,0.0,0.0,0.0,0.0,0.0,0.0,0.0,0.0,0.0,-2.8121,-2.8373,0.0,0.0,0.0,0.0,0.0,0.0,0.0,0.0,-2.8213,0.0,0.0,0.0,0.0,0.0,0.0,0.0,0.0,0.0,0.0,0.0,0.0,0.0,0.0,0.0,0.0,0.0,0.0,0.0,0.0,0.0,0.0,0.0,0.0,0.0,0.0,0.0,0.0,0.0,0.0,0.0,0.0,0.0,0.0,0.0,0.0,0.0,0.0,0.0,0.0,0.0,0.0,0.0,0.0,0.0,0.0,0.0,0.0,0.0,0.0,0.0,0.0,0.0,0.0,0.0,0.0,-4.0589,-4.0834,-4.2591,-4.5977,-4.6229,-4.6264,-4.614,-4.4337,-4.249,-4.0665,0.0,0.0,0.0,0.0,0.0,0.0,0.0,0.0,0.0,0.0,0.0,0.0,0.0,0.0,0.0,0.0,0.0,0.0,0.0,0.0,0.0,0.0,0.0,0.0,0.0,0.0,0.0,0.0,0.0,0.0,0.0,0.0,0.0,0.0,0.0,0.0,0.0,0.0,0.0,-3.0439,-3.1169,0.0,0.0,0.0,0.0,0.0,0.0,0.0,0.0,-3.0333,0.0,0.0,0.0,0.0,0.0,0.0,0.0,0.0,0.0,0.0,0.0,0.0,0.0,0.0,0.0,0.0,0.0,0.0,0.0,0.0,0.0,0.0,0.0,0.0,0.0,0.0,0.0,0.0,0.0,0.0,0.0,0.0,0.0,0.0,0.0,0.0,0.0,0.0,0.0,0.0,0.0,0.0,0.0,0.0,0.0,0.0,0.0,0.0,0.0,0.0,0.0,0.0,0.0,0.0,0.0,-4.0875,-4.1542,-4.3222,-4.6166,-4.6268,-4.6228,-4.6089,-4.404,-4.226,0.0,0.0,0.0,0.0,0.0,0.0,0.0,0.0,0.0,0.0,0.0,0.0,0.0,0.0,0.0,0.0,0.0,0.0,0.0,0.0,0.0,0.0,0.0,0.0,0.0,0.0,0.0,0.0,0.0,0.0,0.0,0.0,0.0,0.0,0.0,0.0,0.0,0.0,0.0,0.0,-3.2099,-3.2868,-3.3635,0.0,0.0,0.0,0.0,0.0,0.0,-3.1585,-3.0908,0.0,0.0,0.0,0.0,0.0,0.0,0.0,0.0,0.0,0.0,0.0,0.0,0.0,0.0,0.0,0.0,0.0,0.0,0.0,0.0,0.0,0.0,0.0,0.0,0.0,0.0,0.0,0.0,0.0,0.0,0.0,0.0,0.0,0.0,0.0,0.0,0.0,0.0,0.0,0.0,0.0,0.0,0.0,0.0,0.0,0.0,0.0,0.0,0.0,0.0,0.0,0.0,0.0,0.0,0.0,-4.0742,-4.1698,-4.3397,-4.5898,-4.5787,-4.5733,-4.5813,-4.3546,-4.1766,0.0,0.0,0.0,0.0,0.0,0.0,0.0,0.0,0.0,0.0,0.0,0.0,0.0,0.0,0.0,0.0,0.0,0.0,0.0,0.0,0.0,0.0,0.0,0.0,0.0,0.0,0.0,0.0,0.0,0.0,0.0,0.0,0.0,0.0,0.0,0.0,0.0,0.0,0.0,0.0,0.0,-3.432,-3.4843,-3.4314,0.0,0.0,0.0,0.0,-3.2517,-3.1941,0.0,0.0,0.0,0.0,0.0,0.0,0.0,0.0,0.0,0.0,0.0,0.0,0.0,0.0,0.0,0.0,0.0,0.0,0.0,0.0,0.0,0.0,0.0,0.0,0.0,0.0,0.0,0.0,0.0,0.0,0.0,0.0,0.0,0.0,0.0,0.0,0.0,0.0,0.0,0.0,0.0,0.0,0.0,0.0,0.0,0.0,0.0,0.0,0.0,0.0,0.0,0.0,0.0,0.0,0.0,0.0,-3.9879,-4.0811,-4.2527,-4.495,-4.4321,-4.4256,-4.4974,-4.3247,-4.1482,0.0,0.0,0.0,0.0,0.0,0.0,0.0,0.0,0.0,0.0,0.0,0.0,0.0,0.0,0.0,0.0,0.0,0.0,0.0,0.0,0.0,0.0,0.0,0.0,0.0,0.0,0.0,0.0,0.0,0.0,0.0,0.0,0.0,0.0,0.0,0.0,0.0,0.0,0.0,0.0,0.0,-3.56,-3.5445,-3.5957,-3.5929,0.0,0.0,-3.4364,-3.4514,-3.4359,0.0,0.0,0.0,0.0,0.0,0.0,0.0,0.0,0.0,0.0,0.0,0.0,0.0,0.0,0.0,0.0,0.0,0.0,0.0,0.0,0.0,0.0,0.0,0.0,0.0,0.0,0.0,0.0,0.0,0.0,0.0,0.0,0.0,0.0,0.0,0.0,0.0,0.0,0.0,0.0,0.0,0.0,0.0,0.0,0.0,0.0,0.0,0.0,0.0,0.0,0.0,0.0,0.0,0.0,0.0,-3.8219,-3.9786,-4.1143,-4.2604,-4.4133,-4.3807,-4.4007,-4.4871,-4.2734,-4.119,0.0,0.0,0.0,0.0,0.0,0.0,0.0,0.0,0.0,0.0,0.0,0.0,0.0,0.0,0.0,0.0,0.0,0.0,0.0,0.0,0.0,0.0,0.0,0.0,0.0,0.0,0.0,0.0,0.0,0.0,0.0,0.0,0.0,0.0,0.0,0.0,0.0,0.0,0.0,0.0,0.0,0.0,-3.7386,-3.7757,0.0,0.0,0.0,-3.5363,-3.4942,0.0,0.0,0.0,0.0,0.0,0.0,0.0,0.0,0.0,0.0,0.0,0.0,0.0,0.0,0.0,0.0,0.0,0.0,0.0,0.0,0.0,0.0,0.0,0.0,0.0,0.0,0.0,0.0,0.0,0.0,0.0,0.0,0.0,0.0,0.0,0.0,0.0,0.0,0.0,0.0,0.0,0.0,0.0,0.0,0.0,0.0,0.0,0.0,0.0,0.0,0.0,0.0,0.0,0.0,0.0,0.0,0.0,-3.9806,-4.11,-4.2344,-4.3519,-4.3175,-4.3364,-4.4168,-4.1948,0.0,0.0,0.0,0.0,0.0,0.0,0.0,0.0,0.0,0.0,0.0,0.0,0.0,0.0,0.0,0.0,0.0,0.0,0.0,0.0,0.0,0.0,0.0,0.0,0.0,0.0,0.0,-3.0677,0.0,0.0,0.0,0.0,0.0,0.0,0.0,0.0,0.0,0.0,0.0,0.0,0.0,0.0,-3.8414,-3.8718,-3.8939,-3.8866,0.0,0.0,-3.5826,-3.5187,-3.4826,-3.4357,0.0,0.0,0.0,0.0,0.0,0.0,0.0,0.0,0.0,0.0,0.0,0.0,0.0,0.0,0.0,0.0,0.0,0.0,0.0,0.0,0.0,0.0,0.0,0.0,0.0,0.0,0.0,0.0,0.0,0.0,0.0,0.0,0.0,0.0,0.0,0.0,0.0,0.0,0.0,0.0,0.0,0.0,0.0,0.0,0.0,0.0,0.0,0.0,0.0,0.0,0.0,0.0,0.0,0.0,0.0,-3.9745,-3.9911,-4.1167,-4.3455,-4.2065,-4.1656,-4.2409,-4.0792,-3.9474,0.0,0.0,0.0,0.0,0.0,0.0,0.0,0.0,0.0,0.0,0.0,0.0,0.0,0.0,0.0,0.0,0.0,0.0,0.0,0.0,0.0,0.0,0.0,0.0,0.0,0.0,0.0,0.0,0.0,0.0,0.0,0.0,0.0,0.0,0.0,0.0,0.0,0.0,0.0,0.0,0.0,-3.8718,-3.8387,-3.9039,-3.9104,0.0,0.0,-3.5962,-3.551,-3.5844,-3.5845,-3.4864,0.0,0.0,0.0,0.0,0.0,0.0,0.0,0.0,0.0,0.0,0.0,0.0,0.0,0.0,0.0,0.0,0.0,0.0,0.0,0.0,0.0,0.0,0.0,0.0,0.0,0.0,0.0,0.0,0.0,0.0,0.0,0.0,0.0,0.0,0.0,0.0,0.0,0.0,0.0,0.0,0.0,0.0,0.0,0.0,0.0,0.0,0.0,0.0,0.0,0.0,0.0,0.0,0.0,-3.779,-3.8979,-3.9524,-4.0552,-4.1968,-4.1422,-4.1481,-4.2279,-4.0682,-3.9598,0.0,0.0,0.0,0.0,0.0,0.0,0.0,0.0,0.0,0.0,0.0,0.0,0.0,0.0,0.0,0.0,0.0,0.0,0.0,0.0,0.0,0.0,0.0,0.0,0.0,0.0,0.0,0.0,-3.1543,-3.1883,-3.2799,0.0,0.0,0.0,0.0,0.0,0.0,0.0,0.0,0.0,0.0,-3.8897,-3.9013,-3.9132,0.0,0.0,-3.7391,-3.6554,-3.5963,-3.5814,-3.5579,-3.4857,-3.3508,0.0,0.0,0.0,0.0,0.0,0.0,0.0,0.0,0.0,0.0,0.0,0.0,0.0,0.0,0.0,0.0,0.0,0.0,0.0,0.0,0.0,0.0,0.0,0.0,0.0,0.0,0.0,0.0,0.0,0.0,0.0,0.0,0.0,0.0,0.0,0.0,0.0,0.0,0.0,0.0,0.0,0.0,0.0,0.0,0.0,0.0,0.0,0.0,0.0,0.0,0.0,0.0,-3.7506,-3.8856,-3.924,-4.0097,-4.1422,-4.1227,-4.1383,-4.189,-4.0292,-3.939,0.0,0.0,0.0,0.0,0.0,0.0,0.0,0.0,0.0,0.0,0.0,0.0,0.0,0.0,0.0,0.0,0.0,0.0,0.0,0.0,0.0,0.0,0.0,0.0,0.0,0.0,0.0,0.0,-3.1883,-3.2084,-3.3163,0.0,0.0,0.0,0.0,0.0,0.0,0.0,0.0,0.0,0.0,-3.824,-3.917,-3.8834,-3.8507,-3.8493,-3.762,-3.6818,-3.6327,-3.5888,-3.5357,-3.4658,0.0,0.0,0.0,0.0,0.0,0.0,0.0,0.0,0.0,0.0,0.0,0.0,0.0,0.0,0.0,0.0,0.0,0.0,0.0,0.0,0.0,0.0,0.0,0.0,0.0,0.0,0.0,0.0,0.0,0.0,0.0,0.0,0.0,0.0,0.0,0.0,0.0,0.0,0.0,0.0,0.0,0.0,0.0,0.0,0.0,0.0,0.0,0.0,0.0,0.0,0.0,0.0,0.0,-3.72,-3.9686,-3.8954,-3.9747,-4.2124,-4.15,-4.113,-4.111,-3.9435,-3.8519,-3.848,0.0,0.0,0.0,0.0,0.0,0.0,0.0,0.0,0.0,0.0,0.0,0.0,0.0,0.0,0.0,0.0,0.0,0.0,0.0,0.0,0.0,0.0,0.0,0.0,0.0,0.0,-3.4501,-3.3773,-3.3219,0.0,0.0,0.0,0.0,0.0,0.0,0.0,0.0,0.0,0.0,-3.6435,-3.6624,-3.8618,-3.7984,-3.7562,-3.817,-3.726,-3.6579,-3.6626,-3.6131,-3.544,0.0,0.0,0.0,0.0,0.0,0.0,0.0,0.0,0.0,0.0,0.0,0.0,0.0,0.0,0.0,0.0,0.0,0.0,0.0,0.0,0.0,0.0,0.0,0.0,0.0,0.0,0.0,-3.3575,-3.3265,0.0,0.0,0.0,0.0,0.0,0.0,0.0,0.0,0.0,0.0,0.0,-3.2913,-3.3161,0.0,0.0,0.0,0.0,0.0,0.0,0.0,0.0,0.0,0.0,0.0,0.0,-3.6902,-3.8817,-3.8656,-3.9474,-4.1422,-4.1247,-4.111,-4.1091,-3.9396,-3.7948,-3.6812,0.0,0.0,0.0,0.0,0.0,0.0,0.0,0.0,0.0,0.0,0.0,0.0,0.0,0.0,0.0,0.0,0.0,0.0,0.0,0.0,0.0,0.0,0.0,0.0,0.0,-3.4036,0.0,0.0,0.0,0.0,0.0,0.0,0.0,0.0,0.0,0.0,0.0,-3.564,-3.6144,-3.6848,-3.7512,-3.8044,-3.7571,-3.6981,0.0,0.0,0.0,0.0,0.0,0.0,0.0,0.0,0.0,0.0,0.0,0.0,0.0,0.0,-2.8161,-2.8153,-2.7728,-2.7193,-2.6677,0.0,0.0,0.0,0.0,0.0,0.0,0.0,0.0,0.0,0.0,0.0,0.0,0.0,0.0,0.0,0.0,-3.3842,0.0,0.0,0.0,0.0,0.0,0.0,0.0,0.0,-3.3793,-3.401,-3.3745,-3.4038,-3.4198,0.0,-3.427,-3.4317,0.0,0.0,0.0,0.0,0.0,0.0,0.0,0.0,-3.6766,-3.8422,-3.8519,-3.9201,-4.0571,-4.0662,-4.0649,-4.0616,-3.9257,-3.7537,-3.5552,-3.5201,-3.5028,0.0,0.0,0.0,0.0,0.0,0.0,0.0,0.0,0.0,0.0,0.0,0.0,0.0,0.0,0.0,0.0,0.0,0.0,0.0,0.0,0.0,0.0,0.0,-3.3978,0.0,0.0,0.0,0.0,0.0,0.0,0.0,0.0,0.0,-3.5092,-3.5449,-3.5926,-3.6485,-3.6678,-3.6978,-3.7488,0.0,0.0,0.0,0.0,0.0,0.0,0.0,-3.552,-3.5133,-3.4043,-3.305,-3.2461,-3.1374,-3.0291,-2.9517,0.0,0.0,-2.822,-2.753,-2.6916,-2.6811,-2.6297,-2.5948,-2.5948,-2.5394,-2.4996,0.0,0.0,0.0,0.0,0.0,0.0,0.0,0.0,-3.4789,-3.4347,0.0,-3.4296,0.0,0.0,0.0,0.0,0.0,0.0,0.0,0.0,-3.4592,-3.529,-3.4627,-3.5443,-3.5875,-3.5895,-3.5918,-3.5948,-3.5886,-3.4273,0.0,0.0,0.0,0.0,0.0,0.0,-3.6746,-3.8383,-3.8441,-3.8876,-3.9725,-3.9753,-3.9739,-3.9687,-3.8911,-3.7327,-3.4939,-3.5461,-3.5081,-3.351,-3.4088,0.0,0.0,0.0,0.0,0.0,0.0,0.0,0.0,0.0,0.0,0.0,0.0,0.0,0.0,0.0,0.0,0.0,0.0,0.0,0.0,-3.4807,0.0,0.0,0.0,0.0,0.0,0.0,0.0,0.0,0.0,0.0,-3.7312,-3.5914,-3.5587,-3.7739,0.0,0.0,0.0,0.0,-3.5154,-3.6423,-3.6527,-3.6485,-3.6392,-3.6071,-3.5396,-3.4258,0.0,0.0,-3.0227,-3.0734,-3.0957,-3.0083,-2.9326,-2.8688,-2.7765,-2.7122,-2.664,-2.6457,-2.6028,-2.5674,-2.5619,-2.5204,-2.4784,-4.1908,0.0,0.0,0.0,0.0,-3.752,-3.7663,-3.8195,-3.7637,-3.7254,-3.6955,-3.593,0.0,0.0,0.0,0.0,0.0,0.0,-3.4552,-3.4672,-3.5426,-3.5632,-3.5363,-3.573,-3.5889,-3.589,-3.5916,-3.5946,-3.5949,-3.4872,-3.4632,-3.5248,0.0,0.0,0.0,0.0,-3.6455,-3.7487,-3.7576,-3.799,-3.8873,-3.8873,-3.8571,-3.7951,-3.8307,-3.7585,-3.5708,-3.5251,-3.5086,-3.5143,-3.4192,0.0,0.0,0.0,0.0,0.0,0.0,0.0,0.0,0.0,0.0,0.0,0.0,0.0,0.0,0.0,0.0,0.0,0.0,0.0,-3.5681,-3.5167,-3.4973,0.0,0.0,0.0,0.0,0.0,0.0,0.0,0.0,0.0,-3.793,-3.7223,-3.6698,0.0,0.0,-3.6863,-3.7246,-3.6717,-3.6151,-3.5688,0.0,0.0,0.0,-3.5547,-3.5537,-3.4831,-3.3355,-3.1852,-3.037,-3.0145,-2.984,-2.8991,-2.8297,-2.7733,-2.738,-2.6736,-2.6218,-2.5853,-2.5411,-2.5061,-2.4991,-2.4273,-2.373,-4.3295,-4.0744,-3.9838,-3.9292,-3.8993,-3.8603,-3.8733,-3.9182,-3.835,-3.7999,-3.7896,-3.6501,-3.5624,-3.5079,-3.4529,0.0,0.0,0.0,-3.5075,-3.5194,-3.5601,-3.5757,-3.5697,-3.5833,-3.5894,-3.5885,-3.5927,-3.5962,-3.5985,-3.5483,-3.5483,-3.5965,0.0,0.0,-3.5938,-3.5914,-3.6338,-3.7147,-3.7205,-3.7444,-3.7961,-3.8018,-3.7593,-3.6789,-3.7578,-3.7402,-3.6048,-3.5494,-3.5266,-3.5412,-3.4717,-3.4471,0.0,0.0,0.0,0.0,0.0,0.0,0.0,0.0,0.0,0.0,0.0,-3.2791,-3.3818,0.0,0.0,0.0,-3.4849,-3.5534,-3.5704,-3.5776,0.0,0.0,0.0,0.0,0.0,0.0,0.0,-3.7655,-3.744,-3.7551,-3.8382,-3.8013,-3.7544,-3.7282,-3.7236,-3.7274,-3.7299,0.0,-3.591,-3.5359,-3.56,-3.5528,-3.4516,-3.4856,-3.4818,-3.3594,-3.2417,-3.1179,-2.9927,-2.9339,-2.8956,-2.8406,-2.7955,-2.7539,-2.7152,-2.6578,-2.6056,-2.5647,-2.5244,-2.4948,-2.4791,-2.3997,-2.3476,-4.4022,-4.2422,-4.1627,-4.0755,-3.9828,-3.9037,-3.8716,-3.8644,-3.7737,-3.7318,-3.7233,-3.6307,-3.5892,-3.5898,-3.5833,0.0,0.0,-3.5443,-3.533,-3.4555,-3.541,-3.5768,-3.5708,-3.5858,-3.5899,-3.5919,-3.5978,-3.601,-3.6013,-3.6001,-3.6021,-3.5994,-3.5209,-3.5197,-3.5966,-3.5948,-3.6294,-3.7099,-3.7088,-3.7094,-3.7117,-3.7234,-3.6889,-3.604,-3.685,-3.6908,-3.6059,-3.599,-3.5591,-3.4783,-3.5402,-3.5042,-3.3485,0.0,0.0,0.0,0.0,0.0,0.0,0.0,0.0,0.0,0.0,0.0,0.0,0.0,0.0,0.0,-3.5135,0.0,-3.5228,-3.6386,0.0,0.0,0.0,-3.5772,-3.5693,-3.6278,-3.6982,-3.7726,0.0,0.0,0.0,0.0,-3.7871,-3.7754,-3.7075,-3.672,-3.7051,-3.577,-3.4934,-3.5191,-3.5134,-3.4771,-3.3977,-3.4032,-3.3501,-3.1528,-3.0526,-2.9959,-2.9045,-2.8635,-2.8363,-2.8186,-2.8054,-2.774,-2.7071,-2.6616,-2.619,-2.5839,-2.5397,-2.5048,-2.4664,-2.4203,-2.378,-4.489,-4.3304,-4.3083,-4.2139,-4.0773,-4.0574,-4.0485,-4.0354,-3.8848,-3.8194,-3.809,-3.6565,-3.5872,-3.5823,-3.5864,-3.5702,-3.5417,-3.5685,-3.5668,-3.5426,-3.5721,-3.5853,-3.5799,-3.5929,-3.5978,-3.5981,-3.5988,-3.601,-3.601,-3.6013,-3.6018,-3.6001,-3.5796,-3.5789,-3.5988,-3.5971,-3.6066,-3.6306,-3.629,-3.6293,-3.6297,-3.6947,-3.6891,-3.6049,-3.6852,-3.6891,-3.6049,-3.602,-3.5607,-3.4765,-3.49,-3.4477,-3.3453,-3.4335,0.0,0.0,0.0,0.0,0.0,0.0,0.0,0.0,0.0,-3.2882,-3.4786,0.0,-3.3939,0.0,-3.4147,-3.4737,-3.5759,-3.5586,0.0,0.0,-3.5343,-3.5127,-3.5619,-3.5268,-3.5496,-3.6853,-3.638,-3.6176,-3.6637,-3.6448,-3.6212,-3.6083,-3.6288,-3.6239,-3.5651,-3.5008,-3.4556,-3.448,-3.422,-3.3967,-3.3666,-3.3225,-3.2496,-3.1115,-3.0479,-2.9911,-2.8967,-2.8604,-2.8299,-2.8103,-2.784,-2.7575,-2.7218,-2.687,-2.6553,-2.6056,-2.5397,-2.4835,-2.462,-2.4229,-2.3819,-4.4826,-4.3565,-4.3169,-4.227,-4.1105,-4.11,-4.1114,-4.0959,-3.9257,-3.8505,-3.8402,-3.6657,-3.5885,-3.585,-3.585,-3.5801,-3.5718,-3.5771,-3.5763,-3.5718,-3.5833,-3.5897,-3.584,-3.5958,-3.602,-3.602,-3.6007,-3.601,-3.6007,-3.601,-3.6016,-3.6018,-3.6013,-3.6013,-3.6018,-3.6018,-3.6016,-3.6013,-3.6013,-3.601,-3.6007,-3.6462,-3.6487,-3.6038,-3.6467,-3.6487,-3.6021,-3.6007,-3.5767,-3.5321,-3.5245,-3.4857,-3.4057,-3.4734,-3.4607,0.0,0.0,0.0,0.0,0.0,0.0,0.0,0.0,0.0,0.0,0.0,-3.3971,0.0,-3.4432,0.0,-3.5512,-3.5815,-3.5964,-3.5977,-3.5536,-3.5249,-3.5259,-3.5075,-3.5301,-3.6155,-3.5951,-3.5828,-3.6098,-3.5915,-3.5553,-3.5022,-3.5232,-3.5312,-3.5031,-3.4426,-3.3923,-3.3658,-3.3345,-3.308,-3.2933,-3.2167,-3.1353,-3.0595,-3.0062,-2.9564,-2.892,-2.8556,-2.8314,-2.8069,-2.7855,-2.7575,-2.7284,-2.6907,-2.6539,-2.6165,-2.5578,-2.5075,-2.4892,-2.4563,-2.4216,-4.4293,-4.3526,-4.2676,-4.1844,-4.1106,-4.1106,-4.1047,-4.0827,-3.9209,-3.838,-3.8071,-3.6567,-3.5885,-3.5878,-3.583,-3.5763,-3.5718,-3.5768,-3.5779,-3.5708,-3.5846,-3.5883,-3.5891,-3.5981,-3.6017,-3.6009,-3.6004,-3.6007,-3.602,-3.6007,-3.6013,-3.6013,-3.6013,-3.6018,-3.6005,-3.6018,-3.6057,-3.6161,-3.6155,-3.613,-3.6004,-3.6216,-3.6279,-3.6161,-3.6181,-3.6163,-3.6166,-3.6055,-3.5949,-3.5857,-3.5892,-3.5446,-3.4471,-3.5237,-3.4904,0.0,-3.3828,0.0,0.0,0.0,0.0,0.0,0.0,0.0,0.0,-3.4002,-3.3914,-3.368,-3.502,-3.5553,-3.468,-3.6121,-3.6746,-3.591,-3.5831,-3.5562,-3.484,-3.5199,-3.5558,-3.5549,-3.595,-3.613,-3.5872,-3.5677,-3.5175,-3.4348,-3.4181,-3.427,-3.4516,-3.3846,-3.3119,-3.2803,-3.253,-3.2212,-3.1875,-3.1158,-3.0408,-2.9913,-2.9608,-2.9213,-2.8857,-2.8556,-2.8314,-2.8069,-2.784,-2.764,-2.7284,-2.6841,-2.6457,-2.6218,-2.5853,-2.5481,-2.523,-2.4948,-2.4778,-4.3741,-4.3526,-4.265,-4.1831,-4.1117,-4.1117,-4.0686,-3.9979,-3.8946,-3.7713,-3.6392,-3.6045,-3.5885,-3.5885,-3.5885,-3.5859,-3.5791,-3.5852,-3.5845,-3.5782,-3.5859,-3.5889,-3.5908,-3.5966,-3.602,-3.6007,-3.601,-3.601,-3.601,-3.601,-3.6016,-3.6021,-3.6003,-3.6005,-3.601,0.0,0.0,0.0,-3.7063,-3.671,-3.6079,-3.7397,-3.777,-3.7084,-3.7065,0.0,-3.7026,-3.638,-3.5673,-3.5025,-3.56,0.0,0.0,0.0,0.0,0.0,0.0,0.0,0.0,0.0,0.0,0.0,-3.4427,-3.5025,-3.4155,-3.4025,-3.3697,-3.3001,-3.3818,-3.4034,-3.3149,-3.4542,-3.5172,-3.4301,-3.4737,-3.4999,-3.4727,-3.4773,-3.4783,-3.4738,-3.4713,-3.4637,-3.4455,-3.4247,-3.4035,-3.3629,-3.3496,-3.3409,-3.3348,-3.286,-3.2352,-3.2044,-3.1735,-3.1388,-3.117,-3.0792,-3.0342,-2.9881,-2.9605,-2.9275,-2.8889,-2.8604,-2.8299,-2.8054,-2.779,-2.7575,-2.7401,-2.7144,-2.6765,-2.6472,-2.6165,-2.5839,-2.5286,-2.5061,-2.4892,-4.2987,0.0,-4.2052,-4.1454,0.0,-4.1109,-4.0599,-3.9754,-3.9336,-3.8181,-3.6514,-3.6099,-3.5894,-3.5897,-3.5883,-3.5891,-3.5864,-3.5885,-3.5898,-3.585,-3.5897,-3.5924,-3.5948,-3.599,-3.602,-3.6007,-3.601,-3.601,-3.6007,-3.601,-3.6013,-3.6018,-3.6018,-3.6021,-3.6003,-3.6003,-3.622,-3.6673,-3.6654,-3.6438,-3.6064,-3.6852,-3.7107,-3.6675,0.0,0.0,0.0,0.0,0.0,0.0,0.0,0.0,0.0,0.0,0.0,-3.2138,-3.2804,-3.2849,-3.2057,-3.2749,-3.282,-3.1995,-3.3055,-3.3912,-3.4148,-3.3709,-3.3063,-3.2216,-3.2866,-3.3009,-3.2168,-3.3149,-3.3821,-3.3769,-3.4018,-3.4318,-3.4653,-3.4666,-3.458,-3.4517,-3.445,-3.4293,-3.3979,-3.3895,-3.3698,-3.3393,-3.334,-3.3201,-3.2916,-3.259,-3.2214,-3.1709,-3.1462,-3.1173,-3.0975,-3.0692,-3.0384,-2.9973,-2.9681,-2.9321,-2.8889,-2.8589,-2.8314,-2.8054,-2.779,-2.7575,-2.7401,-2.7196,-2.6951,-2.6712,-2.6379,-2.6111,-2.5784,-2.555,-2.5286,-4.237,-4.2241,-4.1421,-4.1114,-4.1114,-4.1106,-4.0686,-4.0012,0.0,0.0,0.0,-3.667,-3.6275,-3.6138,-3.6148,-3.6039,-3.5911,-3.5883,-3.5897,-3.5898,-3.5894,-3.5934,-3.6009,-3.6017,-3.602,-3.6001,-3.601,-3.6007,-3.602,-3.601,-3.601,-3.601,-3.601,-3.601,-3.601,-3.601,-3.6016,-3.6003,-3.6145,-3.6165,-3.6005,-3.6286,-3.6307,-3.6012,-3.5308,-3.4859,-3.4683,-3.3856,-3.3383,-3.3385,-3.3392,-3.3324,-3.3188,-3.3169,-3.3098,-3.2966,-3.2892,-3.2558,-3.1857,-3.1868,-3.1701,-3.1176,-3.1426,-3.2173,-3.3527,-3.3,-3.2244,-3.1379,-3.2043,-3.2173,-3.1331,-3.2076,-3.2866,-3.3517,-3.3563,-3.3884,-3.4637,-3.4706,-3.4583,-3.4517,-3.4517,-3.4404,-3.4074,-3.3947,-3.3788,-3.3509,-3.3352,-3.3232,-3.2948,-3.2623,-3.2179,-3.1634,-3.1406,-3.1218,-3.0998,-3.0757,-3.0384,-3.006,-2.9726,-2.9398,-2.8936,-2.8604,-2.8363,-2.8069,-2.779,-2.764,-2.7437,-2.7248,-2.7003,-2.6899,-2.6553,-2.6326,-2.6286,-2.6056,-2.5729,-4.2299,-4.2221,-4.144,-4.1109,-4.1117,-4.1109,-4.1022,-4.0788,-3.9336,-3.8541,-3.8302,-3.8205,-3.7726,-3.7005,-3.7019,-3.661,-3.5903,-3.5897,-3.5883,0.0,-3.5894,-3.5948,-3.5997,-3.6017,-3.6004,-3.601,-3.601,-3.601,-3.601,-3.601,-3.601,-3.601,-3.601,-3.601,-3.601,-3.601,-3.6013,-3.6013,-3.6729,-3.6752,-3.6049,-3.746,-3.75,-3.6094,-3.5859,-3.5448,-3.4724,-3.3844,-3.3392,-3.3387,-3.3383,-3.3066,-3.2332,-3.229,-3.1932,-3.1242,-3.1154,-3.1076,-3.0998,-3.1605,-3.2256,-3.2788,-3.1615,-3.0848,-3.103,-3.1557,-3.1496,-3.0683,-3.1391,-3.1546,-3.0758,-3.1785,-3.2634,-3.2822,-3.3258,-3.3904,-3.4695,-3.4727,-3.4666,-3.4583,-3.4583,-3.4473,-3.4148,-3.4023,-3.3842,-3.3577,-3.3422,-3.3274,-3.2979,-3.2472,-3.2037,-3.1654,-3.1428,-3.1235,-3.1038,-3.0814,-3.0485,-3.0076,-2.9814,-2.9518,-2.8936,-2.8684,-2.8493,-2.8069,-2.789,-2.774,-2.7575,-2.7386,-2.7115,-2.6959,-2.6669,-2.6428,-2.6312,-2.6218,-2.6111,-4.2348,-4.2253,-4.1451,-4.11,-4.1114,-4.1111,-4.1111,-4.1028,-4.0267,-3.9624,-3.9175,-3.8711,-3.8283,-3.7878,-3.7405,-3.7001,-3.6664,-3.6163,-3.5948,-3.5958,-3.5958,-3.5966,-3.5997,-3.6004,-3.6007,-3.601,-3.601,-3.601,-3.601,-3.601,-3.601,-3.601,-3.601,-3.601,-3.601,-3.601,-3.6013,-3.6018,-3.6398,-3.6401,-3.6028,-3.6308,-3.6113,-3.5292,-3.4412,-3.3688,-3.3298,-3.2453,-3.202,-3.204,-3.2014,-3.1794,-3.1421,-3.1396,-3.1214,-3.0824,-3.0798,-3.0794,-3.0794,-3.1119,-3.1474,-3.1836,-3.1099,-3.0585,-3.0549,-3.0878,-3.0935,-3.0518,-3.0848,-3.0904,-3.0448,-3.0963,-3.1671,-3.253,-3.284,-3.3469,-3.4583,-3.4749,-3.4706,-3.4645,-3.4623,-3.4495,-3.4197,-3.4099,-3.3921,-3.3605,-3.3452,-3.3244,-3.3011,-3.2606,-3.2197,-3.1912,-3.1651,-3.1329,-3.1134,-3.0855,-3.0568,-3.0199,-3.0,-2.9681,-2.9183,-2.8889,-2.8621,-2.8299,-2.8005,-2.779,-2.771,-2.7125,-2.6842,-2.7004,-2.652,-2.6255,-2.6424,-2.6447,-2.6218,-4.2563,-4.2309,-4.1442,-4.1115,-4.1115,-4.11,-4.11,-4.1111,-4.11,-4.0627,-3.9794,-3.9262,-3.8975,-3.8697,-3.7888,-3.7405,-3.7164,-3.638,-3.6005,-3.6005,-3.6017,-3.602,-3.6004,-3.601,-3.601,-3.601,-3.601,-3.601,-3.601,-3.601,-3.601,-3.601,-3.601,-3.601,-3.601,-3.6013,-3.6018,-3.6005,-3.601,-3.601,-3.597,-3.5155,-3.4609,-3.4313,-3.2927,-3.2027,-3.1811,-3.1181,-3.0847,-3.0889,-3.0843,-3.0838,-3.0821,-3.0791,-3.0788,-3.0791,-3.0786,-3.0804,-3.0769,-3.0736,-3.0711,-3.0697,-3.0661,-3.061,-3.0602,-3.0615,-3.0578,-3.053,-3.054,-3.0519,-3.0452,-3.0529,-3.1068,-3.2416,-3.265,-3.3337,-3.4623,-3.4807,-3.4593,-3.448,-3.436,-3.4158,-3.3804,-3.3753,-3.3725,-3.3578,-3.3422,-3.3232,-3.3011,-3.2616,-3.2158,-3.1934,-3.1679,-3.1462,-3.123,-3.0975,-3.0675,-3.0351,-3.0156,-2.9842,-2.947,-2.9152,-2.8873,-2.851,-2.8137,-2.7834,-2.7614,-2.6927,-2.6574,-2.6819,-2.6396,-2.609,-2.6649,-2.65,-2.6233,-4.3124,-4.2325,-4.1476,-4.1105,-4.1111,-4.1106,-4.11,-4.11,-4.1095,-4.0618,-3.9882,-4.0515,-4.0326,-3.9614,-3.8716,-3.7893,-3.7186,-3.6364,-3.6013,-3.6009,-3.6004,-3.601,-3.601,-3.601,-3.601,-3.601,-3.601,-3.601,-3.601,-3.601,-3.601,-3.601,-3.601,-3.601,-3.6013,-3.6018,-3.6003,-3.6005,-3.6011,-3.6014,-3.5956,-3.5155,-3.4316,-3.3515,-3.2597,-3.1736,-3.1092,-3.0934,-3.0894,-3.0894,-3.0889,-3.0888,-3.0866,-3.0843,-3.0799,-3.0799,-3.0798,-3.0784,-3.0728,-3.0704,-3.0691,-3.0711,-3.0695,-3.0665,-3.061,-3.0604,-3.0606,-3.0598,-3.0569,-3.055,-3.0518,-3.097,-3.1656,-3.2542,-3.3123,-3.3866,-3.4679,-3.4807,-3.4423,-3.3671,-3.3607,-3.3085,-3.246,-3.2649,-3.3096,-3.3377,-3.3357,-3.3232,-3.2975,-3.2154,-3.1522,-3.1358,-3.1372,-3.1384,-3.1116,-3.1038,-3.0597,-3.0303,-3.0208,-2.9854,-2.9452,-2.9127,-2.895,-2.8327,-2.8181,-2.7756,-2.7213,-2.6763,-2.6445,-2.6372,-2.6188,-2.6104,-2.6562,-2.6453,-2.6023,-4.3494,-4.3041,-4.1679,-4.1105,-4.1106,-4.1115,-4.1111,-4.1056,-4.056,-4.0121,-3.9798,-3.9637,-3.9364,-3.8978,-3.8159,-3.7574,-3.7191,-3.6375,-3.6004,-3.6001,-3.6007,-3.601,-3.601,-3.601,-3.601,-3.601,-3.601,-3.601,-3.601,-3.601,-3.601,-3.601,-3.601,-3.601,-3.6013,-3.6016,-3.6021,-3.5989,-3.5501,-3.5484,-3.5799,-3.4648,-3.3769,-3.3318,-3.2107,-3.1267,-3.0953,-3.0912,-3.0911,-3.0911,-3.0909,-3.0886,-3.0845,-3.0821,-3.0801,-3.0799,-3.0785,-3.0798,-3.0759,-3.0722,-3.0704,-3.0698,-3.0703,-3.0673,-3.061,-3.0613,-3.0577,-3.055,-3.0559,-3.05,-3.0505,-3.1047,-3.1747,-3.2549,-3.3254,-3.3999,-3.4793,-3.4809,-3.4427,-3.3633,-3.3339,-3.2873,-3.2117,-3.225,-3.2627,-3.2893,-3.3078,-3.322,-3.2975,-3.2111,-3.1462,-3.1094,-3.0751,-3.0349,-3.0182,-2.9871,-2.966,-2.9471,-2.9234,-2.9009,-2.8795,-2.8361,-2.8045,-2.7771,-2.7488,-2.7103,-2.6626,-2.5876,-2.5463,-2.5542,-2.5536,-2.5392,-2.5474,-2.5379,-2.5237,-4.3544,-4.3127,-4.1702,-4.1109,-4.1111,-4.1105,-4.1105,-4.0994,-4.0179,-3.9685,-3.938,-3.8561,-3.8034,-3.778,-3.7448,-3.7292,-3.7181,-3.6401,-3.601,-3.601,-3.601,-3.601,-3.601,-3.601,-3.601,-3.601,-3.601,-3.601,-3.601,-3.601,-3.601,-3.601,-3.601,-3.6013,-3.6016,-3.6016,-3.6003,-3.5953,-3.5346,-3.5367,-3.5721,-3.4531,-3.3652,-3.3277,-3.1774,-3.0914,-3.0914,-3.0912,-3.0911,-3.0909,-3.0911,-3.0868,-3.0843,-3.0821,-3.0799,-3.0794,-3.0785,-3.0786,-3.0794,-3.0739,-3.0722,-3.0704,-3.069,-3.068,-3.0629,-3.0613,-3.0577,-3.054,-3.0479,-3.0447,-3.046,-3.0988,-3.1718,-3.2515,-3.3083,-3.3733,-3.4737,-3.4678,-3.407,-3.3294,-3.2887,-3.249,-3.1695,-3.1758,-3.2128,-3.2447,-3.2791,-3.2979,-3.2576,-3.1693,-3.08,-3.0464,-2.9588,-2.9195,-2.9282,-2.9168,-2.8884,-2.8736,-2.8665,-2.8467,-2.8106,-2.7826,-2.7499,-2.7545,-2.6811,-2.6284,-2.6014,-2.5273,-2.4717,-2.4966,-2.4963,-2.4742,-2.491,-2.4646,-2.4683,-4.3216,-4.2376,-4.1479,-4.1101,-4.1113,-4.1113,-4.1113,-4.1051,-4.0134,-3.9361,-3.8648,-3.777,-3.6908,-3.6303,-3.6986,-3.7298,-3.7155,-3.6381,-3.6007,-3.6004,-3.6007,-3.601,-3.601,-3.601,-3.601,-3.601,-3.601,-3.601,-3.601,-3.601,-3.601,-3.6013,-3.6013,-3.6016,-3.6003,-3.6007,-3.6011,-3.5994,-3.5839,-3.5918,-3.5839,-3.5058,-3.4101,-3.3336,-3.1794,-3.0954,-3.0914,-3.0915,-3.0915,-3.0913,-3.0913,-3.0892,-3.0888,-3.0823,-3.0796,-3.0785,-3.0801,-3.079,-3.0784,-3.0789,-3.0773,-3.0722,-3.0698,-3.0664,-3.061,-3.0602,-3.0604,-3.0598,-3.0477,-3.039,-3.0393,-3.0948,-3.1665,-3.2381,-3.2495,-3.3241,-3.4604,-3.3998,-3.3222,-3.2446,-3.2002,-3.1433,-3.0498,-3.0869,-3.149,-3.1983,-3.2264,-3.2166,-3.1685,-3.0481,-2.9531,-2.8977,-2.8372,-2.795,-2.9008,-2.8816,-2.867,-2.8491,-2.8139,-2.8229,-2.8207,-2.8083,-2.7681,-2.7262,-2.6735,-2.6143,-2.5574,-2.5101,-2.4776,-2.4686,-2.464,-2.4563,-2.4259,-2.446,-2.449,-4.2357,-4.1557,-4.1225,-4.1104,-4.1113,-4.1101,-4.1101,-4.0957,-3.9637,-3.8879,-3.8492,-3.7692,-3.6813,-3.6049,-3.6911,-3.6986,-3.6456,-3.6127,-3.601,-3.6007,-3.601,-3.601,-3.601,-3.601,-3.601,-3.601,-3.601,-3.601,-3.6013,-3.6018,-3.6021,-3.6021,-3.6003,-3.6007,-3.6009,-3.601,-3.6012,-3.5936,-3.5485,-3.5427,-3.578,-3.406,-3.3122,-3.3335,-3.2281,-3.1401,-3.0847,-3.0873,-3.0874,-3.0847,-3.0871,-3.0871,-3.0845,-3.0801,-3.0794,-3.0801,-3.0798,-3.079,-3.0784,-3.0794,-3.0778,-3.0703,-3.0704,-3.0671,-3.0618,-3.0602,-3.0576,-3.054,-3.0455,-3.0367,-3.0446,-3.093,-3.1451,-3.1743,-3.2155,-3.2597,-3.3072,-3.294,-3.2392,-3.1543,-3.0784,-3.0012,-2.9844,-3.0039,-3.0524,-3.0808,-3.1175,-3.1327,-3.1078,-3.0098,-2.9218,-2.8863,-2.8159,-2.7594,-2.7917,-2.786,-2.7606,-2.7451,-2.7224,-2.7078,-2.7031,-2.6961,-2.6629,-2.631,-2.6045,-2.5701,-2.5035,-2.4655,-2.4381,-2.4119,-2.4038,-2.397,-2.3569,-2.3717,-2.3765,-4.1888,-4.1166,-4.1108,-4.1104,-4.1101,-4.1108,-4.1104,-4.0906,-3.9351,-3.8746,-3.8746,-3.7809,-3.697,-3.656,-3.705,-3.6816,-3.6074,-3.6013,-3.601,-3.601,-3.601,-3.601,-3.601,-3.601,-3.601,-3.601,-3.601,-3.6013,-3.6016,-3.6003,-3.6005,-3.6007,-3.6009,-3.601,-3.601,-3.6011,-3.6012,-3.5877,-3.5425,-3.5446,-3.5702,-3.4313,-3.3471,-3.3647,-3.2964,-3.1986,-3.0905,-3.0873,-3.0891,-3.0847,-3.0891,-3.0871,-3.0845,-3.0801,-3.0794,-3.0801,-3.0798,-3.0786,-3.0784,-3.0794,-3.0764,-3.0703,-3.071,-3.0678,-3.0626,-3.061,-3.0595,-3.053,-3.0436,-3.0367,-3.042,-3.0686,-3.102,-3.1197,-3.149,-3.1877,-3.2297,-3.209,-3.16,-3.0978,-3.0051,-2.9379,-2.9181,-2.9661,-2.9965,-2.9995,-3.0384,-3.0559,-3.0377,-2.9663,-2.892,-2.8635,-2.801,-2.7535,-2.7584,-2.7495,-2.7282,-2.708,-2.6859,-2.6465,-2.6258,-2.6079,-2.5844,-2.5476,-2.5153,-2.4895,-2.4549,-2.4135,-2.3839,-2.3581,-2.3496,-2.3478,-2.3196,-2.2927,-2.3109,-4.1869,-4.1147,-4.1108,-4.1108,-4.1088,-4.101,-4.1069,-4.0815,-3.9334,-3.9,-3.9409,-3.8063,-3.736,-3.7243,-3.7248,-3.6823,-3.612,-3.6016,-3.6013,-3.6013,-3.6013,-3.6013,-3.6013,-3.6013,-3.601,-3.601,-3.601,-3.6016,-3.6003,-3.6005,-3.6007,-3.601,-3.6011,-3.6011,-3.601,-3.6013,-3.6014,-3.5975,-3.5898,-3.5937,-3.5995,-3.5663,-3.5192,-3.4605,-3.3764,-3.2554,-3.103,-3.0914,-3.0892,-3.0909,-3.0892,-3.0892,-3.0868,-3.0843,-3.0796,-3.0801,-3.0798,-3.0786,-3.0789,-3.0799,-3.0769,-3.0709,-3.0703,-3.0698,-3.0688,-3.0657,-3.0613,-3.0558,-3.0479,-3.0398,-3.0355,-3.0289,-3.0468,-3.1042,-3.062,-3.0781,-3.1654,-3.1523,-3.0904,-3.0561,-2.9822,-2.9328,-2.9326,-2.9567,-2.9844,-2.9849,-2.9821,-2.9771,-2.962,-2.89,-2.8187,-2.7888,-2.7682,-2.7513,-2.7407,-2.7316,-2.7139,-2.6976,-2.6691,-2.6418,-2.6347,-2.6222,-2.6007,-2.568,-2.5323,-2.5029,-2.4726,-2.4359,-2.4009,-2.3754,-2.3494,-2.3246,-2.3037,-2.2917,-2.2781,-4.1342,-4.1108,-4.1108,-4.1108,-4.103,-4.0483,-4.0522,-4.0893,-3.9334,-3.9058,-3.9507,-3.8668,-3.7887,-3.7399,-3.7285,-3.6819,-3.6023,-3.6021,-3.6003,-3.6005,-3.6016,-3.6016,-3.6018,-3.6016,-3.601,-3.6013,-3.6018,-3.6018,-3.6018,-3.6009,-3.6011,-3.6009,-3.6013,-3.6015,-3.6013,-3.6014,-3.6014,-3.6014,-3.6012,-3.6011,-3.5935,-3.5425,-3.4956,-3.4665,-3.3844,-3.2867,-3.1795,-3.1209,-3.0934,-3.0909,-3.0912,-3.0871,-3.0825,-3.0801,-3.0796,-3.0791,-3.0801,-3.0794,-3.0798,-3.0784,-3.0769,-3.0709,-3.0703,-3.0698,-3.0707,-3.0692,-3.0657,-3.0613,-3.0481,-3.0394,-3.0371,-3.0221,-3.0266,-3.0449,-3.0143,-3.0059,-3.0629,-3.0481,-3.0187,-2.9982,-2.968,-2.9431,-2.9323,-2.9439,-2.9397,-2.9362,-2.9204,-2.908,-2.892,-2.8577,-2.8219,-2.8035,-2.7806,-2.7526,-2.7438,-2.7345,-2.725,-2.704,-2.6775,-2.6556,-2.6486,-2.6329,-2.6115,-2.5844,-2.5492,-2.5185,-2.4886,-2.4605,-2.4261,-2.3967,-2.3668,-2.3422,-2.3127,-2.2947,-2.2812,-4.1693,-4.1127,-4.1108,-4.1108,-4.0991,-4.0171,-4.0093,-4.0385,-3.9195,-3.9039,-3.9527,-3.8941,-3.8297,-3.7789,-3.746,-3.6819,-3.6064,-3.6005,-3.6009,-3.6011,-3.6003,-3.6018,-3.6021,-3.6016,-3.601,-3.6013,-3.6021,-3.6003,-3.6021,-3.6011,-3.6013,-3.6012,-3.6015,-3.6015,-3.6014,-3.6015,-3.6015,-3.6014,-3.6012,-3.6012,-3.5838,-3.5152,-3.4703,-3.453,-3.3533,-3.2713,-3.2089,-3.1347,-3.0916,-3.0912,-3.0891,-3.0849,-3.0823,-3.0821,-3.0796,-3.0788,-3.0801,-3.079,-3.0798,-3.0784,-3.0794,-3.0734,-3.0709,-3.071,-3.071,-3.0707,-3.0673,-3.0629,-3.0511,-3.0439,-3.0406,-3.026,-3.0157,-3.0147,-3.0072,-2.9956,-2.9924,-2.991,-2.9861,-2.9738,-2.9608,-2.9491,-2.939,-2.9175,-2.9044,-2.8994,-2.8858,-2.8737,-2.8669,-2.851,-2.8335,-2.8164,-2.7893,-2.7677,-2.7483,-2.739,-2.7327,-2.7169,-2.6957,-2.6742,-2.6623,-2.6382,-2.6187,-2.5917,-2.5605,-2.5378,-2.5068,-2.4846,-2.4589,-2.4261,-2.3839,-2.3538,-2.3246,-2.3037,-2.2902,-4.2594,-4.1244,-4.1127,-4.1108,-4.0952,-4.0073,-3.9741,-3.9702,-3.8843,-3.8882,-3.939,-3.8746,-3.8434,-3.8241,-3.7443,-3.6665,-3.6122,-3.6009,-3.6011,-3.6012,-3.6009,-3.6021,-3.6013,-3.6013,-3.6013,-3.6016,-3.6003,-3.6007,-3.6009,-3.6013,-3.6015,-3.6015,-3.6015,-3.6015,-3.6015,-3.6015,-3.6015,-3.6014,-3.6015,-3.5996,-3.584,-3.5136,-3.4608,-3.4531,-3.3163,-3.2303,-3.207,-3.1367,-3.0917,-3.0894,-3.0847,-3.0843,-3.0866,-3.0843,-3.0794,-3.0785,-3.0801,-3.0786,-3.0789,-3.0804,-3.0794,-3.0778,-3.0728,-3.0691,-3.0704,-3.0703,-3.0707,-3.0692,-3.0578,-3.049,-3.0458,-3.0318,-3.0199,-3.0185,-3.0117,-3.0022,-2.994,-2.9924,-2.9857,-2.9771,-2.9626,-2.9531,-2.9472,-2.9222,-2.9085,-2.8998,-2.8905,-2.881,-2.8712,-2.8543,-2.838,-2.8191,-2.7996,-2.7748,-2.7587,-2.7452,-2.739,-2.7233,-2.7055,-2.6908,-2.6725,-2.6486,-2.6241,-2.599,-2.577,-2.553,-2.5262,-2.5045,-2.4686,-2.4276,-2.3897,-2.3581,-2.3378,-2.3171,-2.2947,-4.188,-4.1986,-4.1381,-4.1108,-4.0893,-3.9566,-3.9253,-3.9546,-3.8258,-3.8219,-3.8609,-3.8004,-3.7692,-3.7536,-3.6777,-3.6196,-3.6046,-3.601,-3.6012,-3.6013,-3.6011,-3.6003,-3.6016,-3.6018,-3.6021,-3.6003,-3.6009,-3.6012,-3.6011,-3.6015,-3.6015,-3.6012,-3.6015,-3.6015,-3.6012,-3.6015,-3.6014,-3.6012,-3.5993,-3.5624,-3.5077,-3.4803,-3.4372,-3.373,-3.3221,-3.2674,-3.2128,-3.1346,-3.0915,-3.0894,-3.0827,-3.0801,-3.0823,-3.0801,-3.0796,-3.0788,-3.0801,-3.0794,-3.0798,-3.0784,-3.0769,-3.0734,-3.0728,-3.071,-3.0704,-3.071,-3.0703,-3.0688,-3.0586,-3.0491,-3.046,-3.0323,-3.0226,-3.0204,-3.0117,-3.0022,-2.9972,-2.994,-2.9891,-2.9859,-2.9736,-2.9626,-2.9531,-2.9349,-2.9197,-2.913,-2.8998,-2.8858,-2.8761,-2.8637,-2.8484,-2.8327,-2.8136,-2.7893,-2.7689,-2.7557,-2.7421,-2.7296,-2.7152,-2.7006,-2.6825,-2.664,-2.6347,-2.6046,-2.5917,-2.568,-2.5394,-2.51,-2.4686,-2.4317,-2.4024,-2.3769,-2.3553,-2.3334,-2.3082,-4.1531,-4.1264,-4.0756,-4.0346,-3.9956,-3.9022,-3.8671,-3.8632,-3.8183,-3.787,-3.7953,-3.7561,-3.7287,-3.7192,-3.6409,-3.6021,-3.6009,-3.6009,-3.601,-3.6012,-3.6011,-3.6005,-3.6016,-3.6021,-3.6005,-3.6005,-3.6012,-3.6013,-3.6013,-3.6016,-3.6016,-3.6015,-3.6015,-3.6014,-3.6016,-3.5995,-3.5799,-3.5527,-3.5449,-3.5039,-3.4237,-3.3789,-3.3398,-3.2832,-3.2578,-3.207,-3.1562,-3.115,-3.0914,-3.0891,-3.0825,-3.0801,-3.0801,-3.0801,-3.0796,-3.0788,-3.0801,-3.079,-3.0798,-3.0784,-3.0774,-3.0745,-3.0734,-3.0742,-3.073,-3.0711,-3.0704,-3.069,-3.0585,-3.0511,-3.0472,-3.034,-3.0234,-3.0185,-3.0117,-3.0038,-3.0038,-3.0022,-2.9975,-2.9893,-2.9771,-2.9701,-2.9626,-2.9409,-2.9265,-2.9178,-2.9062,-2.8929,-2.8834,-2.8712,-2.8587,-2.8432,-2.83,-2.8063,-2.7836,-2.7689,-2.7496,-2.7359,-2.7184,-2.707,-2.6859,-2.6691,-2.6434,-2.617,-2.6026,-2.5844,-2.5546,-2.524,-2.4926,-2.4564,-2.4276,-2.394,-2.3625,-2.3422,-2.3216,-4.1375,-3.9937,-3.9858,-3.9334,-3.871,-3.8495,-3.8049,-3.7582,-3.7853,-3.7739,-3.7255,-3.7157,-3.704,-3.7102,-3.6318,-3.6005,-3.6005,-3.6005,-3.6007,-3.601,-3.601,-3.6005,-3.6016,-3.6003,-3.6007,-3.6009,-3.6013,-3.6014,-3.6015,-3.6014,-3.6013,-3.6014,-3.6005,-3.6003,-3.6009,-3.6001,-3.5545,-3.4947,-3.4853,-3.4287,-3.3387,-3.271,-3.2301,-3.1947,-3.1481,-3.1171,-3.1015,-3.0898,-3.0896,-3.0889,-3.0825,-3.0801,-3.0801,-3.0801,-3.0796,-3.0785,-3.0798,-3.079,-3.0789,-3.0784,-3.0799,-3.0774,-3.0789,-3.0784,-3.0773,-3.073,-3.0711,-3.0711,-3.0591,-3.0501,-3.0462,-3.0371,-3.0266,-3.0199,-3.0147,-3.0117,-3.0102,-3.0087,-3.0057,-2.9924,-2.979,-2.9701,-2.9607,-2.9431,-2.92,-2.92,-2.9085,-2.8994,-2.8905,-2.881,-2.8669,-2.8543,-2.8414,-2.8273,-2.8035,-2.7806,-2.7617,-2.7434,-2.723,-2.7038,-2.6842,-2.6657,-2.645,-2.6258,-2.6099,-2.5901,-2.5717,-2.5416,-2.502,-2.471,-2.4302,-2.3952,-2.3696,-2.3494,-2.329,-4.1149,-4.0765,-4.016,-3.9379,-3.8559,-3.7875,-3.7463,-3.7246,-3.6782,-3.6626,-3.6313,-3.63,-3.6321,-3.6298,-3.6122,-3.6007,-3.6009,-3.6007,-3.6005,-3.6005,-3.6009,-3.6007,-3.6003,-3.6007,-3.601,-3.6013,-3.6015,-3.6016,-3.6016,-3.6013,-3.6011,-3.6011,-3.6001,-3.6016,-3.6003,-3.5977,-3.5586,-3.4847,-3.4671,-3.3849,-3.2695,-3.2192,-3.1745,-3.1233,-3.0943,-3.085,-3.0818,-3.082,-3.082,-3.0816,-3.0827,-3.0801,-3.0801,-3.0801,-3.0796,-3.0791,-3.0801,-3.0794,-3.0798,-3.0789,-3.0799,-3.0794,-3.0789,-3.0798,-3.0728,-3.071,-3.0698,-3.0685,-3.0634,-3.053,-3.0428,-3.0355,-3.0286,-3.0218,-3.0171,-3.0142,-3.0102,-2.9988,-2.9956,-2.9891,-2.979,-2.9701,-2.9683,-2.945,-2.9283,-2.92,-2.9112,-2.904,-2.8952,-2.8887,-2.8791,-2.8669,-2.8543,-2.8414,-2.8147,-2.7809,-2.7362,-2.717,-2.7002,-2.6862,-2.6655,-2.664,-2.6487,-2.6279,-2.6118,-2.5855,-2.5399,-2.5196,-2.4719,-2.4523,-2.4323,-2.3991,-2.3706,-2.3537,-2.3363,-4.0271,-3.983,-3.9049,-3.819,-3.7452,-3.7313,-3.7081,-3.6769,-3.669,-3.636,-3.6067,-3.6012,-3.6011,-3.601,-3.601,-3.6011,-3.601,-3.6009,-3.6007,-3.6009,-3.601,-3.6011,-3.6012,-3.6012,-3.6013,-3.6014,-3.6015,-3.6016,-3.6016,-3.6011,-3.6005,-3.5989,-3.5968,-3.5939,-3.5949,-3.5962,-3.5486,-3.471,-3.4225,-3.3406,-3.2306,-3.1672,-3.1362,-3.0894,-3.0799,-3.0788,-3.0798,-3.084,-3.0838,-3.0811,-3.0784,-3.0801,-3.0801,-3.0801,-3.0799,-3.0794,-3.0788,-3.0801,-3.079,-3.0798,-3.0789,-3.0804,-3.0799,-3.0764,-3.0734,-3.0716,-3.0704,-3.0685,-3.0634,-3.0549,-3.0421,-3.033,-3.0266,-3.0218,-3.0171,-3.0142,-3.0098,-3.0038,-2.9956,-2.9907,-2.9773,-2.9719,-2.9607,-2.945,-2.9304,-2.92,-2.9134,-2.9085,-2.8975,-2.8929,-2.8863,-2.8767,-2.8669,-2.8482,-2.8246,-2.7761,-2.704,-2.6782,-2.6536,-2.643,-2.6322,-2.6418,-2.6505,-2.6251,-2.5893,-2.5172,-2.4767,-2.4588,-2.443,-2.4248,-2.4044,-2.3882,-2.3788,-2.3694,-2.3523,-3.9257,-3.835,-3.7606,-3.6808,-3.6187,-3.6753,-3.6675,-3.6209,-3.6773,-3.6559,-3.6113,-3.6015,-3.6014,-3.6014,-3.6014,-3.6012,-3.601,-3.601,-3.6009,-3.6007,-3.601,-3.6012,-3.6014,-3.6015,-3.6015,-3.6015,-3.6015,-3.6016,-3.5996,-3.5986,-3.5977,-3.596,-3.5947,-3.5914,-3.5884,-3.586,-3.549,-3.4679,-3.4121,-3.3239,-3.2253,-3.1487,-3.1145,-3.081,-3.0794,-3.0784,-3.0796,-3.0839,-3.0857,-3.0825,-3.0801,-3.0801,-3.0801,-3.0801,-3.0799,-3.0794,-3.0794,-3.0788,-3.0798,-3.0786,-3.0798,-3.0798,-3.0789,-3.0799,-3.0784,-3.0753,-3.0716,-3.0665,-3.0614,-3.052,-3.0414,-3.033,-3.0266,-3.0199,-3.0157,-3.0109,-3.0094,-3.0098,-3.0038,-2.994,-2.9825,-2.9738,-2.9645,-2.951,-2.9368,-2.9203,-2.9119,-2.8997,-2.8874,-2.8737,-2.8526,-2.8192,-2.7875,-2.7652,-2.7399,-2.7103,-2.6448,-2.6202,-2.6009,-2.5906,-2.5832,-2.5783,-2.5795,-2.5849,-2.5446,-2.4829,-2.4295,-2.41,-2.3959,-2.3851,-2.374,-2.3585,-2.3629,-2.3791,-2.3638,-3.8925,-3.75,-3.7359,-3.6792,-3.6092,-3.617,-3.6169,-3.6031,-3.6209,-3.617,-3.6032,-3.6015,-3.6015,-3.6015,-3.6014,-3.6012,-3.6009,-3.6007,-3.6003,-3.6021,-3.6007,-3.6011,-3.6013,-3.6015,-3.6015,-3.6013,-3.6012,-3.6012,-3.5989,-3.5952,-3.5946,-3.5916,-3.5836,-3.5817,-3.5869,-3.5853,-3.5486,-3.4866,-3.4365,-3.3519,-3.2475,-3.1815,-3.1354,-3.0879,-3.0801,-3.0794,-3.0788,-3.0817,-3.084,-3.0876,-3.0827,-3.0801,-3.0762,-3.0762,-3.0723,-3.0799,-3.0794,-3.0791,-3.0801,-3.079,-3.0798,-3.0789,-3.0804,-3.0799,-3.0794,-3.0784,-3.0753,-3.0678,-3.0587,-3.0482,-3.0411,-3.0251,-3.0228,-3.0194,-3.0013,-2.998,-2.9956,-2.9889,-2.9821,-2.9611,-2.9649,-2.9549,-2.9232,-2.8988,-2.8814,-2.8656,-2.8611,-2.8363,-2.8092,-2.7941,-2.7732,-2.7284,-2.6779,-2.6558,-2.6327,-2.6053,-2.5649,-2.5502,-2.5351,-2.519,-2.5119,-2.5005,-2.4992,-2.5308,-2.5246,-2.4763,-2.4248,-2.3617,-2.3393,-2.3175,-2.3215,-2.3262,-2.3437,-2.3591,-2.3724,-3.8044,-3.7265,-3.6816,-3.6386,-3.6054,-3.6015,-3.6015,-3.6015,-3.6015,-3.6015,-3.6015,-3.6015,-3.6015,-3.6015,-3.6015,-3.6013,-3.6009,-3.6007,-3.6005,-3.6021,-3.6005,-3.601,-3.6012,-3.6015,-3.6016,-3.6014,-3.6012,-3.601,-3.6009,-3.5974,-3.5926,-3.5835,-3.5549,-3.5463,-3.5701,-3.5438,-3.5357,-3.5028,-3.4462,-3.3659,-3.2682,-3.2038,-3.1176,-3.0942,-3.0794,-3.0788,-3.0786,-3.0798,-3.084,-3.0874,-3.0825,-3.0801,-3.0665,-3.045,-3.0372,-3.0643,-3.0718,-3.0755,-3.0788,-3.0798,-3.0786,-3.0793,-3.0765,-3.0799,-3.0794,-3.0789,-3.0753,-3.0678,-3.0579,-3.0482,-3.0442,-3.0006,-2.9679,-2.9532,-2.9257,-2.9,-2.8897,-2.8888,-2.8884,-2.892,-2.8909,-2.868,-2.8237,-2.8091,-2.8071,-2.8067,-2.8061,-2.7758,-2.7382,-2.7175,-2.7006,-2.6631,-2.62,-2.6031,-2.5737,-2.532,-2.4986,-2.4822,-2.4652,-2.4514,-2.4477,-2.4384,-2.4735,-2.5125,-2.4917,-2.4275,-2.3386,-2.2505,-2.2524,-2.2575,-2.2723,-2.2894,-2.3142,-2.3349,-2.3435,-3.7198,-3.697,-3.6308,-3.6016,-3.6016,-3.6016,-3.6016,-3.6016,-3.6016,-3.6016,-3.6016,-3.6016,-3.6015,-3.6015,-3.6015,-3.6015,-3.6011,-3.6011,-3.6009,-3.6005,-3.6007,-3.6011,-3.6013,-3.6015,-3.6015,-3.6014,-3.6012,-3.601,-3.6009,-3.5999,-3.5901,-3.5547,-3.4937,-3.4811,-3.508,-3.4658,-3.4979,-3.4745,-3.4215,-3.3415,-3.2795,-3.1685,-3.0789,-3.0789,-3.079,-3.0788,-3.0786,-3.0797,-3.082,-3.0856,-3.0829,-3.0743,-3.0489,-2.9962,-2.9845,-3.0216,-3.0292,-3.0289,-3.0245,-3.018,-3.003,-2.9975,-3.038,-3.0487,-3.0594,-3.0569,-3.067,-3.0516,-3.0532,-3.0163,-2.9796,-2.9451,-2.9051,-2.8664,-2.8198,-2.7765,-2.7892,-2.7872,-2.775,-2.7818,-2.7979,-2.7883,-2.7537,-2.7528,-2.7587,-2.7512,-2.7509,-2.7042,-2.6705,-2.6536,-2.6329,-2.6068,-2.5764,-2.5619,-2.5284,-2.4771,-2.4438,-2.4176,-2.3981,-2.3797,-2.3836,-2.3841,-2.4167,-2.433,-2.3837,-2.3139,-2.2199,-2.1727,-2.1826,-2.2032,-2.226,-2.2356,-2.2378,-2.2711,-2.2914,-3.6799,-3.6144,-3.6054,-3.6016,-3.6016,-3.6016,-3.6016,-3.6016,-3.6016,-3.6016,-3.6016,-3.6016,-3.6016,-3.6016,-3.6016,-3.6016,-3.6012,-3.6012,-3.6011,-3.6007,-3.6011,-3.6013,-3.6014,-3.6015,-3.6015,-3.5956,-3.5934,-3.601,-3.5873,-3.5864,-3.5581,-3.5012,-3.4719,-3.4491,-3.4189,-3.3916,-3.3604,-3.3671,-3.3495,-3.2982,-3.2228,-3.1297,-3.0884,-3.079,-3.0798,-3.0785,-3.0799,-3.0793,-3.08,-3.08,-3.0834,-3.0476,-2.9886,-2.9669,-2.9162,-2.883,-2.8594,-2.8591,-2.8736,-2.8886,-2.8876,-2.9,-2.9284,-2.9552,-2.9762,-3.0116,-3.0203,-2.9705,-3.0036,-2.9766,-2.8956,-2.8807,-2.8552,-2.8102,-2.756,-2.744,-2.7472,-2.6963,-2.6829,-2.6656,-2.6783,-2.7002,-2.6946,-2.7035,-2.71,-2.7009,-2.6823,-2.6358,-2.6005,-2.5819,-2.5595,-2.5277,-2.5146,-2.5006,-2.492,-2.4411,-2.4123,-2.3744,-2.351,-2.3292,-2.3284,-2.3323,-2.298,-2.2982,-2.2615,-2.2654,-2.2434,-2.2049,-2.158,-2.1503,-2.1821,-2.1682,-2.1424,-2.1843,-2.2489,-3.632,-3.6018,-3.6009,-3.6014,-3.6016,-3.6016,-3.6016,-3.6016,-3.6016,-3.6016,-3.6016,-3.6016,-3.6016,-3.6016,-3.6016,-3.6016,-3.6013,-3.6014,-3.6012,-3.601,-3.6011,-3.6013,-3.6014,-3.6015,-3.6016,-3.5819,-3.5527,-3.5214,-3.5252,-3.5209,-3.5007,-3.466,-3.4244,-3.4161,-3.3668,-3.3548,-3.3461,-3.3301,-3.2904,-3.2218,-3.1512,-3.102,-3.0782,-3.079,-3.0798,-3.0785,-3.0799,-3.0793,-3.082,-3.0742,-3.05,-3.0025,-2.9418,-2.8754,-2.7895,-2.7659,-2.7073,-2.732,-2.8129,-2.82,-2.8131,-2.8217,-2.8524,-2.8734,-2.8851,-2.907,-2.9269,-2.8816,-2.898,-2.8678,-2.8036,-2.7837,-2.7475,-2.7113,-2.6742,-2.6515,-2.6465,-2.6269,-2.5958,-2.5749,-2.5621,-2.5963,-2.6178,-2.6067,-2.5991,-2.5816,-2.5726,-2.543,-2.5152,-2.4986,-2.4746,-2.4487,-2.4393,-2.4335,-2.433,-2.4099,-2.3985,-2.3692,-2.3525,-2.3274,-2.2989,-2.2816,-2.2649,-2.2542,-2.2518,-2.2564,-2.261,-2.2162,-2.153,-2.144,-2.1462,-2.133,-2.127,-2.1763,-2.221,-3.5978,-3.6013,-3.6003,-3.6012,-3.6016,-3.6016,-3.6016,-3.6016,-3.6016,-3.6016,-3.6016,-3.6016,-3.6016,-3.6016,-3.6016,-3.6015,-3.6014,-3.6015,-3.6013,-3.6012,-3.6012,-3.6014,-3.6015,-3.6015,-3.5878,-3.5703,-3.5098,-3.4512,-3.4101,-3.4022,-3.3963,-3.4023,-3.3348,-3.3185,-3.3317,-3.2934,-3.251,-3.2469,-3.2021,-3.1475,-3.0969,-3.0837,-3.0802,-3.079,-3.0794,-3.0785,-3.0796,-3.079,-3.0818,-3.0332,-2.9996,-2.9502,-2.8715,-2.7837,-2.7056,-2.6722,-2.6195,-2.6364,-2.7098,-2.7401,-2.7585,-2.7632,-2.7881,-2.7978,-2.8286,-2.8203,-2.7999,-2.7926,-2.8217,-2.7954,-2.7404,-2.6869,-2.6708,-2.6263,-2.5759,-2.542,-2.5244,-2.5463,-2.5566,-2.5485,-2.5342,-2.5158,-2.5248,-2.503,-2.4854,-2.4657,-2.4534,-2.4517,-2.4501,-2.4484,-2.4376,-2.4247,-2.4192,-2.4172,-2.4095,-2.3996,-2.3852,-2.3703,-2.3504,-2.3313,-2.3052,-2.2842,-2.2659,-2.2569,-2.2487,-2.2372,-2.2399,-2.1927,-2.1479,-2.1407,-2.1358,-2.1264,-2.137,-2.1755,-2.1725,-3.5958,-3.6013,-3.6007,-3.6013,-3.6016,-3.6016,-3.6016,-3.6016,-3.6016,-3.6016,-3.6016,-3.6016,-3.6016,-3.6016,-3.6016,-3.6015,-3.6015,-3.6015,-3.6015,-3.6015,-3.6016,-3.6016,-3.6016,-3.5918,-3.5664,-3.5098,-3.4746,-3.3906,-3.2851,-3.2851,-3.2573,-3.227,-3.2441,-3.1812,-3.1586,-3.1648,-3.1406,-3.1369,-3.1135,-3.1042,-3.0837,-3.0782,-3.079,-3.0798,-3.0798,-3.0801,-3.0801,-3.0799,-3.0461,-2.9843,-2.9531,-2.8764,-2.7799,-2.7114,-2.6529,-2.6078,-2.5861,-2.5954,-2.6242,-2.6292,-2.6009,-2.6135,-2.6576,-2.7238,-2.7667,-2.8028,-2.7785,-2.7138,-2.7355,-2.7096,-2.6529,-2.6086,-2.6092,-2.5783,-2.5446,-2.5337,-2.522,-2.5228,-2.5313,-2.5225,-2.5141,-2.5044,-2.4961,-2.4912,-2.4787,-2.4615,-2.4513,-2.4497,-2.4517,-2.4501,-2.4412,-2.4321,-2.4247,-2.4191,-2.4113,-2.4014,-2.3915,-2.375,-2.3553,-2.3389,-2.3193,-2.2995,-2.2764,-2.2659,-2.2579,-2.2398,-2.2186,-2.1899,-2.1615,-2.137,-2.1247,-2.1194,-2.0973,-2.1031,-2.0855,-3.5981,-3.6013,-3.601,-3.6015,-3.6016,-3.6015,-3.6015,-3.6015,-3.6015,-3.6015,-3.6016,-3.6016,-3.6016,-3.6016,-3.6016,-3.6015,-3.6015,-3.6015,-3.6016,-3.6016,-3.6016,-3.6016,-3.6016,-3.5918,-3.582,-3.5293,-3.4902,-3.4179,-3.3125,-3.2341,-3.1727,-3.1599,-3.1809,-3.1945,-3.1585,-3.1016,-3.0813,-3.0793,-3.0793,-3.0798,-3.0802,-3.0798,-3.0785,-3.0788,-3.0794,-3.0794,-3.0796,-3.0784,-3.0286,-2.9647,-2.9062,-2.8083,-2.7077,-2.6568,-2.6117,-2.5765,-2.5705,-2.5703,-2.5698,-2.569,-2.5694,-2.5742,-2.603,-2.6361,-2.6848,-2.6712,-2.6533,-2.632,-2.6432,-2.6203,-2.5912,-2.5743,-2.5723,-2.5428,-2.5293,-2.5253,-2.5243,-2.5233,-2.5222,-2.5231,-2.5184,-2.5101,-2.5019,-2.4947,-2.4813,-2.4645,-2.4561,-2.4495,-2.4515,-2.4517,-2.4429,-2.4375,-2.4303,-2.4247,-2.419,-2.4094,-2.3996,-2.3813,-2.3642,-2.3463,-2.3295,-2.3095,-2.2893,-2.279,-2.2668,-2.2535,-2.2343,-2.2044,-2.1781,-2.1509,-2.1261,-2.1054,-2.0809,-2.0525,-2.0354,-3.5981,-3.5994,-3.601,-3.6015,-3.6015,-3.6015,-3.6014,-3.6013,-3.6014,-3.6015,-3.6016,-3.6016,-3.6016,-3.6016,-3.6016,-3.6016,-3.6016,-3.6016,-3.6016,-3.6016,-3.6016,-3.5859,-3.5703,-3.5469,-3.5137,-3.4941,-3.4316,-3.3379,-3.2359,-3.1965,-3.145,-3.1209,-3.1343,-3.1541,-3.1474,-3.1168,-3.0798,-3.0798,-3.0793,-3.0798,-3.0782,-3.0794,-3.0788,-3.0713,-3.0521,-3.0331,-3.0194,-3.0005,-2.9406,-2.8748,-2.8125,-2.7478,-2.6711,-2.6119,-2.5765,-2.5687,-2.5687,-2.5705,-2.5701,-2.5707,-2.5691,-2.5718,-2.5718,-2.5757,-2.5703,-2.5691,-2.5859,-2.5761,-2.5702,-2.5595,-2.5538,-2.5587,-2.5564,-2.5378,-2.5351,-2.5313,-2.5313,-2.5293,-2.5283,-2.5262,-2.5198,-2.513,-2.5044,-2.4974,-2.4856,-2.4726,-2.4647,-2.4599,-2.4547,-2.4549,-2.4498,-2.4446,-2.4393,-2.4321,-2.4247,-2.419,-2.4114,-2.4014,-2.3831,-2.3616,-2.3412,-2.3193,-2.302,-2.2902,-2.2799,-2.2712,-2.2508,-2.226,-2.1928,-2.1601,-2.134,-2.1006,-2.0827,-2.0577,-2.0441,-3.5939,-3.6013,-3.6007,-3.6015,-3.6015,-3.6014,-3.6013,-3.6012,-3.6013,-3.6015,-3.6016,-3.6016,-3.6016,-3.6016,-3.6016,-3.5918,-3.5801,-3.584,-3.5781,-3.5644,-3.5469,-3.5293,-3.498,-3.4609,-3.4238,-3.2715,-3.2637,-3.246,-3.1245,-3.1403,-3.1103,-3.0872,-3.0967,-3.1008,-3.0859,-3.0829,-3.0793,-3.0765,-3.0706,-3.0637,-3.0451,-3.0396,-3.0391,-3.0242,-2.9854,-2.9567,-2.9472,-2.9101,-2.8465,-2.7672,-2.744,-2.6816,-2.6012,-2.5849,-2.5691,-2.5691,-2.5689,-2.5689,-2.5691,-2.569,-2.5694,-2.5707,-2.5687,-2.5707,-2.5691,-2.5694,-2.5694,-2.5655,-2.5621,-2.5615,-2.5574,-2.5544,-2.5468,-2.5429,-2.5395,-2.5369,-2.5341,-2.5313,-2.5293,-2.5273,-2.5222,-2.516,-2.5068,-2.4974,-2.4884,-2.4787,-2.4729,-2.4682,-2.4631,-2.458,-2.4547,-2.4498,-2.4446,-2.4375,-2.4303,-2.4284,-2.4229,-2.4152,-2.3974,-2.3703,-2.3481,-2.3265,-2.3102,-2.3003,-2.2876,-2.279,-2.2659,-2.2497,-2.2044,-2.1601,-2.123,-2.0942,-2.0778,-2.0662,-2.0543,-3.5919,-3.6013,-3.6007,-3.6015,-3.6015,-3.6014,-3.6014,-3.6013,-3.6014,-3.6015,-3.6016,-3.6016,-3.6016,-3.6016,-3.5937,-3.5742,-3.5273,-3.5117,-3.5,-3.4375,-3.4414,-3.4141,-3.3887,-3.3789,-3.3476,-3.3144,-3.291,-3.2361,-3.1764,-3.1498,-3.1192,-3.0977,-3.0801,-3.0801,-3.081,-3.0743,-3.0583,-3.0057,-2.9862,-2.9687,-2.9203,-2.9191,-2.9257,-2.9266,-2.8895,-2.8725,-2.8708,-2.8257,-2.7678,-2.7005,-2.6891,-2.6503,-2.5858,-2.5697,-2.5694,-2.5693,-2.5687,-2.5705,-2.5705,-2.5693,-2.569,-2.5704,-2.5697,-2.5697,-2.5694,-2.5707,-2.5707,-2.5681,-2.5629,-2.5609,-2.5586,-2.5531,-2.5478,-2.548,-2.5448,-2.5406,-2.537,-2.5322,-2.5303,-2.5273,-2.5252,-2.5201,-2.5134,-2.505,-2.4953,-2.4903,-2.4865,-2.4776,-2.4695,-2.466,-2.461,-2.453,-2.4481,-2.4393,-2.4339,-2.4358,-2.4247,-2.4114,-2.3935,-2.3707,-2.3504,-2.3336,-2.3193,-2.307,-2.297,-2.2842,-2.2668,-2.2453,-2.1998,-2.1554,-2.1245,-2.1039,-2.0909,-2.0794,-2.0644,-3.5939,-3.6013,-3.6007,-3.6014,-3.6015,-3.6014,-3.6014,-3.6014,-3.6013,-3.6014,-3.6016,-3.6016,-3.6016,-3.6016,-3.5937,-3.58,-3.5136,-3.4805,-3.4609,-3.3809,-3.3516,-3.334,-3.3125,-3.2949,-3.2656,-3.2695,-3.25,-3.2068,-3.1487,-3.1589,-3.1287,-3.0902,-3.0786,-3.0552,-3.0509,-3.0412,-3.0388,-2.9936,-2.978,-2.9546,-2.8887,-2.856,-2.8665,-2.8379,-2.807,-2.7845,-2.7766,-2.7515,-2.7169,-2.6727,-2.6458,-2.6286,-2.584,-2.5701,-2.5699,-2.5696,-2.5693,-2.5691,-2.5705,-2.5703,-2.5698,-2.5696,-2.5693,-2.5687,-2.5704,-2.5693,-2.5693,-2.5687,-2.5639,-2.5625,-2.5609,-2.5554,-2.5531,-2.5517,-2.5472,-2.5432,-2.5388,-2.5341,-2.5322,-2.5312,-2.5282,-2.525,-2.5198,-2.513,-2.5051,-2.5012,-2.4972,-2.4875,-2.4753,-2.4719,-2.4673,-2.4596,-2.4532,-2.4481,-2.4429,-2.4412,-2.4284,-2.4095,-2.3935,-2.3771,-2.3594,-2.343,-2.3289,-2.3144,-2.3045,-2.2919,-2.2668,-2.2354,-2.1969,-2.1675,-2.1417,-2.1198,-2.1039,-2.0893,-2.0711,-3.588,-3.5955,-3.5929,-3.5838,-3.5859,-3.5819,-3.5917,-3.5995,-3.6012,-3.6012,-3.6014,-3.6012,-3.6012,-3.6011,-3.6011,-3.5876,-3.5506,-3.4881,-3.4433,-3.4043,-3.3223,-3.2734,-3.2305,-3.2129,-3.1855,-3.1328,-3.1133,-3.1385,-3.0882,-3.1018,-3.0938,-3.0807,-3.0798,-3.0384,-3.0154,-3.0115,-2.9916,-2.9366,-2.9288,-2.8801,-2.7948,-2.8353,-2.8127,-2.7725,-2.7264,-2.7017,-2.6788,-2.6442,-2.6076,-2.5828,-2.5774,-2.5739,-2.5703,-2.5703,-2.5702,-2.5701,-2.5699,-2.5694,-2.5689,-2.5707,-2.5707,-2.5703,-2.5698,-2.5696,-2.5696,-2.5698,-2.5698,-2.5698,-2.5671,-2.5658,-2.5621,-2.5591,-2.5574,-2.5531,-2.5483,-2.5445,-2.5404,-2.5369,-2.5361,-2.5341,-2.5322,-2.5292,-2.522,-2.5164,-2.5118,-2.5094,-2.5044,-2.4953,-2.487,-2.4808,-2.4749,-2.4645,-2.4599,-2.4549,-2.4534,-2.4465,-2.4358,-2.4191,-2.4056,-2.3894,-2.3703,-2.3522,-2.336,-2.3217,-2.3144,-2.2944,-2.2632,-2.2343,-2.2027,-2.1751,-2.1526,-2.1371,-2.1183,-2.0925,-2.0744,-3.5038,-3.5018,-3.4404,-3.4139,-3.4257,-3.4803,-3.5429,-3.5957,-3.6015,-3.6015,-3.6014,-3.6015,-3.5935,-3.6011,-3.6012,-3.5603,-3.494,-3.4198,-3.3437,-3.2871,-3.2305,-3.168,-3.1406,-3.1348,-3.1094,-3.1016,-3.0898,-3.0878,-3.0831,-3.0788,-3.0788,-3.0798,-3.0676,-3.0165,-2.9756,-2.9698,-2.884,-2.8271,-2.8314,-2.7729,-2.7032,-2.7051,-2.688,-2.661,-2.6419,-2.6188,-2.6038,-2.5913,-2.5701,-2.5705,-2.5689,-2.5694,-2.5701,-2.5703,-2.5703,-2.5697,-2.5694,-2.5689,-2.5687,-2.5687,-2.5687,-2.5687,-2.5703,-2.5701,-2.5701,-2.5701,-2.5703,-2.5701,-2.5701,-2.5671,-2.5655,-2.5628,-2.5595,-2.5556,-2.5511,-2.5461,-2.5421,-2.5395,-2.5369,-2.537,-2.5351,-2.5332,-2.5262,-2.5212,-2.5168,-2.5157,-2.5111,-2.5025,-2.498,-2.4907,-2.4808,-2.4692,-2.4647,-2.4615,-2.4551,-2.4482,-2.4393,-2.4284,-2.4114,-2.3955,-2.375,-2.3553,-2.3407,-2.3265,-2.3119,-2.2842,-2.2515,-2.2248,-2.2044,-2.1827,-2.1603,-2.145,-2.1294,-2.1038,-2.086,-3.4479,-3.4139,-3.3628,-3.3379,-3.3475,-3.3963,-3.451,-3.5038,-3.5683,-3.5859,-3.5545,-3.5857,-3.5622,-3.5013,-3.519,-3.4976,-3.4138,-3.3319,-3.2656,-3.2285,-3.1289,-3.1113,-3.0937,-3.0918,-3.0937,-3.0918,-3.0898,-3.0859,-3.0816,-3.0743,-3.0719,-3.0221,-3.0291,-2.9546,-2.8786,-2.8279,-2.771,-2.7242,-2.6954,-2.6607,-2.6236,-2.5964,-2.6022,-2.5745,-2.5691,-2.5694,-2.5697,-2.5693,-2.5698,-2.5701,-2.5705,-2.5691,-2.5698,-2.5702,-2.5703,-2.5698,-2.5694,-2.5691,-2.5687,-2.5687,-2.5687,-2.5687,-2.5687,-2.5705,-2.5705,-2.5705,-2.5705,-2.5703,-2.5701,-2.5696,-2.5681,-2.5664,-2.563,-2.5593,-2.5525,-2.5449,-2.5426,-2.5393,-2.5395,-2.5387,-2.5369,-2.537,-2.5322,-2.5264,-2.5233,-2.5231,-2.5198,-2.5141,-2.5069,-2.5038,-2.4865,-2.4704,-2.4676,-2.4663,-2.4582,-2.45,-2.4429,-2.4303,-2.4134,-2.3937,-2.3753,-2.3598,-2.3453,-2.3265,-2.3095,-2.2816,-2.2579,-2.2304,-2.2061,-2.1857,-2.1724,-2.1573,-2.1419,-2.123,-2.1071,-3.4019,-3.3302,-3.3241,-3.3066,-3.3182,-3.3239,-3.3316,-3.3492,-3.4959,-3.5331,-3.4822,-3.5384,-3.4835,-3.4072,-3.4308,-3.4212,-3.351,-3.2731,-3.2324,-3.2109,-3.1289,-3.0918,-3.0918,-3.0917,-3.0917,-3.0917,-3.0898,-3.0859,-3.0817,-3.0745,-3.0459,-2.9617,-2.9604,-2.9032,-2.792,-2.7472,-2.6938,-2.633,-2.6685,-2.6864,-2.6213,-2.6252,-2.6548,-2.5859,-2.5687,-2.5694,-2.5704,-2.5693,-2.5701,-2.5703,-2.5707,-2.5689,-2.5696,-2.5702,-2.5703,-2.57,-2.5696,-2.5691,-2.5687,-2.5687,-2.5687,-2.5687,-2.5687,-2.5687,-2.5707,-2.5707,-2.5705,-2.5705,-2.5703,-2.5701,-2.569,-2.5652,-2.5624,-2.5604,-2.5544,-2.5498,-2.5453,-2.5437,-2.5448,-2.544,-2.5423,-2.5406,-2.5379,-2.5322,-2.5283,-2.5292,-2.5241,-2.5198,-2.5141,-2.5101,-2.494,-2.4749,-2.4676,-2.4663,-2.4582,-2.4498,-2.4428,-2.4321,-2.4134,-2.3998,-2.3837,-2.3664,-2.3476,-2.3313,-2.3119,-2.2944,-2.2712,-2.2398,-2.2118,-2.1957,-2.1827,-2.1694,-2.1542,-2.1388,-2.123,-3.2614,-3.2346,-3.1758,-3.1501,-3.1598,-3.2162,-3.2416,-3.2496,-3.3532,-3.3903,-3.3766,-3.3902,-3.3823,-3.3387,-3.3527,-3.347,-3.3119,-3.234,-3.2146,-3.1836,-3.123,-3.0917,-3.0916,-3.0916,-3.0915,-3.0916,-3.0898,-3.0878,-3.0792,-3.0743,-3.0674,-3.0326,-2.9753,-2.8571,-2.7592,-2.7163,-2.6481,-2.5811,-2.6068,-2.6422,-2.5967,-2.5788,-2.5827,-2.5687,-2.5691,-2.5687,-2.5694,-2.5697,-2.5707,-2.5693,-2.5698,-2.5705,-2.5693,-2.5701,-2.5703,-2.5702,-2.5696,-2.5691,-2.5689,-2.5687,-2.5687,-2.5687,-2.5687,-2.5687,-2.5687,-2.5687,-2.5687,-2.5707,-2.5705,-2.5703,-2.5696,-2.5658,-2.5632,-2.56,-2.5582,-2.5518,-2.5495,-2.548,-2.5492,-2.5484,-2.5476,-2.5451,-2.5406,-2.5379,-2.5341,-2.5283,-2.5233,-2.519,-2.5164,-2.5125,-2.4993,-2.4808,-2.4676,-2.4615,-2.4566,-2.4515,-2.4462,-2.4357,-2.4191,-2.4075,-2.3937,-2.3725,-2.3499,-2.3336,-2.3168,-2.2995,-2.2764,-2.2443,-2.2175,-2.2061,-2.1899,-2.1797,-2.1724,-2.1573,-2.1388,-3.1873,-3.1467,-3.1074,-3.0914,-3.0991,-3.1379,-3.1573,-3.1654,-3.2085,-3.2301,-3.2475,-3.2944,-3.3021,-3.2569,-3.2648,-3.257,-3.2356,-3.1811,-3.1539,-3.1346,-3.1249,-3.0994,-3.0915,-3.0914,-3.0913,-3.0913,-3.0897,-3.0859,-3.0671,-3.0296,-3.0094,-2.9705,-2.887,-2.8047,-2.7245,-2.6624,-2.6236,-2.572,-2.5707,-2.5707,-2.5701,-2.5701,-2.5697,-2.5694,-2.5694,-2.5694,-2.5701,-2.5704,-2.569,-2.5701,-2.5687,-2.5693,-2.5698,-2.5703,-2.5703,-2.5701,-2.5696,-2.5689,-2.5689,-2.5687,-2.5687,-2.5687,-2.5687,-2.5687,-2.5687,-2.5687,-2.5687,-2.5687,-2.5687,-2.5705,-2.5703,-2.5671,-2.5652,-2.5628,-2.5595,-2.5556,-2.5511,-2.5503,-2.5507,-2.5503,-2.5484,-2.5456,-2.5423,-2.5378,-2.5351,-2.5303,-2.5253,-2.5233,-2.5179,-2.5153,-2.5044,-2.4912,-2.4783,-2.4676,-2.4679,-2.4599,-2.4498,-2.4375,-2.4247,-2.4016,-2.381,-2.3682,-2.3544,-2.3383,-2.3193,-2.2995,-2.2721,-2.247,-2.2293,-2.2152,-2.2003,-2.1869,-2.1797,-2.1754,-2.1573,-3.1487,-3.085,-3.0879,-3.0894,-3.0892,-3.0889,-3.0927,-3.0927,-3.093,-3.0952,-3.1166,-3.2432,-3.2041,-3.1613,-3.1534,-3.1278,-3.1143,-3.1184,-3.103,-3.1011,-3.0973,-3.0894,-3.0891,-3.0889,-3.0774,-3.0658,-3.0565,-3.041,-3.0206,-2.9715,-2.9045,-2.8237,-2.7454,-2.6652,-2.6066,-2.5754,-2.5698,-2.5712,-2.5693,-2.569,-2.569,-2.569,-2.5701,-2.5701,-2.5684,-2.5634,-2.5581,-2.5661,-2.5644,-2.559,-2.5576,-2.5696,-2.5699,-2.5703,-2.5703,-2.5701,-2.5696,-2.5691,-2.5689,-2.5687,-2.5687,-2.5687,-2.5687,-2.5687,-2.5687,-2.5687,-2.5687,-2.5687,-2.5687,-2.5707,-2.5705,-2.5701,-2.5665,-2.5625,-2.5595,-2.556,-2.5538,-2.5524,-2.5522,-2.5519,-2.5492,-2.5464,-2.5421,-2.5395,-2.5369,-2.5332,-2.5284,-2.5264,-2.5233,-2.5209,-2.513,-2.5019,-2.4879,-2.4827,-2.4757,-2.4663,-2.4532,-2.441,-2.4266,-2.3955,-2.3721,-2.3678,-2.3567,-2.343,-2.3241,-2.3045,-2.2773,-2.2525,-2.2377,-2.2197,-2.2061,-2.1911,-2.1869,-2.1797,-2.1724,-3.0994,-3.0878,-3.0875,-3.0871,-3.0845,-3.0886,-3.0866,-3.0823,-3.0823,-3.0845,-3.0946,-3.1001,-3.1021,-3.0909,-3.1026,-3.0966,-3.0985,-3.0909,-3.0909,-3.0929,-3.0911,-3.087,-3.0847,-3.0827,-3.044,-3.023,-2.9979,-2.9492,-2.9486,-2.8953,-2.8496,-2.8157,-2.7364,-2.6815,-2.6674,-2.6227,-2.5703,-2.5698,-2.5696,-2.5696,-2.569,-2.5707,-2.5704,-2.5704,-2.5687,-2.5244,-2.5052,-2.5405,-2.5178,-2.5084,-2.5322,-2.5597,-2.5699,-2.5703,-2.5703,-2.5701,-2.5696,-2.5691,-2.5689,-2.5687,-2.5687,-2.5705,-2.5705,-2.5707,-2.5707,-2.5707,-2.5687,-2.5689,-2.5689,-2.5705,-2.5703,-2.5703,-2.5671,-2.5625,-2.5595,-2.5554,-2.5512,-2.5538,-2.555,-2.5529,-2.5515,-2.5453,-2.5401,-2.5385,-2.5385,-2.5369,-2.537,-2.5322,-2.5293,-2.5252,-2.5198,-2.5106,-2.4974,-2.4827,-2.4679,-2.4663,-2.4566,-2.4426,-2.4284,-2.3978,-2.3786,-2.3739,-2.3629,-2.3453,-2.3289,-2.307,-2.2825,-2.2605,-2.2415,-2.2237,-2.2101,-2.1969,-2.1911,-2.1869,-2.1797]},{"header":{"parameterUnit":"m.s-1","parameterCategory":1,"la1":31.0,"la2":29.5877,"lo1":-88.7671,"lo2":-86.6584,"dy":0.0162,"dx":0.0185,"nx":115,"ny":88,"refTime":"2023-06-29T06:00:00:Z","depth":0,"parameterNumber":3,"parameterNumberName":"V-component_of_WINDS"},"data":[0.0,0.0,0.0,0.0,0.0,0.0,0.0,0.0,0.0,0.0,0.0,0.0,0.0,0.0,0.0,0.0,0.0,0.0,0.0,0.0,0.0,0.0,0.0,0.0,0.0,0.0,0.0,0.0,0.0,0.0,0.0,0.0,0.0,0.0,0.0,0.0,0.0,0.0,0.0,0.0,0.0,0.0,0.0,0.0,0.0,0.0,0.0,0.0,0.0,0.0,0.0,0.0,0.0,0.0,0.0,0.0,0.0,0.0,0.0,0.0,0.0,0.0,0.0,0.0,0.0,0.0,0.0,0.0,0.0,0.0,0.0,0.0,0.0,0.0,0.0,0.0,0.0,0.0,0.0,0.0,0.0,0.0,0.0,0.0,0.0,0.0,0.0,0.0,0.0,0.0,0.0,0.0,0.0,0.0,0.0,0.0,0.0,0.0,0.0,0.0,0.0,0.0,0.0,0.0,0.0,0.0,0.0,0.0,0.0,0.0,0.0,0.0,0.0,0.0,0.0,0.0,0.0,0.0,0.0,0.0,0.0,0.0,0.0,0.0,0.0,0.0,0.0,0.0,0.0,0.0,0.0,0.0,0.0,0.0,0.0,0.0,0.0,0.0,0.0,0.0,0.0,0.0,0.0,0.0,0.0,0.0,0.0,0.0,0.0,0.0,0.0,0.0,0.0,0.0,0.0,0.0,0.0,0.0,0.0,0.0,0.0,0.0,0.0,0.0,0.0,0.0,0.0,0.0,0.0,0.0,0.0,0.0,0.0,0.0,0.0,0.0,0.0,0.0,0.0,0.0,0.0,0.0,0.0,0.0,0.0,0.0,0.0,0.0,0.0,0.0,0.0,0.0,0.0,0.0,0.0,0.0,0.0,0.0,0.0,0.0,0.0,0.0,0.0,0.0,0.0,0.0,0.0,0.0,0.0,0.0,0.0,0.0,0.0,0.0,0.0,0.0,0.0,0.0,0.0,0.0,0.0,0.0,0.0,0.0,0.0,0.0,0.0,0.0,0.0,0.0,0.0,0.0,0.0,0.0,0.0,0.0,0.0,0.0,0.0,0.0,0.0,0.0,0.0,0.0,0.0,0.0,0.0,0.0,0.0,0.0,0.0,0.0,0.0,0.0,0.0,0.0,0.0,0.0,0.0,0.0,0.0,0.0,0.0,0.0,0.0,0.0,0.0,0.0,0.0,0.0,0.0,0.0,0.0,0.0,0.0,0.0,0.0,0.0,0.0,0.0,0.0,0.0,0.0,0.0,0.0,0.0,0.0,0.0,0.0,0.0,0.0,0.0,0.0,0.0,0.0,0.0,0.0,0.0,0.0,0.0,0.0,0.0,0.0,0.0,0.0,0.0,0.0,0.0,0.0,0.0,0.0,0.0,0.0,0.0,0.0,0.0,0.0,0.0,0.0,0.0,0.0,0.0,0.0,0.0,0.0,0.0,0.0,0.0,0.0,0.0,0.0,0.0,0.0,0.0,0.0,0.0,0.0,0.0,0.0,0.0,0.0,0.0,0.0,0.0,0.0,0.0,0.0,0.0,0.0,0.0,0.0,0.0,0.0,0.0,0.0,0.0,0.0,0.0,0.0,0.0,0.0,0.0,0.0,0.0,0.0,0.0,0.0,0.0,0.0,0.0,0.0,0.0,0.0,0.0,0.0,0.0,0.0,0.0,0.0,0.0,0.0,0.0,0.0,0.0,0.0,0.0,0.0,0.0,0.0,0.0,0.0,0.0,0.0,0.0,0.0,0.0,0.0,0.0,0.0,0.0,0.0,0.0,0.0,0.0,0.0,0.0,0.0,0.0,0.0,0.0,0.0,0.0,0.0,0.0,0.0,0.0,0.0,0.0,0.0,0.0,0.0,0.0,0.0,0.0,0.0,0.0,0.0,0.0,0.0,0.0,0.0,0.0,0.0,0.0,0.0,0.0,0.0,0.0,0.0,0.0,0.0,0.0,0.0,0.0,0.0,0.0,0.0,0.0,0.0,0.0,0.0,0.0,0.0,0.0,0.0,0.0,0.0,0.0,0.0,0.0,0.0,0.0,0.0,0.0,0.0,0.0,0.0,0.0,0.0,0.0,0.0,0.0,0.0,0.0,0.0,0.0,0.0,0.0,0.0,0.0,0.0,0.0,0.0,0.0,0.0,0.0,0.0,0.0,0.0,0.0,0.0,0.0,0.0,0.0,0.0,0.0,0.0,0.0,0.0,0.0,0.0,0.0,0.0,0.0,0.0,0.0,0.0,0.0,0.0,0.0,0.0,0.0,0.0,0.0,0.0,0.0,0.0,0.0,0.0,0.0,0.0,0.0,0.0,0.0,0.0,0.0,0.0,0.0,0.0,0.0,0.0,0.0,0.0,0.0,0.0,0.0,0.0,0.0,0.0,0.0,0.0,0.0,0.0,0.0,0.0,0.0,0.0,0.0,0.0,0.0,0.0,0.0,0.0,0.0,0.0,0.0,0.0,0.0,0.0,0.0,0.0,0.0,0.0,0.0,0.0,0.0,0.0,0.0,0.0,0.0,0.0,0.0,0.0,0.0,0.0,0.0,0.0,0.0,0.0,0.0,0.0,0.0,0.0,0.0,0.0,0.0,0.0,0.0,0.0,0.0,0.0,0.0,0.0,0.0,0.0,0.0,0.0,0.0,0.0,0.0,0.0,0.0,0.0,0.0,0.0,0.0,0.0,0.0,0.0,0.0,0.0,0.0,0.0,0.0,0.0,0.0,0.0,0.0,0.0,0.0,0.0,0.0,0.0,0.0,0.0,0.0,0.0,0.0,0.0,0.0,0.0,0.0,0.0,0.0,0.0,0.0,0.0,0.0,0.0,0.0,0.0,0.0,0.0,0.0,0.0,0.0,0.0,0.0,0.0,0.0,0.0,0.0,0.0,0.0,0.0,0.0,0.0,0.0,0.0,0.0,0.0,0.0,0.0,0.0,0.0,0.0,0.0,0.0,0.0,0.0,0.0,0.0,0.0,0.0,0.0,0.0,0.0,0.0,0.0,0.0,0.0,0.0,0.0,0.0,0.0,0.0,0.0,0.0,0.0,0.0,0.0,0.0,0.0,0.0,0.0,0.0,0.0,0.0,0.0,0.0,0.0,0.0,0.0,0.0,0.0,0.0,0.0,0.0,0.0,0.0,0.0,0.0,0.0,0.0,0.0,0.0,0.0,0.0,0.0,0.0,0.0,0.0,0.0,0.0,0.0,0.0,0.0,0.0,0.0,0.0,0.0,0.0,0.0,0.0,0.0,0.0,0.0,0.0,0.0,0.0,0.0,0.0,0.0,0.0,0.0,0.0,0.0,0.0,0.0,0.0,0.0,0.0,0.0,0.0,0.0,0.0,0.0,0.0,0.0,0.0,0.0,0.0,0.0,0.0,0.0,0.0,0.0,0.0,0.0,0.0,0.0,0.0,0.0,0.0,0.0,0.0,0.0,0.0,0.0,0.0,0.0,0.0,0.0,0.0,0.0,0.0,0.0,0.0,0.0,0.0,0.0,0.0,0.0,0.0,0.0,0.0,0.0,0.0,0.0,0.0,0.0,0.0,0.0,0.0,0.0,0.0,0.0,0.0,0.0,0.0,0.0,0.0,0.0,0.0,0.0,0.0,0.0,0.0,0.0,0.0,0.0,0.0,0.0,0.0,0.0,0.0,0.0,0.0,0.0,0.0,0.0,0.0,0.0,0.0,0.0,0.0,0.0,0.0,0.0,0.0,0.0,0.0,0.0,0.0,0.0,0.0,0.0,0.0,0.0,0.0,0.0,0.0,0.0,0.0,0.0,0.0,0.0,0.0,0.0,0.0,0.0,0.0,0.0,0.0,0.0,0.0,0.0,0.0,0.0,0.0,0.0,0.0,0.0,0.0,0.0,0.0,0.0,0.0,0.0,0.0,0.0,0.0,0.0,0.0,0.0,0.0,0.0,0.0,0.0,0.0,0.0,0.0,0.0,0.0,0.0,0.0,0.0,0.0,0.0,0.0,0.0,0.0,0.0,0.0,0.0,0.0,0.0,0.0,0.0,0.0,0.0,0.0,0.0,0.0,0.0,0.0,0.0,0.0,0.0,0.0,0.0,0.0,0.0,0.0,0.0,0.0,0.0,0.0,0.0,0.0,0.0,0.0,0.0,0.0,0.0,0.0,0.0,0.0,0.0,0.0,0.0,0.0,0.0,0.0,0.0,0.0,0.0,0.0,0.0,0.0,0.0,0.0,0.0,0.0,0.0,0.0,0.0,0.0,0.0,0.0,0.0,0.0,0.0,0.0,0.0,0.0,0.8484,0.0,0.0,0.0,0.0,0.0,0.0,0.0,0.0,0.0,0.0,0.0,0.0,0.0,0.0,0.0,0.0,0.0,0.0,0.0,0.0,0.0,0.0,0.0,0.0,0.0,0.0,0.0,0.0,0.0,0.0,0.0,0.0,0.0,0.0,0.0,0.0,0.0,0.0,0.0,0.0,0.0,0.0,0.0,0.0,0.0,0.0,0.0,0.0,0.0,0.0,0.0,0.0,0.0,0.0,0.0,0.0,0.0,0.0,0.0,0.0,0.0,0.0,0.0,0.0,0.0,0.0,0.0,0.0,0.0,0.0,0.0,0.0,0.0,0.0,0.0,0.0,0.0,0.0,0.0,0.0,0.0,0.0,0.0,0.0,0.0,0.0,0.0,0.0,0.0,0.0,0.0,0.0,0.0,0.0,0.0,0.0,0.0,0.0,0.0,0.0,0.0,0.0,0.0,0.0,0.0,0.0,0.0,0.0,0.0,0.0,0.9697,0.8702,0.8327,0.7936,0.759,0.0,0.0,0.0,0.0,0.0,0.0,0.0,0.0,0.0,0.0,0.0,0.0,0.0,0.0,0.0,0.0,0.0,0.0,0.0,0.0,0.0,0.0,0.0,0.0,0.0,0.0,0.0,0.0,0.0,0.0,0.0,0.0,0.0,0.0,0.0,0.0,0.0,0.0,0.0,0.0,0.0,0.0,0.0,0.0,0.0,0.0,0.0,0.0,0.0,0.0,0.0,0.0,0.0,0.0,0.0,0.0,0.0,0.0,0.0,0.0,0.0,0.0,0.0,0.0,0.0,0.0,0.0,0.0,0.0,0.0,0.0,0.0,0.0,0.0,0.0,0.0,0.0,0.0,0.0,0.0,0.0,0.0,0.0,0.0,0.0,0.0,0.0,0.0,0.0,0.0,0.0,0.0,0.0,0.0,0.0,0.0,0.0,0.0,0.0,0.0,0.0,0.0,0.0,0.0,0.0,0.0,0.0,0.0,0.0,0.0,0.0,0.0,0.7585,0.7159,0.6468,0.0,0.0,0.0,0.0,0.0,0.0,0.0,0.0,0.0,0.0,0.0,0.0,0.0,0.0,0.0,0.0,0.0,0.0,0.0,0.0,0.0,0.0,0.0,0.0,0.0,0.0,0.0,0.0,0.0,0.0,0.0,0.0,0.0,0.0,0.0,0.0,0.0,0.0,0.0,0.0,0.0,0.0,0.0,0.0,0.0,0.0,0.0,0.0,0.0,0.0,0.0,0.0,0.0,0.0,0.0,0.0,0.0,0.0,0.0,0.0,0.0,0.0,0.0,0.0,0.0,0.0,0.0,0.0,0.0,0.0,0.0,0.0,0.0,0.0,0.0,0.0,0.0,0.0,0.0,0.0,0.0,0.0,0.0,0.0,0.0,0.0,0.0,0.0,0.0,0.0,0.0,0.0,0.0,0.0,0.0,0.0,0.0,0.0,0.0,0.0,0.0,0.0,0.0,0.0,0.0,0.0,0.0,0.0,0.0,0.0,0.8593,0.7206,0.6758,0.0,0.5213,0.0,0.0,0.0,0.0,0.0,0.0,0.0,0.0,0.0,0.0,0.0,0.0,0.0,0.0,0.0,0.0,0.0,0.0,0.0,0.0,0.0,0.0,0.0,0.0,0.0,0.0,0.0,0.0,0.0,0.0,0.0,0.0,0.0,0.0,0.0,0.0,0.0,0.0,0.0,0.0,0.0,0.0,0.0,0.0,0.0,0.0,0.0,0.0,0.0,0.0,0.0,0.0,0.0,0.0,0.0,0.0,0.0,0.0,0.0,0.0,0.0,0.0,0.0,0.0,0.0,0.0,0.0,0.0,0.0,0.0,0.0,0.0,0.0,0.0,0.0,0.0,0.0,0.0,0.0,0.0,0.0,0.0,0.0,0.0,0.0,0.0,0.0,0.0,0.0,0.0,0.0,0.0,0.0,0.0,0.0,0.0,0.0,0.0,0.0,0.0,0.0,0.0,0.0,0.0,0.0,0.0,0.0,0.0,0.0,0.0,0.7759,0.6578,0.547,0.4572,0.0,0.0,0.0,0.0,0.0,0.0,0.0,0.0,0.0,0.0,0.0,0.0,0.0,0.0,0.0,0.0,0.0,0.0,0.0,0.0,0.0,0.0,0.0,0.0,0.0,0.0,0.0,0.0,0.0,0.0,0.0,0.0,0.0,0.0,0.0,0.0,0.0,0.0,0.0,0.0,0.0,0.0,0.0,0.0,0.0,0.0,0.0,0.0,0.0,0.0,0.0,0.0,0.0,0.0,0.0,0.0,0.0,0.0,0.0,0.0,0.0,0.0,0.0,0.0,0.0,0.0,0.0,0.0,0.0,0.0,0.0,0.0,0.0,0.0,0.0,0.0,0.0,0.0,0.0,0.0,0.0,0.0,0.0,0.0,0.0,0.0,0.0,0.0,0.0,0.0,0.0,0.0,0.0,0.0,0.0,0.0,0.0,0.0,0.0,0.0,0.0,0.0,0.0,0.0,0.0,0.0,0.0,0.0,0.0,0.0,0.8087,0.6892,0.5563,0.4138,0.313,0.2595,0.0,0.0,0.0,0.0,0.0,0.0,0.0,0.0,0.0,0.0,0.0,0.0,0.0,0.0,0.0,0.0,0.0,0.0,0.0,0.0,0.0,0.0,0.0,0.0,0.0,0.0,0.0,0.0,0.0,0.0,0.0,0.0,0.0,0.0,0.0,0.0,0.0,0.0,0.0,0.0,0.0,0.0,0.0,0.0,0.0,0.0,0.0,0.0,0.0,0.0,0.0,0.0,0.0,0.0,0.0,0.0,0.0,0.0,0.0,0.0,0.0,0.0,0.0,0.0,0.0,0.0,0.0,0.0,0.0,0.0,0.0,0.0,0.0,0.0,0.0,0.0,0.0,0.0,0.0,0.0,0.0,0.0,0.0,0.0,0.0,0.0,0.0,0.0,0.0,0.0,0.0,0.0,0.0,0.0,0.0,0.0,0.0,0.0,0.0,0.0,0.0,0.0,0.0,0.0,0.0,0.0,0.0,0.0,0.8275,0.7515,0.6094,0.4019,0.2841,0.1928,0.0,0.0,0.0,0.0,0.0,0.0,0.0,0.0,0.0,0.0,0.0,0.0,0.0,0.0,0.0,0.0,0.0,0.0,0.0,0.0,0.0,0.0,0.0,0.0,0.0,0.0,0.0,0.0,0.0,0.0,0.0,0.0,0.0,0.0,0.0,0.0,0.0,0.0,0.0,0.0,0.0,0.0,0.0,0.0,0.0,0.0,0.0,0.0,0.0,0.0,0.0,0.0,0.0,0.0,0.0,0.0,0.0,0.0,0.0,0.0,0.0,0.0,0.0,0.0,0.0,0.0,0.0,0.0,0.0,0.0,0.0,0.0,0.0,0.0,0.0,0.0,0.0,0.0,0.0,0.0,0.0,0.0,0.0,0.0,0.0,0.0,0.0,0.0,0.0,0.0,0.0,0.0,0.0,0.0,0.0,0.0,0.0,0.0,0.0,0.0,0.0,0.0,0.0,0.0,0.0,0.0,0.0,0.0,0.0,0.7745,0.616,0.4693,0.3373,0.205,0.1033,0.0,0.0,0.0,0.0,0.0,0.0,0.0,0.0,0.0,0.0,0.0,0.0,0.0,0.0,0.0,0.0,0.0,0.0,0.0,0.0,0.0,0.0,0.0,0.0,0.0,0.0,0.0,0.0,0.0,0.0,0.0,0.0,0.0,0.0,0.0,0.0,0.0,0.0,0.0,0.0,0.0,0.0,0.0,0.0,0.0,0.0,0.0,0.0,0.0,0.0,0.0,0.0,0.0,0.0,0.0,0.0,0.0,0.0,0.0,0.0,0.0,0.0,0.0,0.0,0.0,0.0,0.0,0.0,0.0,0.0,0.0,0.0,0.0,0.0,0.0,0.0,0.0,0.0,0.0,0.0,0.0,0.0,0.0,0.0,0.0,0.0,0.0,0.0,0.0,0.0,0.0,0.0,0.0,0.0,0.0,0.0,0.0,0.0,0.0,0.0,0.0,0.0,0.0,0.0,0.0,0.0,0.0,0.0,0.0,0.67,0.0,0.3485,0.2611,0.1319,0.0235,0.0,0.0,0.0,0.0,0.0,0.0,0.0,0.0,0.0,0.0,0.0,0.0,0.0,0.0,0.0,0.0,0.0,0.0,0.0,0.0,0.0,0.0,0.0,0.0,0.0,0.0,0.0,0.0,0.0,0.0,0.0,0.0,0.0,0.0,0.0,0.0,0.0,0.0,0.0,0.0,0.0,0.0,0.0,0.0,0.0,0.0,0.0,0.0,0.0,0.0,0.0,0.0,0.0,0.0,0.0,0.0,0.0,0.0,0.0,0.0,0.0,0.0,0.0,0.0,0.0,0.0,0.0,0.0,0.0,0.0,0.0,0.0,0.0,0.0,0.0,0.0,0.0,0.0,0.0,0.0,0.0,0.0,0.0,0.0,0.0,0.0,0.0,0.0,0.0,0.0,0.0,0.0,0.0,0.0,0.0,0.0,0.0,0.0,0.0,0.0,0.0,0.0,0.0,0.0,0.0,0.0,0.0,0.0,0.674,0.5058,0.3788,0.2706,0.1605,0.0549,-0.0472,0.0,0.0,0.0,0.0,0.0,0.0,0.0,0.0,0.0,0.0,0.0,0.0,0.0,0.0,0.0,0.0,0.0,0.0,0.0,0.0,0.0,0.0,0.0,0.0,0.0,0.0,0.0,0.0,0.0,0.0,0.0,0.0,0.0,0.0,0.0,0.0,0.0,0.0,0.0,0.0,0.0,0.0,0.0,0.0,0.0,0.0,0.0,0.0,0.0,0.0,0.0,0.0,0.0,0.0,0.0,0.0,0.0,0.0,0.0,0.0,0.0,0.0,0.0,0.0,0.0,0.0,0.0,0.0,0.0,0.0,0.0,0.0,0.0,0.0,0.0,0.0,0.0,0.0,0.0,0.0,0.0,0.0,0.0,0.0,0.0,0.0,0.0,0.0,0.0,0.0,0.0,0.0,0.0,0.0,0.0,0.0,0.0,0.0,0.0,0.0,0.0,0.0,0.0,0.0,0.0,0.0,0.0,0.0,0.0,0.4766,0.3608,0.2572,0.1634,0.0263,-0.0888,0.0,0.0,0.0,0.0,0.0,0.0,0.0,0.0,0.0,0.0,0.0,0.0,0.0,0.0,0.0,0.0,0.0,0.0,0.0,0.0,0.0,0.0,0.0,0.0,0.0,0.0,0.0,0.0,0.0,0.0,0.0,0.0,0.0,0.0,0.0,0.0,0.0,0.0,0.0,0.0,0.0,0.0,0.0,0.0,0.0,0.0,0.0,0.0,0.0,0.0,0.0,0.0,0.0,0.0,0.0,0.0,0.0,0.0,0.0,0.0,0.0,0.0,0.0,0.0,0.0,0.0,0.0,0.0,0.0,0.0,0.0,0.0,0.0,0.0,0.0,0.0,0.0,0.0,0.0,0.0,0.0,0.0,0.0,0.0,0.0,0.0,0.0,0.0,0.0,0.0,0.0,0.0,0.0,0.0,0.0,0.0,0.0,0.0,0.0,0.0,0.0,0.0,0.0,0.0,0.0,0.0,0.0,0.0,0.0,0.39,0.2921,0.2082,0.1317,0.0,-0.1076,-0.1885,0.0,0.0,0.0,0.0,0.0,0.0,0.0,0.0,0.0,0.0,0.0,0.0,0.0,0.0,0.0,0.0,0.0,0.0,0.0,0.0,0.0,0.0,0.0,0.0,0.0,0.0,0.0,0.0,0.0,0.0,0.0,0.0,0.0,0.0,0.0,0.0,0.0,0.0,0.0,0.0,0.0,0.0,0.0,0.0,0.0,0.0,0.0,0.0,0.0,0.0,0.0,0.0,0.0,0.0,0.0,0.0,0.0,0.0,0.0,0.0,0.0,0.0,0.0,0.0,0.0,0.0,0.0,0.0,0.0,0.0,0.0,0.0,0.0,0.0,0.0,0.0,0.0,0.0,0.0,0.0,0.0,0.0,0.0,0.0,0.0,0.0,0.0,0.0,0.0,0.0,0.0,0.0,0.0,0.0,0.0,0.0,0.0,0.0,0.0,0.0,0.0,0.0,0.0,0.0,0.0,0.0,0.0,0.0,0.2608,0.1944,0.1349,0.0712,-0.0226,-0.1132,0.0,0.0,0.0,0.0,0.0,0.0,0.0,0.0,0.0,0.0,0.0,0.0,0.0,0.0,0.0,0.0,0.0,0.0,0.0,0.0,0.0,0.0,0.0,0.0,0.0,0.0,0.0,0.0,0.0,0.0,0.0,0.0,0.0,0.0,0.0,0.0,0.0,0.0,0.0,0.0,0.0,0.0,0.0,0.0,0.0,0.0,0.0,0.0,0.0,0.0,0.0,0.0,0.0,0.0,0.0,0.0,0.0,0.0,0.0,0.0,0.0,0.0,0.0,0.0,0.0,0.0,0.0,0.0,0.0,0.0,0.0,0.0,0.0,0.0,0.0,0.0,0.0,0.0,0.0,0.0,0.0,0.0,0.0,0.0,0.0,0.0,0.0,0.0,0.0,0.0,0.0,0.0,0.0,0.0,0.0,0.0,0.0,0.0,0.0,0.0,0.0,0.0,0.0,0.0,0.0,0.0,0.0,0.0,0.0,0.2022,0.144,0.0985,0.0434,-0.049,-0.145,0.0,0.0,0.0,0.0,0.0,0.0,0.0,0.0,0.0,0.0,0.0,0.0,0.0,0.0,0.0,0.0,0.0,0.0,0.0,0.0,0.0,0.0,0.0,0.0,0.0,0.0,0.0,0.0,0.0,0.0,0.0,0.0,0.0,0.0,0.0,0.0,0.0,0.0,0.0,0.0,0.0,0.0,0.0,0.0,0.0,0.0,0.0,0.0,0.0,0.0,0.0,0.0,0.0,0.0,0.0,0.0,0.0,0.0,0.0,0.0,0.0,0.0,0.0,0.0,0.0,0.0,0.0,0.0,0.0,0.0,0.0,0.0,0.0,0.0,0.0,0.0,0.0,0.0,0.0,0.0,0.0,0.0,0.0,0.0,0.0,0.0,0.0,0.0,0.0,0.0,0.0,0.0,0.0,0.0,0.0,0.0,0.0,0.0,0.0,0.0,0.0,0.0,0.0,0.0,0.0,0.0,0.0,0.0,0.2197,0.1747,0.1352,0.0783,0.0191,-0.0527,-0.145,0.0,0.0,0.0,0.0,0.0,0.0,0.0,0.0,0.0,0.0,0.0,0.0,0.0,0.0,0.0,0.0,0.0,0.0,0.0,0.0,0.0,0.0,0.0,0.0,0.0,0.0,0.0,0.0,0.0,0.0,0.0,0.0,0.0,0.0,0.0,0.0,0.0,0.0,0.0,0.0,0.0,0.0,0.0,0.0,0.0,0.0,0.0,0.0,0.0,0.0,0.0,0.0,0.0,0.0,0.0,0.0,0.0,0.0,0.0,0.0,0.0,0.0,0.0,0.0,0.0,0.0,0.0,0.0,0.0,0.0,0.0,0.0,0.0,0.0,0.0,0.0,0.0,0.0,0.0,0.0,0.0,0.0,0.0,0.0,0.0,0.0,0.0,0.0,0.0,0.0,0.0,0.0,0.0,0.0,0.0,0.0,0.0,0.0,0.0,0.0,0.0,0.0,0.0,0.0,0.0,0.0,0.0,0.0,0.2025,0.172,0.1311,0.0725,-0.0104,-0.0651,-0.1425,0.0,0.0,0.0,0.0,0.0,0.0,0.0,0.0,0.0,0.0,0.0,0.0,0.0,0.0,0.0,0.0,0.0,0.0,0.0,0.0,0.0,0.0,0.0,0.0,0.0,0.0,0.0,0.0,0.0,0.0,0.0,0.0,0.0,0.0,0.0,0.0,0.0,0.0,0.0,0.0,0.0,0.0,0.0,0.0,0.0,0.0,0.0,0.0,0.0,0.0,0.0,0.0,0.0,0.0,0.0,0.0,0.0,0.0,0.0,0.0,0.0,0.0,0.0,0.0,0.0,0.0,0.0,0.0,0.0,0.0,0.0,0.0,0.0,0.0,0.0,0.0,0.0,0.0,0.0,0.0,0.0,0.0,0.0,0.0,0.0,0.0,0.0,0.0,0.0,0.0,0.0,0.0,0.0,0.0,0.0,0.0,0.0,0.0,0.0,0.0,0.0,0.0,0.0,0.0,0.0,0.0,0.0,0.0,0.153,0.1461,0.1103,0.0307,-0.0932,-0.1036,-0.1564,0.0,0.0,0.0,0.0,0.0,0.0,0.0,0.0,0.0,0.0,0.0,0.0,0.0,0.0,0.0,0.0,0.0,0.0,0.0,0.0,0.0,0.0,0.0,0.0,0.0,0.0,0.0,0.0,0.0,0.0,0.0,0.0,0.0,0.0,0.0,0.0,0.0,0.0,0.0,0.0,0.0,0.0,0.0,0.0,0.0,0.0,0.0,0.0,-0.8494,0.0,0.0,0.0,0.0,0.0,0.0,0.0,0.0,0.0,0.0,0.0,0.0,0.0,0.0,0.0,0.0,0.0,0.0,0.0,0.0,0.0,0.0,0.0,0.0,0.0,0.0,0.0,0.0,0.0,0.0,0.0,0.0,0.0,0.0,0.0,0.0,0.0,0.0,0.0,0.0,0.0,0.0,0.0,0.0,0.0,0.0,0.0,0.0,0.0,0.0,0.0,0.0,0.0,0.0,0.0,0.0,0.0,0.0,0.0,0.1359,0.1666,0.1001,0.0101,-0.0816,-0.133,-0.2052,0.0,0.0,0.0,0.0,0.0,0.0,0.0,0.0,0.0,0.0,0.0,0.0,0.0,0.0,0.0,0.0,0.0,0.0,0.0,0.0,0.0,0.0,0.0,0.0,0.0,0.0,0.0,0.0,0.0,0.0,0.0,0.0,0.0,0.0,0.0,0.0,0.0,0.0,0.0,0.0,0.0,0.0,0.0,0.0,0.0,0.0,0.0,0.0,0.0,0.0,0.0,0.0,0.0,0.0,0.0,0.0,0.0,0.0,0.0,0.0,0.0,0.0,0.0,0.0,0.0,0.0,0.0,0.0,0.0,0.0,0.0,0.0,0.0,0.0,0.0,0.0,0.0,0.0,0.0,0.0,0.0,0.0,0.0,0.0,0.0,0.0,0.0,0.0,0.0,0.0,0.0,0.0,0.0,0.0,0.0,0.0,0.0,0.0,0.0,0.0,0.0,0.0,0.0,0.0,0.0,0.0,0.0,0.1213,0.1275,0.177,0.0802,0.0,-0.0604,-0.1722,-0.2735,-0.3754,0.0,0.0,0.0,0.0,0.0,0.0,0.0,0.0,0.0,0.0,0.0,0.0,0.0,0.0,0.0,0.0,0.0,0.0,0.0,0.0,0.0,0.0,0.0,0.0,0.0,0.0,0.0,0.0,0.0,0.0,0.0,0.0,0.0,0.0,0.0,0.0,0.0,0.0,-0.4958,-0.4875,0.0,0.0,0.0,0.0,0.0,0.0,0.0,0.0,-1.0759,0.0,0.0,0.0,0.0,0.0,0.0,0.0,0.0,0.0,0.0,0.0,0.0,0.0,0.0,0.0,0.0,0.0,0.0,0.0,0.0,0.0,0.0,0.0,0.0,0.0,0.0,0.0,0.0,0.0,0.0,0.0,0.0,0.0,0.0,0.0,0.0,0.0,0.0,0.0,0.0,0.0,0.0,0.0,0.0,0.0,0.0,0.0,0.0,0.0,0.0,0.0,0.0,0.0,0.0,0.0,0.0,0.1151,0.0713,0.0743,0.1304,0.0303,-0.0707,-0.1712,-0.2615,-0.3531,-0.4364,0.0,0.0,0.0,0.0,0.0,0.0,0.0,0.0,0.0,0.0,0.0,0.0,0.0,0.0,0.0,0.0,0.0,0.0,0.0,0.0,0.0,0.0,0.0,0.0,0.0,0.0,0.0,0.0,0.0,0.0,0.0,0.0,0.0,0.0,0.0,0.0,0.0,0.0,0.0,-0.6055,-0.6483,0.0,0.0,0.0,0.0,0.0,0.0,0.0,0.0,-1.2564,0.0,0.0,0.0,0.0,0.0,0.0,0.0,0.0,0.0,0.0,0.0,0.0,0.0,0.0,0.0,0.0,0.0,0.0,0.0,0.0,0.0,0.0,0.0,0.0,0.0,0.0,0.0,0.0,0.0,0.0,0.0,0.0,0.0,0.0,0.0,0.0,0.0,0.0,0.0,0.0,0.0,0.0,0.0,0.0,0.0,0.0,0.0,0.0,0.0,0.0,0.0,0.0,0.0,0.0,0.0,0.0535,0.0181,0.0189,0.0705,-0.0404,-0.1412,-0.2415,-0.2983,-0.3697,0.0,0.0,0.0,0.0,0.0,0.0,0.0,0.0,0.0,0.0,0.0,0.0,0.0,0.0,0.0,0.0,0.0,0.0,0.0,0.0,0.0,0.0,0.0,0.0,0.0,0.0,0.0,0.0,0.0,0.0,0.0,0.0,0.0,0.0,0.0,0.0,0.0,0.0,0.0,0.0,-0.7263,-0.7664,-0.8153,0.0,0.0,0.0,0.0,0.0,0.0,-1.3164,-1.3359,0.0,0.0,0.0,0.0,0.0,0.0,0.0,0.0,0.0,0.0,0.0,0.0,0.0,0.0,0.0,0.0,0.0,0.0,0.0,0.0,0.0,0.0,0.0,0.0,0.0,0.0,0.0,0.0,0.0,0.0,0.0,0.0,0.0,0.0,0.0,0.0,0.0,0.0,0.0,0.0,0.0,0.0,0.0,0.0,0.0,0.0,0.0,0.0,0.0,0.0,0.0,0.0,0.0,0.0,0.0,0.0,-0.0364,-0.0379,0.0,-0.1099,-0.2097,-0.2802,-0.3045,-0.3746,0.0,0.0,0.0,0.0,0.0,0.0,0.0,0.0,0.0,0.0,0.0,0.0,0.0,0.0,0.0,0.0,0.0,0.0,0.0,0.0,0.0,0.0,0.0,0.0,0.0,0.0,0.0,0.0,0.0,0.0,0.0,0.0,0.0,0.0,0.0,0.0,0.0,0.0,0.0,0.0,0.0,-0.8876,-0.9418,-1.0002,0.0,0.0,0.0,0.0,-1.3719,-1.3971,0.0,0.0,0.0,0.0,0.0,0.0,0.0,0.0,0.0,0.0,0.0,0.0,0.0,0.0,0.0,0.0,0.0,0.0,0.0,0.0,0.0,0.0,0.0,0.0,0.0,0.0,0.0,0.0,0.0,0.0,0.0,0.0,0.0,0.0,0.0,0.0,0.0,0.0,0.0,0.0,0.0,0.0,0.0,0.0,0.0,0.0,0.0,0.0,0.0,0.0,0.0,0.0,0.0,0.0,0.0,0.0,-0.0522,-0.089,-0.1021,-0.0981,-0.1741,-0.2319,-0.2751,-0.3119,-0.3629,0.0,0.0,0.0,0.0,0.0,0.0,0.0,0.0,0.0,0.0,0.0,0.0,0.0,0.0,0.0,0.0,0.0,0.0,0.0,0.0,0.0,0.0,0.0,0.0,0.0,0.0,0.0,0.0,0.0,0.0,0.0,0.0,0.0,0.0,0.0,0.0,0.0,0.0,0.0,0.0,0.0,-1.0124,-1.0921,-1.1251,-1.1848,0.0,0.0,-1.4059,-1.5729,-1.6113,0.0,0.0,0.0,0.0,0.0,0.0,0.0,0.0,0.0,0.0,0.0,0.0,0.0,0.0,0.0,0.0,0.0,0.0,0.0,0.0,0.0,0.0,0.0,0.0,0.0,0.0,0.0,0.0,0.0,0.0,0.0,0.0,0.0,0.0,0.0,0.0,0.0,0.0,0.0,0.0,0.0,0.0,0.0,0.0,0.0,0.0,0.0,0.0,0.0,0.0,0.0,0.0,0.0,0.0,0.0,-0.1335,-0.1216,-0.1527,-0.1674,-0.1541,-0.2296,-0.2884,-0.3138,-0.3176,-0.3604,0.0,0.0,0.0,0.0,0.0,0.0,0.0,0.0,0.0,0.0,0.0,0.0,0.0,0.0,0.0,0.0,0.0,0.0,0.0,0.0,0.0,0.0,0.0,0.0,0.0,0.0,0.0,0.0,0.0,0.0,0.0,0.0,0.0,0.0,0.0,0.0,0.0,0.0,0.0,0.0,0.0,0.0,-1.2419,-1.2542,0.0,0.0,0.0,-1.5652,-1.6294,0.0,0.0,0.0,0.0,0.0,0.0,0.0,0.0,0.0,0.0,0.0,0.0,0.0,0.0,0.0,0.0,0.0,0.0,0.0,0.0,0.0,0.0,0.0,0.0,0.0,0.0,0.0,0.0,0.0,0.0,0.0,0.0,0.0,0.0,0.0,0.0,0.0,0.0,0.0,0.0,0.0,0.0,0.0,0.0,0.0,0.0,0.0,0.0,0.0,0.0,0.0,0.0,0.0,0.0,0.0,0.0,0.0,-0.1738,-0.2064,-0.2219,-0.2186,-0.2735,-0.3127,-0.3379,-0.3209,0.0,0.0,0.0,0.0,0.0,0.0,0.0,0.0,0.0,0.0,0.0,0.0,0.0,0.0,0.0,0.0,0.0,0.0,0.0,0.0,0.0,0.0,0.0,0.0,0.0,0.0,0.0,-0.7082,0.0,0.0,0.0,0.0,0.0,0.0,0.0,0.0,0.0,0.0,0.0,0.0,0.0,0.0,-1.2481,-1.3711,-1.3789,-1.405,0.0,0.0,-1.6801,-1.6783,-1.7649,-1.8172,0.0,0.0,0.0,0.0,0.0,0.0,0.0,0.0,0.0,0.0,0.0,0.0,0.0,0.0,0.0,0.0,0.0,0.0,0.0,0.0,0.0,0.0,0.0,0.0,0.0,0.0,0.0,0.0,0.0,0.0,0.0,0.0,0.0,0.0,0.0,0.0,0.0,0.0,0.0,0.0,0.0,0.0,0.0,0.0,0.0,0.0,0.0,0.0,0.0,0.0,0.0,0.0,0.0,0.0,0.0,-0.217,-0.2354,-0.2608,-0.2943,-0.2941,-0.2913,-0.3059,-0.2942,-0.302,0.0,0.0,0.0,0.0,0.0,0.0,0.0,0.0,0.0,0.0,0.0,0.0,0.0,0.0,0.0,0.0,0.0,0.0,0.0,0.0,0.0,0.0,0.0,0.0,0.0,0.0,0.0,0.0,0.0,0.0,0.0,0.0,0.0,0.0,0.0,0.0,0.0,0.0,0.0,0.0,0.0,-1.3711,-1.4831,-1.4986,-1.5305,0.0,0.0,-1.7153,-1.7898,-1.8659,-1.916,-1.9127,0.0,0.0,0.0,0.0,0.0,0.0,0.0,0.0,0.0,0.0,0.0,0.0,0.0,0.0,0.0,0.0,0.0,0.0,0.0,0.0,0.0,0.0,0.0,0.0,0.0,0.0,0.0,0.0,0.0,0.0,0.0,0.0,0.0,0.0,0.0,0.0,0.0,0.0,0.0,0.0,0.0,0.0,0.0,0.0,0.0,0.0,0.0,0.0,0.0,0.0,0.0,0.0,0.0,-0.2477,-0.2555,-0.2591,-0.2747,-0.2935,-0.2897,-0.2901,-0.2956,-0.2845,-0.2943,0.0,0.0,0.0,0.0,0.0,0.0,0.0,0.0,0.0,0.0,0.0,0.0,0.0,0.0,0.0,0.0,0.0,0.0,0.0,0.0,0.0,0.0,0.0,0.0,0.0,0.0,0.0,0.0,-0.8378,-0.8842,-0.9405,0.0,0.0,0.0,0.0,0.0,0.0,0.0,0.0,0.0,0.0,-1.3965,-1.5269,-1.5711,0.0,0.0,-1.8237,-1.9029,-1.9021,-1.975,-2.013,-1.9621,-1.9346,0.0,0.0,0.0,0.0,0.0,0.0,0.0,0.0,0.0,0.0,0.0,0.0,0.0,0.0,0.0,0.0,0.0,0.0,0.0,0.0,0.0,0.0,0.0,0.0,0.0,0.0,0.0,0.0,0.0,0.0,0.0,0.0,0.0,0.0,0.0,0.0,0.0,0.0,0.0,0.0,0.0,0.0,0.0,0.0,0.0,0.0,0.0,0.0,0.0,0.0,0.0,0.0,-0.2623,-0.2632,-0.2744,-0.2804,-0.2897,-0.2883,-0.2894,-0.2929,-0.2818,-0.2841,0.0,0.0,0.0,0.0,0.0,0.0,0.0,0.0,0.0,0.0,0.0,0.0,0.0,0.0,0.0,0.0,0.0,0.0,0.0,0.0,0.0,0.0,0.0,0.0,0.0,0.0,0.0,0.0,-0.8767,-0.9276,-0.9902,0.0,0.0,0.0,0.0,0.0,0.0,0.0,0.0,0.0,0.0,-1.4393,-1.5826,-1.6384,-1.6944,-1.7644,-1.8962,-1.9783,-1.9417,-2.0098,-2.0517,-2.001,0.0,0.0,0.0,0.0,0.0,0.0,0.0,0.0,0.0,0.0,0.0,0.0,0.0,0.0,0.0,0.0,0.0,0.0,0.0,0.0,0.0,0.0,0.0,0.0,0.0,0.0,0.0,0.0,0.0,0.0,0.0,0.0,0.0,0.0,0.0,0.0,0.0,0.0,0.0,0.0,0.0,0.0,0.0,0.0,0.0,0.0,0.0,0.0,0.0,0.0,0.0,0.0,0.0,-0.252,-0.2514,-0.2639,-0.2779,-0.2946,-0.2902,-0.2876,-0.2875,-0.2758,-0.2694,-0.2691,0.0,0.0,0.0,0.0,0.0,0.0,0.0,0.0,0.0,0.0,0.0,0.0,0.0,0.0,0.0,0.0,0.0,0.0,0.0,0.0,0.0,0.0,0.0,0.0,0.0,0.0,-0.9487,-0.9764,-0.9919,0.0,0.0,0.0,0.0,0.0,0.0,0.0,0.0,0.0,0.0,-1.4352,-1.4983,-1.6592,-1.7111,-1.7516,-1.8104,-1.8679,-1.894,-1.8763,-1.9618,-2.0256,0.0,0.0,0.0,0.0,0.0,0.0,0.0,0.0,0.0,0.0,0.0,0.0,0.0,0.0,0.0,0.0,0.0,0.0,0.0,0.0,0.0,0.0,0.0,0.0,0.0,0.0,0.0,-0.3233,-0.2983,0.0,0.0,0.0,0.0,0.0,0.0,0.0,0.0,0.0,0.0,0.0,-0.2229,-0.2028,0.0,0.0,0.0,0.0,0.0,0.0,0.0,0.0,0.0,0.0,0.0,0.0,-0.258,-0.2629,-0.2703,-0.276,-0.2897,-0.2884,-0.2875,-0.2873,-0.2755,-0.2737,-0.2736,0.0,0.0,0.0,0.0,0.0,0.0,0.0,0.0,0.0,0.0,0.0,0.0,0.0,0.0,0.0,0.0,0.0,0.0,0.0,0.0,0.0,0.0,0.0,0.0,0.0,-0.8802,0.0,0.0,0.0,0.0,0.0,0.0,0.0,0.0,0.0,0.0,0.0,-1.3148,-1.4238,-1.4794,-1.5442,-1.6443,-1.7122,-1.7738,0.0,0.0,0.0,0.0,0.0,0.0,0.0,0.0,0.0,0.0,0.0,0.0,0.0,0.0,-2.22,-2.1798,-2.2554,-2.3225,-2.2987,0.0,0.0,0.0,0.0,0.0,0.0,0.0,0.0,0.0,0.0,0.0,0.0,0.0,0.0,0.0,0.0,-0.2886,0.0,0.0,0.0,0.0,0.0,0.0,0.0,0.0,-0.2511,-0.2751,-0.2878,-0.238,-0.2017,0.0,-0.1346,-0.1123,0.0,0.0,0.0,0.0,0.0,0.0,0.0,0.0,-0.2571,-0.2687,-0.2694,-0.2741,-0.2748,-0.2843,-0.2753,-0.2662,-0.2487,-0.246,-0.2564,-0.2539,-0.2757,0.0,0.0,0.0,0.0,0.0,0.0,0.0,0.0,0.0,0.0,0.0,0.0,0.0,0.0,0.0,0.0,0.0,0.0,0.0,0.0,0.0,0.0,0.0,-0.9025,0.0,0.0,0.0,0.0,0.0,0.0,0.0,0.0,0.0,-1.2772,-1.299,-1.3611,-1.4649,-1.5005,-1.5506,-1.6593,0.0,0.0,0.0,0.0,0.0,0.0,0.0,-2.0508,-2.0592,-2.0964,-2.1259,-2.1588,-2.1866,-2.1907,-2.1544,0.0,0.0,-2.2347,-2.31,-2.3813,-2.393,-2.4523,-2.4948,-2.4948,-2.4846,-2.4888,0.0,0.0,0.0,0.0,0.0,0.0,0.0,0.0,-0.2814,-0.2703,0.0,-0.3076,0.0,0.0,0.0,0.0,0.0,0.0,0.0,0.0,-0.4018,-0.4099,-0.3106,-0.2712,-0.243,-0.2117,-0.1176,-0.0784,-0.094,-0.1272,0.0,0.0,0.0,0.0,0.0,0.0,-0.257,-0.2684,-0.2688,-0.2633,-0.2517,-0.2693,-0.2605,-0.2167,-0.2039,-0.2038,-0.206,-0.2169,-0.2299,-0.2637,-0.3207,0.0,0.0,0.0,0.0,0.0,0.0,0.0,0.0,0.0,0.0,0.0,0.0,0.0,0.0,0.0,0.0,0.0,0.0,0.0,0.0,-0.9327,0.0,0.0,0.0,0.0,0.0,0.0,0.0,0.0,0.0,0.0,-1.3581,-1.3696,-1.4108,-1.5248,0.0,0.0,0.0,0.0,-1.7431,-1.8559,-1.8913,-1.8993,-1.9045,-1.9687,-2.0333,-2.0686,0.0,0.0,-2.2062,-2.2227,-2.2286,-2.2159,-2.2707,-2.3231,-2.3092,-2.3577,-2.4092,-2.435,-2.4808,-2.523,-2.5286,-2.5536,-2.5889,-0.2655,0.0,0.0,0.0,0.0,-0.32,-0.313,-0.309,-0.2962,-0.285,-0.2665,-0.2749,0.0,0.0,0.0,0.0,0.0,0.0,-0.3479,-0.3644,-0.3567,-0.3667,-0.3795,-0.3047,-0.251,-0.2195,-0.1725,-0.1491,-0.1412,-0.1446,-0.1588,-0.177,0.0,0.0,0.0,0.0,-0.223,-0.2621,-0.2463,-0.2407,-0.2378,-0.2378,-0.219,-0.2072,-0.2008,-0.197,-0.195,-0.2079,-0.2223,-0.2534,-0.2916,0.0,0.0,0.0,0.0,0.0,0.0,0.0,0.0,0.0,0.0,0.0,0.0,0.0,0.0,0.0,0.0,0.0,0.0,0.0,-0.9228,-0.9341,-0.9535,0.0,0.0,0.0,0.0,0.0,0.0,0.0,0.0,0.0,-1.4276,-1.4102,-1.4271,0.0,0.0,-1.622,-1.7269,-1.7612,-1.7926,-1.8578,0.0,0.0,0.0,-1.9907,-2.0518,-2.1136,-2.2077,-2.2511,-2.2065,-2.2306,-2.2486,-2.2246,-2.2813,-2.3374,-2.3488,-2.4073,-2.4664,-2.5075,-2.5522,-2.5839,-2.5879,-2.5916,-2.6124,-0.2364,-0.2492,-0.2873,-0.2834,-0.2641,-0.2615,-0.2709,-0.274,-0.2598,-0.2574,-0.265,-0.2712,-0.2647,-0.2607,-0.2869,0.0,0.0,0.0,-0.3919,-0.4243,-0.3585,-0.36,-0.4146,-0.2978,-0.2431,-0.2273,-0.1883,-0.157,-0.1492,-0.1317,-0.1317,-0.1492,0.0,0.0,-0.2041,-0.2118,-0.2223,-0.2435,-0.2439,-0.2372,-0.2239,-0.1909,-0.1806,-0.1848,-0.1723,-0.1715,-0.181,-0.1938,-0.2157,-0.2321,-0.2732,-0.3092,0.0,0.0,0.0,0.0,0.0,0.0,0.0,0.0,0.0,0.0,0.0,-0.712,-0.7265,0.0,0.0,0.0,-0.8286,-0.8695,-0.8902,-0.9252,0.0,0.0,0.0,0.0,0.0,0.0,0.0,-1.2599,-1.3166,-1.3667,-1.435,-1.4497,-1.4789,-1.5538,-1.5998,-1.6498,-1.7294,0.0,-1.7709,-1.8407,-1.883,-1.909,-1.9231,-1.9821,-2.051,-2.1094,-2.1969,-2.2446,-2.1943,-2.2209,-2.242,-2.2394,-2.2739,-2.321,-2.3603,-2.4247,-2.4835,-2.5313,-2.5688,-2.5948,-2.6125,-2.6303,-2.6535,-0.2307,-0.2223,-0.2455,-0.2314,-0.2087,-0.1875,-0.2029,-0.2279,-0.206,-0.2201,-0.2604,-0.2937,-0.2982,-0.2904,-0.3214,0.0,0.0,-0.396,-0.426,-0.4626,-0.3722,-0.368,-0.4226,-0.2665,-0.2038,-0.2354,-0.1649,-0.1336,-0.1258,-0.1021,-0.1022,-0.1257,-0.1768,-0.1999,-0.1885,-0.2199,-0.2299,-0.2269,-0.2431,-0.235,-0.1945,-0.1544,-0.1369,-0.1574,-0.1367,-0.1369,-0.1574,-0.1807,-0.1943,-0.2051,-0.2476,-0.2835,-0.293,0.0,0.0,0.0,0.0,0.0,0.0,0.0,0.0,0.0,0.0,0.0,0.0,0.0,0.0,0.0,-0.8598,0.0,-0.8295,-0.9072,0.0,0.0,0.0,-1.0089,-1.0573,-1.1005,-1.1572,-1.2258,0.0,0.0,0.0,0.0,-1.5493,-1.5928,-1.5928,-1.6253,-1.7179,-1.6966,-1.7038,-1.8222,-1.8583,-1.8683,-1.8834,-1.9648,-2.0429,-2.0769,-2.1375,-2.1866,-2.1788,-2.1972,-2.2259,-2.242,-2.2616,-2.2969,-2.3636,-2.4176,-2.4637,-2.5061,-2.5508,-2.5825,-2.6218,-2.6645,-2.6997,-0.2844,-0.2554,-0.2635,-0.2393,-0.1958,-0.2393,-0.2565,-0.2468,-0.2461,-0.2587,-0.2664,-0.2637,-0.2981,-0.3528,-0.3295,-0.3752,-0.4663,-0.3908,-0.4064,-0.4743,-0.3361,-0.2979,-0.3368,-0.2198,-0.1649,-0.1571,-0.1414,-0.1336,-0.1336,-0.1258,-0.11,-0.1021,-0.1328,-0.1484,-0.1414,-0.1335,-0.1417,-0.1744,-0.1664,-0.1585,-0.1505,-0.1371,-0.1288,-0.1338,-0.1287,-0.1288,-0.1338,-0.1573,-0.1632,-0.167,-0.2058,-0.226,-0.2339,-0.2853,0.0,0.0,0.0,0.0,0.0,0.0,0.0,0.0,0.0,-0.7064,-0.7315,0.0,-0.7446,0.0,-0.8198,-0.8661,-0.9082,-0.9286,0.0,0.0,-0.9885,-1.0073,-1.0551,-1.0699,-1.1022,-1.1974,-1.2527,-1.2989,-1.3607,-1.4266,-1.4907,-1.5316,-1.5779,-1.6229,-1.653,-1.6886,-1.7229,-1.7854,-1.8387,-1.8731,-1.895,-1.9865,-2.0603,-2.079,-2.1441,-2.1832,-2.1729,-2.1949,-2.2309,-2.2555,-2.2848,-2.3138,-2.3556,-2.3982,-2.4332,-2.4835,-2.5508,-2.6056,-2.6286,-2.6674,-2.7041,-0.2938,-0.276,-0.2829,-0.2493,-0.1974,-0.2424,-0.2515,-0.2505,-0.2487,-0.2608,-0.2685,-0.2724,-0.3061,-0.3452,-0.3452,-0.3921,-0.4623,-0.3839,-0.3917,-0.4623,-0.3214,-0.2668,-0.2899,-0.2042,-0.1573,-0.1573,-0.1415,-0.1336,-0.1415,-0.1336,-0.1179,-0.11,-0.1258,-0.1258,-0.11,-0.11,-0.1179,-0.1258,-0.1258,-0.1336,-0.1415,-0.1273,-0.1115,-0.1101,-0.1114,-0.1115,-0.1022,-0.1415,-0.1562,-0.1465,-0.1847,-0.2132,-0.2083,-0.2505,-0.2876,0.0,0.0,0.0,0.0,0.0,0.0,0.0,0.0,0.0,0.0,0.0,-0.7298,0.0,-0.8266,0.0,-0.9101,-0.9179,-0.9385,-0.964,-0.9772,-0.9858,-1.011,-1.039,-1.0793,-1.14,-1.2029,-1.2687,-1.3317,-1.3967,-1.4455,-1.4866,-1.5319,-1.5814,-1.6242,-1.6698,-1.7098,-1.7614,-1.8199,-1.8716,-1.9014,-1.9615,-2.007,-2.0443,-2.105,-2.1479,-2.1694,-2.2011,-2.2321,-2.2629,-2.286,-2.3138,-2.3509,-2.391,-2.4319,-2.4721,-2.5355,-2.5853,-2.6002,-2.634,-2.6659,-0.3,-0.2757,-0.2891,-0.2743,-0.2334,-0.2334,-0.2331,-0.2408,-0.2312,-0.2431,-0.2662,-0.2878,-0.3061,-0.3139,-0.345,-0.3917,-0.4307,-0.368,-0.3761,-0.4226,-0.3057,-0.2588,-0.2746,-0.1964,-0.1651,-0.1808,-0.1493,-0.1415,-0.1573,-0.1415,-0.1258,-0.1258,-0.1258,-0.11,-0.0864,-0.11,-0.1102,-0.0868,-0.1105,-0.1262,-0.1493,-0.1027,-0.0871,-0.0868,-0.0868,-0.0789,-0.0631,-0.118,-0.1412,-0.1252,-0.1803,-0.209,-0.2033,-0.231,-0.2594,0.0,-0.3257,0.0,0.0,0.0,0.0,0.0,0.0,0.0,0.0,-0.715,-0.7286,-0.7621,-0.8327,-0.87,-0.8566,-0.8922,-0.9162,-0.9203,-0.935,-0.9529,-0.958,-1.0176,-1.0617,-1.0784,-1.1594,-1.2353,-1.2968,-1.3606,-1.4033,-1.4403,-1.4597,-1.5079,-1.5912,-1.6326,-1.6784,-1.735,-1.7939,-1.8504,-1.8964,-1.9094,-1.9372,-1.9987,-2.054,-2.1031,-2.1647,-2.2011,-2.2321,-2.2629,-2.2848,-2.309,-2.3509,-2.3956,-2.435,-2.4664,-2.5075,-2.5481,-2.5674,-2.5948,-2.6111,-0.3059,-0.3044,-0.2982,-0.2925,-0.2785,-0.2785,-0.2488,-0.2183,-0.2126,-0.2141,-0.2306,-0.252,-0.2824,-0.3061,-0.2824,-0.3137,-0.3841,-0.3215,-0.3294,-0.3919,-0.2901,-0.251,-0.2511,-0.1885,-0.1573,-0.1415,-0.1336,-0.1336,-0.1336,-0.1336,-0.1179,-0.1022,-0.0943,-0.0864,-0.0629,0.0,0.0,0.0,-0.0728,-0.0801,-0.1024,-0.0653,-0.0494,-0.0647,-0.0647,0.0,-0.0646,-0.0714,-0.0856,-0.0994,-0.1321,0.0,0.0,0.0,0.0,0.0,0.0,0.0,0.0,0.0,0.0,0.0,-0.4838,-0.5469,-0.6485,-0.6845,-0.7086,-0.7165,-0.7265,-0.7467,-0.7577,-0.8054,-0.8363,-0.8552,-0.8903,-0.9214,-0.9549,-0.9889,-1.0138,-1.029,-1.0779,-1.1338,-1.2117,-1.2465,-1.298,-1.3844,-1.396,-1.4267,-1.4847,-1.5673,-1.6395,-1.6948,-1.7681,-1.8213,-1.8544,-1.8869,-1.933,-1.9966,-2.0442,-2.0978,-2.1572,-2.1949,-2.2309,-2.2616,-2.2909,-2.3138,-2.3403,-2.37,-2.4099,-2.4363,-2.4721,-2.5061,-2.5619,-2.5839,-2.6002,-0.2912,0.0,-0.2848,-0.2717,0.0,-0.2604,-0.2305,-0.1996,-0.2148,-0.2168,-0.2233,-0.2287,-0.2431,-0.2668,-0.2588,-0.2746,-0.3295,-0.2824,-0.2904,-0.3452,-0.2668,-0.2276,-0.2199,-0.1807,-0.1573,-0.1415,-0.1336,-0.1336,-0.1415,-0.1336,-0.1258,-0.11,-0.11,-0.1022,-0.0943,-0.0943,-0.0869,-0.072,-0.064,-0.0716,-0.0866,-0.0482,-0.0405,-0.056,0.0,0.0,0.0,0.0,0.0,0.0,0.0,0.0,0.0,0.0,0.0,-0.2388,-0.287,-0.3235,-0.3299,-0.3804,-0.403,-0.3858,-0.4352,-0.4993,-0.5868,-0.6324,-0.6577,-0.6628,-0.6761,-0.6941,-0.7131,-0.7577,-0.7964,-0.8263,-0.8718,-0.9115,-0.9448,-0.9695,-0.9997,-1.0143,-1.0368,-1.0812,-1.17,-1.2003,-1.2599,-1.3492,-1.3725,-1.4008,-1.4569,-1.5284,-1.6061,-1.7038,-1.7529,-1.7998,-1.8337,-1.8808,-1.9264,-1.9933,-2.0399,-2.0914,-2.1572,-2.1937,-2.2321,-2.2616,-2.2909,-2.3138,-2.3403,-2.3641,-2.3949,-2.4157,-2.4492,-2.4778,-2.5118,-2.5328,-2.5619,-0.2777,-0.2954,-0.2624,-0.2515,-0.2515,-0.2334,-0.2132,-0.1922,0.0,0.0,0.0,-0.2243,-0.2298,-0.2289,-0.2448,-0.2599,-0.2747,-0.2588,-0.2668,-0.2904,-0.2431,-0.2119,-0.1808,-0.1651,-0.1573,-0.1572,-0.1336,-0.1415,-0.1573,-0.1336,-0.1336,-0.1336,-0.1336,-0.1336,-0.1336,-0.1336,-0.1179,-0.0943,-0.071,-0.071,-0.0864,-0.0475,-0.0317,-0.0471,-0.0539,-0.0532,-0.053,-0.0887,-0.102,-0.0947,-0.1312,-0.1528,-0.1522,-0.1883,-0.2097,-0.2016,-0.2516,-0.2777,-0.2717,-0.342,-0.3682,-0.3277,-0.3998,-0.4737,-0.531,-0.5745,-0.5976,-0.6028,-0.6301,-0.6546,-0.666,-0.7185,-0.7588,-0.7892,-0.8524,-0.9,-0.9281,-0.9625,-0.9916,-1.0143,-1.0143,-1.0519,-1.1484,-1.1855,-1.2298,-1.32,-1.3645,-1.3935,-1.4497,-1.5213,-1.6132,-1.7176,-1.7588,-1.7842,-1.8259,-1.8664,-1.9264,-1.9802,-2.0335,-2.0873,-2.1509,-2.1949,-2.2259,-2.2629,-2.2909,-2.309,-2.333,-2.3582,-2.3891,-2.4008,-2.4332,-2.4549,-2.462,-2.4835,-2.5174,-0.2958,-0.2952,-0.2625,-0.2604,-0.2785,-0.2604,-0.2419,-0.2405,-0.2148,-0.202,-0.2091,-0.242,-0.2555,-0.2507,-0.2589,-0.256,-0.2589,-0.2668,-0.2588,0.0,-0.2431,-0.2199,-0.165,-0.1651,-0.1493,-0.1336,-0.1336,-0.1336,-0.1336,-0.1336,-0.1336,-0.1336,-0.1336,-0.1336,-0.1336,-0.1336,-0.1258,-0.1258,-0.0801,-0.0642,-0.0629,-0.0245,-0.0082,-0.0079,-0.0235,-0.0309,-0.0379,-0.0517,-0.0656,-0.0874,-0.102,-0.1155,-0.1412,-0.148,-0.1604,-0.1706,-0.2179,-0.2446,-0.244,-0.3113,-0.3461,-0.3446,-0.3742,-0.4198,-0.4845,-0.5139,-0.5271,-0.5272,-0.5183,-0.5208,-0.5631,-0.6395,-0.7011,-0.7427,-0.8215,-0.8847,-0.9216,-0.9549,-0.9695,-0.9916,-0.9916,-1.0293,-1.126,-1.1632,-1.215,-1.2973,-1.3419,-1.3783,-1.4425,-1.5488,-1.6412,-1.7097,-1.751,-1.7852,-1.8192,-1.8607,-1.9142,-1.9813,-2.0205,-2.0669,-2.1509,-2.1812,-2.2061,-2.2629,-2.2787,-2.2969,-2.3138,-2.339,-2.3675,-2.3852,-2.4118,-2.4323,-2.4536,-2.4664,-2.4778,-0.2497,-0.2769,-0.2445,-0.2424,-0.2515,-0.2244,-0.2244,-0.233,-0.2287,-0.225,-0.2225,-0.2452,-0.2425,-0.2317,-0.237,-0.2263,-0.2002,-0.2212,-0.2199,-0.2042,-0.2042,-0.1885,-0.165,-0.1493,-0.1415,-0.1336,-0.1336,-0.1336,-0.1336,-0.1336,-0.1336,-0.1336,-0.1336,-0.1336,-0.1336,-0.1336,-0.1258,-0.11,-0.0794,-0.0635,-0.0708,-0.0238,-0.0079,-0.0308,-0.0375,-0.0441,-0.0436,-0.0708,-0.0838,-0.0839,-0.1048,-0.118,-0.1235,-0.1371,-0.1499,-0.1481,-0.1951,-0.2288,-0.2288,-0.2859,-0.3239,-0.3346,-0.3612,-0.3959,-0.4225,-0.4546,-0.4692,-0.4834,-0.4748,-0.4895,-0.5369,-0.6019,-0.666,-0.7212,-0.8036,-0.8656,-0.9105,-0.9392,-0.9625,-0.9771,-0.9846,-1.0218,-1.1111,-1.1409,-1.1929,-1.29,-1.3346,-1.3855,-1.4353,-1.5204,-1.6053,-1.6612,-1.7185,-1.7725,-1.8066,-1.8539,-1.9008,-1.9518,-1.9857,-2.0399,-2.1106,-2.1474,-2.1862,-2.2309,-2.2678,-2.2909,-2.2944,-2.3065,-2.3334,-2.3682,-2.367,-2.3848,-2.4213,-2.4447,-2.4664,-0.2138,-0.2495,-0.2263,-0.2155,-0.2155,-0.2064,-0.2064,-0.2244,-0.2424,-0.2485,-0.2347,-0.2401,-0.2298,-0.2028,-0.2151,-0.2042,-0.1785,-0.1827,-0.1887,-0.1887,-0.1651,-0.1573,-0.1493,-0.1336,-0.1336,-0.1336,-0.1336,-0.1336,-0.1336,-0.1336,-0.1336,-0.1336,-0.1336,-0.1336,-0.1336,-0.1258,-0.11,-0.0864,-0.0629,-0.0629,-0.0706,-0.0307,-0.0227,-0.0449,-0.0431,-0.0489,-0.0555,-0.0816,-0.0875,-0.0741,-0.101,-0.1144,-0.1076,-0.1344,-0.1412,-0.1344,-0.1816,-0.2154,-0.2354,-0.2757,-0.3025,-0.3159,-0.3493,-0.3758,-0.3825,-0.403,-0.4298,-0.4495,-0.4564,-0.4697,-0.5233,-0.5796,-0.6391,-0.7186,-0.7989,-0.8621,-0.8954,-0.9327,-0.9593,-0.9562,-0.9772,-1.0118,-1.0739,-1.1212,-1.1777,-1.2806,-1.3419,-1.3935,-1.4353,-1.495,-1.5511,-1.6096,-1.6844,-1.7529,-1.794,-1.8337,-1.8798,-1.9243,-1.9584,-2.0129,-2.0635,-2.1083,-2.1463,-2.1975,-2.2482,-2.264,-2.2662,-2.2694,-2.2898,-2.3211,-2.3251,-2.3389,-2.3995,-2.439,-2.4677,-0.226,-0.2218,-0.1992,-0.1974,-0.2244,-0.2334,-0.2424,-0.2424,-0.2513,-0.2306,-0.2177,-0.2389,-0.229,-0.2076,-0.2029,-0.2069,-0.2112,-0.1747,-0.173,-0.1808,-0.1493,-0.1336,-0.1336,-0.1336,-0.1336,-0.1336,-0.1336,-0.1336,-0.1336,-0.1336,-0.1336,-0.1336,-0.1336,-0.1336,-0.1258,-0.11,-0.0943,-0.0864,-0.055,-0.0314,-0.0314,-0.0307,-0.0225,-0.0073,-0.0213,-0.0346,-0.0339,-0.0472,-0.0539,-0.0539,-0.0741,-0.0809,-0.0876,-0.101,-0.1143,-0.1143,-0.1614,-0.2153,-0.2621,-0.2889,-0.3023,-0.3025,-0.3362,-0.3629,-0.3758,-0.3961,-0.4097,-0.43,-0.4364,-0.4498,-0.4834,-0.567,-0.6441,-0.7066,-0.8029,-0.8758,-0.8969,-0.9327,-0.9546,-0.9338,-0.9637,-0.9957,-1.039,-1.1003,-1.1801,-1.2896,-1.3477,-1.3935,-1.4338,-1.4738,-1.512,-1.5634,-1.6506,-1.7307,-1.7784,-1.8192,-1.8475,-1.9027,-1.9431,-1.976,-2.0147,-2.0681,-2.1227,-2.1346,-2.2017,-2.2177,-2.2135,-2.216,-2.2387,-2.2623,-2.2865,-2.3197,-2.3916,-2.4239,-2.4587,-0.1899,-0.1973,-0.182,-0.1974,-0.2334,-0.2155,-0.2244,-0.2511,-0.2303,-0.2103,-0.1912,-0.1991,-0.1977,-0.1872,-0.1833,-0.1805,-0.1624,-0.1509,-0.1493,-0.1572,-0.1415,-0.1336,-0.1336,-0.1336,-0.1336,-0.1336,-0.1336,-0.1336,-0.1336,-0.1336,-0.1336,-0.1336,-0.1336,-0.1336,-0.1258,-0.1179,-0.1022,-0.0707,-0.0697,-0.0542,-0.0312,-0.0151,-0.0221,-0.0363,-0.042,-0.0409,-0.0473,-0.0607,-0.0674,-0.0674,-0.0742,-0.0876,-0.0942,-0.1076,-0.1076,-0.1143,-0.1479,-0.1951,-0.2488,-0.2688,-0.2889,-0.2956,-0.3295,-0.3563,-0.3758,-0.3894,-0.4161,-0.4498,-0.4567,-0.4694,-0.5036,-0.5894,-0.6676,-0.7216,-0.7984,-0.8635,-0.8998,-0.9246,-0.9386,-0.9327,-0.9717,-1.005,-1.0435,-1.1262,-1.2118,-1.2791,-1.3281,-1.376,-1.4338,-1.455,-1.4838,-1.5418,-1.5923,-1.6307,-1.6816,-1.7246,-1.7646,-1.7883,-1.8268,-1.8659,-1.9059,-1.9492,-1.9912,-2.0456,-2.0997,-2.1366,-2.1275,-2.1331,-2.1461,-2.1911,-2.2395,-2.2763,-2.3139,-2.3358,-2.374,-0.1616,-0.1789,-0.173,-0.1885,-0.2244,-0.1974,-0.1974,-0.2238,-0.2106,-0.1819,-0.1633,-0.1599,-0.1577,-0.1567,-0.1553,-0.1547,-0.138,-0.1351,-0.1336,-0.1336,-0.1336,-0.1336,-0.1336,-0.1336,-0.1336,-0.1336,-0.1336,-0.1336,-0.1336,-0.1336,-0.1336,-0.1336,-0.1336,-0.1258,-0.1179,-0.1179,-0.0943,-0.0549,-0.0617,-0.054,-0.0312,-0.0075,-0.022,-0.0508,-0.0485,-0.0472,-0.0472,-0.0607,-0.0674,-0.0742,-0.0674,-0.0808,-0.101,-0.1076,-0.1143,-0.1277,-0.1479,-0.1816,-0.2288,-0.2487,-0.2688,-0.2889,-0.3226,-0.3496,-0.3761,-0.3894,-0.4161,-0.4564,-0.4827,-0.5027,-0.5302,-0.6094,-0.6814,-0.7283,-0.7943,-0.8489,-0.8903,-0.913,-0.9209,-0.9233,-0.9664,-1.0166,-1.0528,-1.1481,-1.2333,-1.2537,-1.2999,-1.3576,-1.408,-1.4194,-1.4362,-1.5106,-1.5239,-1.5442,-1.5899,-1.6587,-1.6845,-1.7096,-1.748,-1.7874,-1.8078,-1.8505,-1.8988,-1.9738,-2.0112,-2.0351,-2.0507,-2.0557,-2.074,-2.1323,-2.1892,-2.2376,-2.2627,-2.2683,-2.3017,-0.1509,-0.148,-0.1448,-0.1615,-0.1795,-0.1795,-0.1795,-0.1882,-0.184,-0.1632,-0.135,-0.1319,-0.1369,-0.1347,-0.1372,-0.1384,-0.1541,-0.135,-0.1415,-0.1493,-0.1415,-0.1336,-0.1336,-0.1336,-0.1336,-0.1336,-0.1336,-0.1336,-0.1336,-0.1336,-0.1336,-0.1258,-0.1258,-0.1179,-0.0943,-0.0786,-0.055,-0.0393,-0.0235,-0.0157,-0.0235,-0.0076,-0.0223,-0.0509,-0.0416,-0.0405,-0.0472,-0.0405,-0.0405,-0.054,-0.054,-0.0607,-0.0809,-0.1009,-0.121,-0.1479,-0.1547,-0.1748,-0.2153,-0.2356,-0.2557,-0.2688,-0.2956,-0.3291,-0.3758,-0.3825,-0.3961,-0.43,-0.4964,-0.5359,-0.5564,-0.6296,-0.6875,-0.7253,-0.7801,-0.8365,-0.8949,-0.8951,-0.8979,-0.9074,-0.9555,-1.0137,-1.0651,-1.1465,-1.2088,-1.2438,-1.2791,-1.3242,-1.3777,-1.3651,-1.3849,-1.4368,-1.4613,-1.4705,-1.575,-1.6138,-1.6553,-1.6782,-1.6991,-1.7554,-1.7883,-1.815,-1.8583,-1.9089,-1.9424,-1.97,-1.9801,-2.0055,-2.0333,-2.0898,-2.1609,-2.202,-2.2036,-2.2511,-2.2738,-0.1479,-0.1451,-0.144,-0.1525,-0.1795,-0.1615,-0.1615,-0.1788,-0.1557,-0.1443,-0.1344,-0.1316,-0.1286,-0.1338,-0.1289,-0.1372,-0.1432,-0.1341,-0.1336,-0.1415,-0.1336,-0.1336,-0.1336,-0.1336,-0.1336,-0.1336,-0.1336,-0.1336,-0.1258,-0.11,-0.1022,-0.1022,-0.0943,-0.0786,-0.0707,-0.0629,-0.0471,-0.0314,-0.0465,-0.0464,-0.0312,-0.0372,-0.0434,-0.0582,-0.0493,-0.0548,-0.0875,-0.0606,-0.0539,-0.0875,-0.0674,-0.0674,-0.0942,-0.1076,-0.1277,-0.1547,-0.1614,-0.1748,-0.2153,-0.2288,-0.249,-0.2686,-0.2889,-0.3224,-0.3692,-0.3825,-0.4025,-0.4564,-0.5096,-0.5491,-0.5918,-0.6574,-0.7117,-0.7328,-0.7794,-0.8203,-0.8553,-0.8749,-0.8755,-0.8822,-0.9265,-0.9896,-1.0568,-1.1231,-1.1717,-1.1903,-1.2359,-1.2816,-1.3112,-1.3165,-1.3316,-1.3844,-1.404,-1.4288,-1.4766,-1.5285,-1.5699,-1.5929,-1.6277,-1.6593,-1.6891,-1.7259,-1.7625,-1.8167,-1.8578,-1.9018,-1.9124,-1.9612,-1.992,-2.0328,-2.1081,-2.1394,-2.1315,-2.1732,-2.1968,-0.1463,-0.1438,-0.1436,-0.1525,-0.1615,-0.1436,-0.1525,-0.1607,-0.1374,-0.1353,-0.1353,-0.132,-0.1291,-0.1277,-0.1213,-0.1205,-0.1181,-0.1258,-0.1336,-0.1336,-0.1336,-0.1336,-0.1336,-0.1336,-0.1336,-0.1336,-0.1336,-0.1258,-0.1179,-0.0943,-0.0864,-0.0786,-0.0707,-0.0629,-0.0629,-0.055,-0.0471,-0.0391,-0.0541,-0.0464,-0.0312,-0.0449,-0.0584,-0.0587,-0.0575,-0.0628,-0.0877,-0.0606,-0.0674,-0.0875,-0.0674,-0.0674,-0.0942,-0.1076,-0.1277,-0.1547,-0.1614,-0.1816,-0.2153,-0.2288,-0.2421,-0.2686,-0.2822,-0.3157,-0.3625,-0.3758,-0.4028,-0.4495,-0.5093,-0.5491,-0.5844,-0.6593,-0.7162,-0.7346,-0.7633,-0.8022,-0.8353,-0.8524,-0.8689,-0.8883,-0.9259,-0.9759,-1.0334,-1.1016,-1.1428,-1.1514,-1.1969,-1.2424,-1.266,-1.2744,-1.3027,-1.3505,-1.3813,-1.4105,-1.4436,-1.4851,-1.52,-1.5478,-1.5821,-1.606,-1.6249,-1.6534,-1.6864,-1.7346,-1.7776,-1.817,-1.8667,-1.9198,-1.9565,-1.9875,-2.0335,-2.0772,-2.0794,-2.0917,-2.1268,-0.1462,-0.1437,-0.1436,-0.1436,-0.1435,-0.1432,-0.1434,-0.1425,-0.1288,-0.1362,-0.1376,-0.1329,-0.1305,-0.1301,-0.1138,-0.0964,-0.0946,-0.1179,-0.1258,-0.1258,-0.1258,-0.1258,-0.1258,-0.1258,-0.1336,-0.1336,-0.1336,-0.1179,-0.0943,-0.0864,-0.0786,-0.0629,-0.055,-0.055,-0.0629,-0.0393,-0.0314,-0.0314,-0.0235,-0.0157,-0.0314,-0.0311,-0.0461,-0.0529,-0.0589,-0.0568,-0.0542,-0.0472,-0.0607,-0.0742,-0.0607,-0.0607,-0.0808,-0.101,-0.121,-0.1547,-0.1614,-0.1816,-0.2085,-0.2221,-0.2354,-0.2619,-0.2686,-0.2956,-0.3429,-0.3696,-0.3894,-0.4159,-0.4827,-0.5428,-0.5557,-0.63,-0.7034,-0.7238,-0.7493,-0.7817,-0.8186,-0.8299,-0.857,-0.9125,-0.9403,-0.96,-1.0098,-1.0762,-1.1307,-1.1458,-1.1747,-1.2028,-1.2345,-1.2491,-1.2846,-1.3302,-1.3726,-1.4019,-1.4267,-1.4524,-1.4812,-1.5107,-1.5566,-1.5874,-1.6066,-1.6306,-1.6648,-1.7078,-1.7567,-1.8018,-1.8464,-1.8946,-1.9356,-1.9668,-1.9978,-2.0296,-2.0562,-2.0725,-2.0875,-0.1444,-0.1436,-0.1436,-0.1436,-0.1433,-0.1414,-0.1415,-0.1428,-0.1288,-0.1364,-0.138,-0.135,-0.1323,-0.1306,-0.1221,-0.1125,-0.0943,-0.1022,-0.0943,-0.0864,-0.1179,-0.1179,-0.11,-0.1179,-0.1336,-0.1258,-0.11,-0.11,-0.11,-0.0707,-0.055,-0.0707,-0.0393,-0.0236,-0.0393,-0.0314,-0.0314,-0.0314,-0.0471,-0.055,-0.0392,-0.0541,-0.061,-0.0454,-0.0517,-0.0502,-0.0347,-0.034,-0.0472,-0.0742,-0.0607,-0.0674,-0.0942,-0.1076,-0.121,-0.1344,-0.1547,-0.1681,-0.1951,-0.2153,-0.2354,-0.2619,-0.2686,-0.2956,-0.3431,-0.3565,-0.3696,-0.3894,-0.4691,-0.5223,-0.5355,-0.6148,-0.6779,-0.703,-0.7306,-0.7564,-0.7779,-0.7883,-0.823,-0.881,-0.9003,-0.928,-0.974,-1.0425,-1.0772,-1.0978,-1.1284,-1.1602,-1.1684,-1.2204,-1.249,-1.285,-1.3338,-1.395,-1.4207,-1.4387,-1.4565,-1.4911,-1.5303,-1.5642,-1.5836,-1.6134,-1.6477,-1.6864,-1.7357,-1.7799,-1.8247,-1.8625,-1.904,-1.9408,-1.9772,-2.0093,-2.0461,-2.0662,-2.0812,-0.1456,-0.1436,-0.1436,-0.1436,-0.1431,-0.1403,-0.14,-0.141,-0.1369,-0.1363,-0.138,-0.136,-0.1337,-0.132,-0.1226,-0.1125,-0.0866,-0.0864,-0.0707,-0.055,-0.0943,-0.11,-0.1022,-0.1179,-0.1336,-0.1258,-0.1022,-0.0943,-0.1022,-0.055,-0.0393,-0.0471,-0.0157,-0.0079,-0.0314,-0.0236,-0.0236,-0.0314,-0.0471,-0.0471,-0.0313,-0.0537,-0.053,-0.0226,-0.0366,-0.0357,-0.021,-0.0205,-0.0337,-0.0607,-0.0674,-0.0808,-0.1009,-0.1076,-0.121,-0.1412,-0.1547,-0.1748,-0.1951,-0.2153,-0.2288,-0.2554,-0.2619,-0.2822,-0.3228,-0.3431,-0.3563,-0.3761,-0.4492,-0.4957,-0.5156,-0.5951,-0.6548,-0.6683,-0.7012,-0.733,-0.7461,-0.7596,-0.7862,-0.8387,-0.87,-0.9087,-0.9408,-1.0117,-1.0428,-1.0624,-1.0933,-1.1247,-1.1365,-1.1809,-1.2174,-1.2613,-1.3155,-1.3649,-1.4079,-1.4258,-1.4378,-1.4675,-1.502,-1.5362,-1.5604,-1.6009,-1.6363,-1.6751,-1.719,-1.7523,-1.7963,-1.8302,-1.8614,-1.904,-1.9565,-1.9926,-2.0296,-2.0562,-2.0712,-0.1394,-0.144,-0.1436,-0.1436,-0.143,-0.1399,-0.1388,-0.1386,-0.1356,-0.1358,-0.1376,-0.1353,-0.1342,-0.1252,-0.1144,-0.104,-0.0867,-0.0707,-0.055,-0.0471,-0.0707,-0.1022,-0.1258,-0.1258,-0.1258,-0.1179,-0.0943,-0.0786,-0.0707,-0.0393,-0.0236,-0.0157,-0.0079,-0.0079,-0.0236,-0.0157,-0.0157,-0.0314,-0.0157,-0.0157,-0.0078,-0.023,-0.0302,-0.0075,-0.0217,-0.0282,-0.014,-0.0137,-0.0202,-0.0539,-0.0875,-0.101,-0.0876,-0.101,-0.1277,-0.1479,-0.1547,-0.1816,-0.2085,-0.2154,-0.2288,-0.249,-0.2621,-0.282,-0.3092,-0.3295,-0.3431,-0.3565,-0.4298,-0.4761,-0.496,-0.5756,-0.635,-0.6416,-0.6815,-0.7138,-0.7396,-0.7461,-0.7722,-0.8047,-0.8565,-0.8958,-0.9081,-0.9919,-1.0371,-1.0555,-1.0807,-1.1059,-1.131,-1.1677,-1.212,-1.2552,-1.2981,-1.3459,-1.383,-1.4139,-1.4258,-1.4556,-1.4843,-1.5069,-1.543,-1.5836,-1.6239,-1.6637,-1.6976,-1.7301,-1.7689,-1.803,-1.8518,-1.9052,-1.9525,-1.9875,-2.0144,-2.041,-2.0662,-0.1097,-0.1466,-0.1445,-0.1436,-0.1428,-0.1382,-0.1371,-0.1381,-0.1336,-0.1335,-0.1348,-0.1327,-0.1316,-0.1311,-0.1204,-0.1027,-0.0787,-0.0629,-0.0471,-0.0393,-0.055,-0.0943,-0.1179,-0.11,-0.1022,-0.0943,-0.0707,-0.0471,-0.055,-0.0236,-0.0157,-0.0471,-0.0079,-0.0157,-0.0471,-0.0236,-0.0314,-0.0471,-0.0471,-0.0311,-0.023,-0.038,-0.045,-0.0221,-0.0362,-0.0356,-0.028,-0.0342,-0.0405,-0.0539,-0.0875,-0.1076,-0.1009,-0.1076,-0.121,-0.1412,-0.1547,-0.1681,-0.1951,-0.2153,-0.2354,-0.2554,-0.2621,-0.2822,-0.3092,-0.3228,-0.3295,-0.3429,-0.4095,-0.4625,-0.4824,-0.562,-0.6218,-0.642,-0.6815,-0.7138,-0.7265,-0.7396,-0.7591,-0.7792,-0.8177,-0.8565,-0.8958,-0.9536,-1.0053,-1.0244,-1.0555,-1.0933,-1.1185,-1.1498,-1.1872,-1.2243,-1.2674,-1.3155,-1.358,-1.389,-1.4198,-1.4437,-1.4666,-1.4893,-1.5254,-1.5614,-1.6066,-1.6513,-1.6751,-1.7078,-1.7534,-1.7986,-1.8518,-1.8999,-1.9368,-1.9681,-1.9939,-2.0195,-2.0511,-0.0997,-0.1441,-0.1423,-0.1409,-0.1395,-0.1277,-0.1266,-0.1265,-0.125,-0.124,-0.1077,-0.1148,-0.1139,-0.1055,-0.1112,-0.1022,-0.0707,-0.0707,-0.0629,-0.0471,-0.055,-0.0864,-0.1179,-0.1022,-0.0864,-0.0864,-0.0471,-0.0393,-0.0393,0.0,0.0,-0.0157,0.0236,0.0314,0.0,0.0236,0.0312,0.0155,0.0077,0.0153,0.0224,-0.0074,-0.0073,0.0072,-0.0071,-0.021,-0.0207,-0.034,-0.0472,-0.0674,-0.0942,-0.1076,-0.1076,-0.1076,-0.121,-0.1412,-0.1547,-0.1748,-0.1951,-0.2153,-0.2287,-0.242,-0.2554,-0.269,-0.2824,-0.3025,-0.3092,-0.3226,-0.3959,-0.4356,-0.4622,-0.5418,-0.6083,-0.6416,-0.6815,-0.7073,-0.7073,-0.7138,-0.7335,-0.7661,-0.8047,-0.8376,-0.8705,-0.9414,-0.9792,-1.0047,-1.0434,-1.0744,-1.0996,-1.131,-1.1622,-1.1996,-1.2305,-1.2789,-1.3277,-1.358,-1.401,-1.4318,-1.4606,-1.4775,-1.5196,-1.5566,-1.5961,-1.6353,-1.6581,-1.6864,-1.7312,-1.7755,-1.8193,-1.8679,-1.9052,-1.9473,-1.9823,-2.0093,-2.036,-0.0993,-0.1395,-0.1392,-0.1288,-0.1267,-0.126,-0.1162,-0.1066,-0.1157,-0.1071,-0.0894,-0.0892,-0.0889,-0.0729,-0.0872,-0.0864,-0.0864,-0.0864,-0.0786,-0.0629,-0.0629,-0.0864,-0.1179,-0.0943,-0.0786,-0.0707,-0.0393,-0.0314,-0.0157,0.0314,0.0393,0.0314,0.0864,0.0943,0.0707,0.1021,0.1241,0.0991,0.0837,0.0823,0.0874,0.0571,0.0493,0.0627,0.0481,0.0272,0.0068,-0.0135,-0.0404,-0.0741,-0.0942,-0.1076,-0.1076,-0.1076,-0.121,-0.1479,-0.1614,-0.1748,-0.2085,-0.2153,-0.2221,-0.2287,-0.2356,-0.2423,-0.2557,-0.2824,-0.3025,-0.3025,-0.3756,-0.4287,-0.4688,-0.5355,-0.602,-0.635,-0.6683,-0.6815,-0.6881,-0.6946,-0.7077,-0.7461,-0.8052,-0.8447,-0.877,-0.928,-0.9983,-0.9983,-1.0371,-1.0624,-1.0807,-1.1059,-1.1365,-1.1677,-1.1988,-1.2367,-1.285,-1.3338,-1.3769,-1.413,-1.4478,-1.4834,-1.5264,-1.5624,-1.5972,-1.6249,-1.6467,-1.674,-1.7022,-1.7468,-1.7929,-1.8452,-1.8987,-1.9396,-1.9708,-1.9978,-2.0246,-0.0539,-0.1156,-0.1139,-0.1117,-0.1094,-0.1074,-0.1145,-0.1219,-0.1043,-0.1039,-0.103,-0.0792,-0.0713,-0.0871,-0.0867,-0.0786,-0.0707,-0.0786,-0.0864,-0.0864,-0.0707,-0.0786,-0.0943,-0.0786,-0.0629,-0.0393,-0.0157,0.0,0.0,0.0393,0.055,0.055,0.1021,0.1179,0.0943,0.1178,0.1165,0.1065,0.1059,0.1108,0.1142,0.0984,0.0901,0.1022,0.0945,0.074,0.0403,0.0067,-0.0202,-0.0538,-0.0875,-0.1076,-0.1076,-0.1076,-0.121,-0.1344,-0.1547,-0.1681,-0.1951,-0.2085,-0.2221,-0.2288,-0.2356,-0.2491,-0.2621,-0.2822,-0.2956,-0.309,-0.3558,-0.4223,-0.5024,-0.5557,-0.6024,-0.6354,-0.6482,-0.6613,-0.6881,-0.7199,-0.733,-0.7591,-0.8052,-0.8517,-0.8582,-0.9285,-0.9798,-0.9983,-1.0238,-1.0498,-1.0681,-1.08,-1.1052,-1.1365,-1.1677,-1.1988,-1.2458,-1.2967,-1.3493,-1.3918,-1.4282,-1.4585,-1.508,-1.5536,-1.5758,-1.6104,-1.64,-1.6631,-1.6652,-1.7236,-1.7713,-1.8312,-1.8833,-1.9254,-1.9542,-1.9837,-2.0131,-0.0439,-0.1043,-0.1023,-0.1,-0.0817,-0.0896,-0.0809,-0.0802,-0.0801,-0.0714,-0.0708,-0.0471,-0.055,-0.0629,-0.0629,-0.055,-0.0629,-0.0707,-0.0786,-0.0707,-0.0629,-0.055,-0.0471,-0.0471,-0.0393,-0.0314,-0.0079,0.0,0.0,0.055,0.0864,0.0707,0.1413,0.1648,0.1412,0.157,0.1705,0.1591,0.1494,0.1459,0.1552,0.1314,0.1232,0.1214,0.1143,0.0873,0.0403,0.0067,-0.0336,-0.074,-0.1008,-0.1076,-0.1076,-0.1076,-0.1143,-0.1277,-0.1412,-0.1547,-0.1748,-0.1951,-0.2085,-0.2154,-0.2221,-0.2421,-0.2554,-0.2755,-0.2889,-0.309,-0.3558,-0.4225,-0.5296,-0.569,-0.602,-0.6354,-0.6482,-0.6613,-0.6811,-0.7073,-0.733,-0.7526,-0.8117,-0.8382,-0.877,-0.9285,-0.9734,-0.9983,-1.0174,-1.0371,-1.0618,-1.0744,-1.0863,-1.1115,-1.1365,-1.1725,-1.2135,-1.2651,-1.3261,-1.3646,-1.4035,-1.4276,-1.4515,-1.5023,-1.5535,-1.5773,-1.6023,-1.5959,-1.6084,-1.6741,-1.7345,-1.7698,-1.8201,-1.8827,-1.9349,-1.9619,-1.9914,-0.0257,-0.0837,-0.0903,-0.0803,-0.0553,-0.0561,-0.056,-0.0395,-0.0562,-0.0479,-0.0158,-0.0236,-0.0314,-0.0314,-0.0314,-0.0471,-0.0629,-0.0629,-0.0707,-0.0786,-0.0629,-0.0471,-0.0314,-0.0236,-0.0157,-0.0157,0.0079,0.0,0.0,0.0864,0.1178,0.1099,0.1884,0.2118,0.1959,0.2036,0.2015,0.1817,0.1639,0.1669,0.1831,0.1512,0.1292,0.1345,0.1277,0.1008,0.0538,0.0135,-0.0404,-0.0942,-0.1076,-0.1076,-0.1076,-0.1076,-0.1143,-0.1277,-0.1277,-0.1412,-0.1614,-0.1816,-0.1951,-0.1951,-0.2085,-0.2221,-0.2423,-0.2555,-0.2755,-0.3088,-0.3556,-0.4289,-0.5226,-0.569,-0.602,-0.635,-0.6548,-0.6675,-0.6741,-0.6811,-0.7073,-0.7396,-0.7922,-0.8317,-0.8641,-0.9092,-0.9542,-0.9913,-1.0098,-1.0268,-1.0438,-1.053,-1.0594,-1.054,-1.077,-1.1172,-1.163,-1.2209,-1.2828,-1.3279,-1.3612,-1.3847,-1.4026,-1.4439,-1.4893,-1.5379,-1.5593,-1.5515,-1.5627,-1.6103,-1.6621,-1.7013,-1.7728,-1.8509,-1.9049,-1.9438,-1.9747,0.017,-0.0164,-0.0571,-0.0562,-0.0394,-0.0395,-0.0473,-0.055,-0.0395,-0.0395,-0.0472,-0.0236,-0.0157,-0.0236,-0.0314,-0.0471,-0.0707,-0.0786,-0.0943,-0.1022,-0.0786,-0.055,-0.0393,-0.0157,0.0079,0.0393,0.0471,0.0471,0.0707,0.1334,0.1491,0.1725,0.2113,0.2112,0.188,0.1801,0.1705,0.1598,0.1425,0.1537,0.1702,0.1598,0.1437,0.1551,0.1547,0.1277,0.0873,0.0471,0.0,-0.0404,-0.0875,-0.1076,-0.1074,-0.1074,-0.1073,-0.1143,-0.1277,-0.1344,-0.1547,-0.1748,-0.1951,-0.2085,-0.2154,-0.2221,-0.2288,-0.2423,-0.2555,-0.2954,-0.362,-0.442,-0.4885,-0.547,-0.6013,-0.628,-0.6379,-0.6441,-0.6641,-0.6763,-0.6885,-0.7177,-0.7668,-0.8195,-0.8451,-0.8794,-0.9223,-0.9519,-0.9712,-0.9835,-1.0017,-1.0032,-1.0094,-1.0066,-1.0079,-1.0596,-1.1107,-1.1736,-1.2371,-1.2715,-1.3057,-1.3323,-1.3497,-1.3789,-1.4212,-1.4759,-1.5094,-1.5175,-1.5373,-1.5558,-1.5928,-1.6379,-1.7256,-1.8256,-1.8727,-1.9189,-1.9643,0.0498,0.0163,-0.0161,-0.0238,-0.0157,-0.0157,-0.0157,-0.0236,-0.0157,-0.0157,-0.0236,-0.0079,-0.0157,-0.0236,-0.0157,-0.0393,-0.0707,-0.0786,-0.0864,-0.1022,-0.0864,-0.0629,-0.0471,-0.0236,0.0,0.0314,0.0471,0.0629,0.0707,0.1256,0.149,0.133,0.163,0.1781,0.1715,0.147,0.1544,0.1453,0.1429,0.147,0.1856,0.1819,0.1839,0.1825,0.1681,0.1412,0.0941,0.0403,-0.0067,-0.0539,-0.0942,-0.1076,-0.1071,-0.1063,-0.1061,-0.1137,-0.1207,-0.1276,-0.1412,-0.1614,-0.1816,-0.2018,-0.2151,-0.2221,-0.2288,-0.2356,-0.2555,-0.2954,-0.3687,-0.442,-0.4686,-0.5291,-0.5769,-0.6008,-0.6085,-0.6164,-0.6274,-0.6404,-0.6602,-0.6876,-0.7409,-0.7819,-0.8097,-0.8454,-0.8851,-0.912,-0.9389,-0.949,-0.9562,-0.9623,-0.963,-0.9693,-0.9731,-1.0123,-1.0595,-1.1075,-1.1718,-1.2107,-1.2493,-1.2761,-1.3083,-1.3377,-1.3711,-1.4215,-1.4459,-1.4586,-1.4542,-1.4546,-1.5121,-1.5807,-1.6738,-1.7647,-1.8408,-1.8992,-1.9318,0.0812,0.0403,0.0158,0.0,0.0,0.0,0.0,0.0,0.0,0.0,0.0,0.0,-0.0079,-0.0157,-0.0157,-0.0236,-0.055,-0.055,-0.0707,-0.0864,-0.0786,-0.055,-0.0393,-0.0236,-0.0079,0.0314,0.0471,0.0629,0.0707,0.11,0.1097,0.1164,0.1296,0.152,0.1608,0.1437,0.168,0.1669,0.1718,0.1678,0.1934,0.2146,0.2085,0.2085,0.1748,0.1412,0.0941,0.047,-0.0067,-0.0471,-0.0807,-0.1074,-0.1065,-0.1046,-0.1042,-0.1055,-0.1124,-0.119,-0.1321,-0.145,-0.1705,-0.1965,-0.2058,-0.2199,-0.2341,-0.2406,-0.2616,-0.3006,-0.3749,-0.4306,-0.4519,-0.5061,-0.5516,-0.5767,-0.5801,-0.5775,-0.5929,-0.6115,-0.6216,-0.6614,-0.7106,-0.7471,-0.7701,-0.8089,-0.85,-0.8807,-0.9005,-0.9048,-0.913,-0.9202,-0.9259,-0.9295,-0.9505,-0.9834,-1.0151,-1.0324,-1.0945,-1.1467,-1.1826,-1.2191,-1.2541,-1.2945,-1.3327,-1.3556,-1.3555,-1.363,-1.3603,-1.3842,-1.4584,-1.5356,-1.6247,-1.7,-1.7642,-1.8228,-1.8722,0.1124,0.0789,0.0236,0.0,0.0,0.0,0.0,0.0,0.0,0.0,0.0,0.0,0.0,0.0,0.0,0.0,-0.0471,-0.0471,-0.055,-0.0786,-0.055,-0.0393,-0.0314,-0.0079,0.0079,0.0314,0.047,0.0629,0.0626,0.1017,0.132,0.1376,0.1364,0.1657,0.1418,0.1407,0.1394,0.1176,0.117,0.1296,0.1548,0.1777,0.1821,0.1748,0.1614,0.1479,0.1143,0.0672,0.0202,-0.0134,-0.0605,-0.0865,-0.0978,-0.1036,-0.1018,-0.1007,-0.1061,-0.1123,-0.138,-0.1514,-0.1703,-0.1901,-0.2048,-0.2131,-0.2212,-0.2436,-0.2576,-0.2664,-0.3621,-0.4183,-0.4327,-0.4885,-0.5421,-0.559,-0.5607,-0.5708,-0.5839,-0.5793,-0.5948,-0.6093,-0.6492,-0.6983,-0.7346,-0.7752,-0.8156,-0.8451,-0.8651,-0.8691,-0.8701,-0.8764,-0.8875,-0.9013,-0.909,-0.9412,-0.9691,-0.9863,-1.0302,-1.0821,-1.1277,-1.1676,-1.2121,-1.2466,-1.2607,-1.2805,-1.286,-1.3145,-1.3479,-1.3845,-1.4283,-1.4987,-1.5854,-1.6338,-1.6738,-1.7374,-1.813,0.1427,0.11,0.0707,0.0314,0.0,0.0,0.0,0.0,0.0,0.0,0.0,0.0,0.0,0.0,0.0,0.0,-0.0393,-0.0314,-0.0471,-0.0629,-0.055,-0.0393,-0.0314,-0.0236,0.0,0.0234,0.0,0.023,0.0385,0.0615,0.0917,0.0756,0.0971,0.1118,0.1249,0.1318,0.1534,0.16,0.1724,0.1759,0.1789,0.1829,0.1883,0.1748,0.1614,0.1479,0.1143,0.0672,0.0202,-0.0134,-0.0666,-0.0917,-0.0963,-0.0941,-0.0913,-0.0966,-0.0945,-0.1133,-0.1413,-0.154,-0.1721,-0.1911,-0.1995,-0.2072,-0.2081,-0.2288,-0.2496,-0.2521,-0.3238,-0.3776,-0.4003,-0.4409,-0.4906,-0.5148,-0.5319,-0.5455,-0.5505,-0.5584,-0.5636,-0.5767,-0.5974,-0.6473,-0.6892,-0.7229,-0.7637,-0.8078,-0.8235,-0.8263,-0.8294,-0.836,-0.8521,-0.8671,-0.8758,-0.8918,-0.9157,-0.9432,-0.9874,-1.0363,-1.0783,-1.1226,-1.1713,-1.2004,-1.2234,-1.2431,-1.2675,-1.3027,-1.3451,-1.3848,-1.4183,-1.4804,-1.5451,-1.5928,-1.6395,-1.7003,-1.7666,0.1649,0.1258,0.0943,0.0471,0.0,0.0,0.0,0.0,0.0,0.0,0.0,0.0,0.0,0.0,0.0,-0.0157,-0.0314,-0.0236,-0.0393,-0.0471,-0.0471,-0.0314,-0.0236,-0.0157,-0.0157,0.0,0.0,0.0,0.0,0.0297,0.0296,0.0074,0.0873,0.1086,0.1236,0.151,0.1775,0.2128,0.2099,0.2063,0.203,0.1954,0.1884,0.1748,0.1681,0.1479,0.121,0.0806,0.0336,-0.0132,-0.0458,-0.0773,-0.094,-0.0911,-0.0886,-0.0933,-0.0915,-0.1093,-0.1302,-0.1496,-0.1687,-0.1872,-0.195,-0.1956,-0.204,-0.2096,-0.2204,-0.2382,-0.3028,-0.3432,-0.3729,-0.4016,-0.4529,-0.4808,-0.4949,-0.5056,-0.5136,-0.5238,-0.5318,-0.5417,-0.5618,-0.5982,-0.6354,-0.6648,-0.7068,-0.7597,-0.7794,-0.7848,-0.7961,-0.8074,-0.8275,-0.8527,-0.8626,-0.8738,-0.8949,-0.9211,-0.9577,-0.994,-1.0403,-1.0871,-1.1368,-1.1828,-1.2175,-1.2382,-1.2529,-1.2852,-1.3194,-1.3635,-1.4082,-1.4576,-1.5025,-1.5591,-1.6103,-1.6693,-1.705,0.1649,0.1258,0.0786,0.0393,0.0,0.0,0.0,0.0,0.0,0.0,0.0,0.0,0.0,0.0,0.0,-0.0079,-0.0236,-0.0079,-0.0157,-0.0236,0.0,0.0,0.0,0.0,0.0,0.0,0.0,0.0,0.0,0.0215,0.0569,0.0986,0.1133,0.1667,0.1863,0.1797,0.1921,0.2194,0.2177,0.2103,0.1954,0.1883,0.1748,0.1614,0.1614,0.1547,0.1547,0.1143,0.0665,0.0195,-0.0193,-0.0565,-0.0849,-0.0888,-0.0868,-0.0911,-0.096,-0.1076,-0.1203,-0.1378,-0.1534,-0.1713,-0.1858,-0.1905,-0.1935,-0.2083,-0.2187,-0.2195,-0.2815,-0.3207,-0.3493,-0.384,-0.4308,-0.4604,-0.4716,-0.4868,-0.4959,-0.5018,-0.5093,-0.5132,-0.5344,-0.5782,-0.605,-0.6327,-0.6874,-0.7467,-0.7729,-0.7783,-0.7848,-0.7961,-0.8168,-0.8374,-0.8527,-0.8685,-0.8956,-0.9218,-0.942,-0.9777,-1.0241,-1.0659,-1.1124,-1.1528,-1.1977,-1.2175,-1.2323,-1.2608,-1.2939,-1.342,-1.3836,-1.4212,-1.4671,-1.5188,-1.559,-1.6065,-1.6293,0.1571,0.1258,0.0629,0.0236,0.0,-0.0157,-0.0157,-0.0157,-0.0157,-0.0079,0.0,0.0,0.0,0.0,0.0,-0.0079,-0.0079,-0.0079,0.0,0.0,0.0,0.0,0.0,0.0,0.0,0.0,0.0,0.0149,0.0,0.0423,0.0831,0.1172,0.1319,0.1325,0.1517,0.1897,0.202,0.2018,0.2018,0.1951,0.1884,0.1614,0.1479,0.1412,0.1277,0.1277,0.121,0.1008,0.0661,0.0259,-0.0063,-0.0429,-0.0827,-0.087,-0.0912,-0.09,-0.0954,-0.101,-0.1122,-0.129,-0.1572,-0.1744,-0.182,-0.1843,-0.1877,-0.1868,-0.1914,-0.2129,-0.2429,-0.2754,-0.3239,-0.3618,-0.4017,-0.4369,-0.4574,-0.468,-0.4736,-0.4791,-0.4846,-0.4904,-0.5238,-0.5622,-0.5891,-0.6105,-0.6707,-0.73,-0.7509,-0.7723,-0.7788,-0.7848,-0.8055,-0.8215,-0.8368,-0.8527,-0.8804,-0.9008,-0.9211,-0.9621,-1.0035,-1.0446,-1.0863,-1.1326,-1.1728,-1.1927,-1.2116,-1.2363,-1.2706,-1.318,-1.361,-1.4035,-1.4408,-1.4879,-1.5188,-1.5537,-1.576,0.1571,0.1257,0.0629,0.0236,-0.0079,-0.0236,-0.0314,-0.0393,-0.0314,-0.0157,0.0,0.0,0.0,0.0,0.0,0.0,0.0,0.0,0.0,0.0,0.0,0.0,0.0,0.0,0.0,0.0,0.0,0.0146,0.0494,0.0697,0.0961,0.1158,0.1231,0.117,0.1374,0.1633,0.1951,0.1951,0.2018,0.1951,0.1883,0.1681,0.1412,0.1341,0.1266,0.1125,0.112,0.0917,0.0706,0.0314,-0.0061,-0.036,-0.0641,-0.0855,-0.09,-0.0897,-0.0897,-0.0954,-0.1066,-0.1347,-0.1628,-0.1798,-0.1798,-0.1801,-0.1741,-0.1628,-0.1752,-0.1745,-0.2023,-0.2352,-0.291,-0.3312,-0.3764,-0.4076,-0.4242,-0.4349,-0.4463,-0.4574,-0.4629,-0.4739,-0.5069,-0.5399,-0.5782,-0.5996,-0.6544,-0.709,-0.7359,-0.7521,-0.7622,-0.7681,-0.7842,-0.8002,-0.8162,-0.8374,-0.8646,-0.8745,-0.8896,-0.9218,-0.9629,-1.0146,-1.0608,-1.1124,-1.1477,-1.1669,-1.1868,-1.2076,-1.2412,-1.2852,-1.3372,-1.3894,-1.4326,-1.4846,-1.5062,-1.5435,-1.5614,0.1648,0.1258,0.0786,0.0236,-0.0236,-0.0314,-0.0393,-0.0471,-0.0393,-0.0157,0.0,0.0,0.0,0.0,0.0,0.0,0.0,0.0,0.0,0.0,0.0,0.0,0.0,0.0,0.0,0.0,0.0,0.0212,0.0545,0.048,0.0814,0.128,0.1352,0.1286,0.155,0.1751,0.2018,0.2151,0.2147,0.2008,0.1862,0.1793,0.1526,0.1386,0.1303,0.1162,0.1094,0.108,0.0808,0.0423,0.0239,-0.0117,-0.0454,-0.0733,-0.0785,-0.0785,-0.0841,-0.0841,-0.0785,-0.129,-0.1572,-0.1685,-0.1684,-0.1685,-0.1628,-0.1572,-0.1572,-0.1569,-0.1792,-0.2128,-0.2575,-0.3023,-0.3466,-0.3744,-0.3965,-0.4132,-0.4298,-0.4463,-0.4574,-0.4684,-0.4846,-0.5062,-0.55,-0.5996,-0.6436,-0.6874,-0.7149,-0.7311,-0.7413,-0.7515,-0.7622,-0.7842,-0.8002,-0.8215,-0.8427,-0.8421,-0.858,-0.885,-0.9323,-0.994,-1.0454,-1.0972,-1.1267,-1.1469,-1.1719,-1.1927,-1.2175,-1.2471,-1.318,-1.3894,-1.4455,-1.4869,-1.5096,-1.5289,-1.548,0.1647,0.1258,0.0786,0.0236,-0.0236,-0.0314,-0.0314,-0.0393,-0.0314,-0.0157,0.0,0.0,0.0,0.0,0.0,0.0,0.0,0.0,0.0,0.0,0.0,0.0,0.0,0.0,0.0,0.0,0.0,0.0353,0.0901,0.0619,0.1089,0.1556,0.1547,0.1547,0.1749,0.188,0.1938,0.1904,0.1892,0.1881,0.1786,0.1658,0.1533,0.1342,0.1325,0.1191,0.1128,0.1172,0.0967,0.0589,0.0411,0.0173,-0.0226,-0.0561,-0.0673,-0.0729,-0.0897,-0.0954,-0.0954,-0.1234,-0.129,-0.1403,-0.1515,-0.1515,-0.1572,-0.1347,-0.1347,-0.1458,-0.168,-0.1959,-0.2238,-0.2796,-0.3241,-0.3524,-0.3747,-0.4024,-0.4245,-0.4408,-0.4519,-0.4684,-0.4794,-0.4956,-0.5285,-0.5668,-0.6164,-0.644,-0.6663,-0.6987,-0.7198,-0.7246,-0.7348,-0.7676,-0.7895,-0.8103,-0.8262,-0.8268,-0.8527,-0.8896,-0.9368,-0.988,-1.0403,-1.082,-1.1124,-1.1377,-1.1578,-1.1828,-1.2116,-1.251,-1.3218,-1.3931,-1.4398,-1.4731,-1.4915,-1.5108,-1.5345,0.1648,0.1258,0.0786,0.0314,-0.0157,-0.0314,-0.0314,-0.0314,-0.0393,-0.0314,0.0,0.0,0.0,0.0,-0.0235,-0.0156,-0.0153,0.0,0.0,0.0,0.0,0.0,0.0,0.0,0.0,0.0,0.0,0.035,0.1031,0.0896,0.1161,0.1484,0.1816,0.1802,0.1866,0.186,0.1925,0.1962,0.1952,0.1937,0.183,0.1747,0.1628,0.1487,0.141,0.1216,0.1212,0.1141,0.1008,0.0758,0.0577,0.0401,-0.0056,-0.0336,-0.0449,-0.0617,-0.0729,-0.0785,-0.0954,-0.101,-0.1122,-0.1178,-0.1234,-0.1346,-0.1403,-0.1234,-0.1234,-0.1346,-0.1512,-0.1736,-0.1959,-0.2573,-0.2965,-0.3246,-0.358,-0.3858,-0.4135,-0.4298,-0.4408,-0.4577,-0.4743,-0.4908,-0.5069,-0.5399,-0.5841,-0.6005,-0.6168,-0.6549,-0.6923,-0.6972,-0.7133,-0.7461,-0.7735,-0.7895,-0.8055,-0.8168,-0.848,-0.8949,-0.9368,-0.9725,-1.0198,-1.0616,-1.0922,-1.1226,-1.1427,-1.1678,-1.2116,-1.2647,-1.3266,-1.3742,-1.4176,-1.4501,-1.4731,-1.4971,-1.5255,0.1645,0.1256,0.0784,0.0391,0.0,-0.0234,-0.0313,-0.0314,-0.0471,-0.0471,-0.0314,-0.0471,-0.0471,-0.055,-0.055,-0.047,-0.031,-0.0304,-0.015,0.0,0.0,0.0,0.0,0.0,0.0,0.0,0.0,0.0342,0.1011,0.1015,0.108,0.1412,0.1951,0.1991,0.191,0.1908,0.1961,0.1989,0.1984,0.1951,0.1832,0.192,0.1782,0.1635,0.1488,0.1357,0.1228,0.1097,0.0968,0.0789,0.0619,0.0393,0.0112,-0.0168,-0.0224,-0.0336,-0.0449,-0.0673,-0.0841,-0.0898,-0.0898,-0.101,-0.1122,-0.1178,-0.1178,-0.1122,-0.1122,-0.1122,-0.1289,-0.1513,-0.1792,-0.2183,-0.2575,-0.2965,-0.3355,-0.3633,-0.391,-0.4132,-0.4301,-0.4411,-0.4522,-0.4688,-0.4959,-0.5234,-0.5454,-0.5563,-0.5782,-0.6164,-0.649,-0.6647,-0.6864,-0.73,-0.7521,-0.7681,-0.7794,-0.8008,-0.8268,-0.8685,-0.9054,-0.9472,-0.994,-1.0411,-1.0769,-1.1074,-1.1226,-1.1628,-1.2224,-1.2706,-1.317,-1.3658,-1.4046,-1.428,-1.4558,-1.4926,-1.521,0.1683,0.1223,0.0826,0.0298,-0.0149,-0.0304,-0.0232,-0.0157,-0.0157,-0.0236,-0.0314,-0.0236,-0.0392,-0.055,-0.0471,-0.0388,-0.0305,-0.0298,-0.0146,0.0,0.0,0.0,0.0,0.0,0.0,0.0,0.0,0.0202,0.074,0.0873,0.1412,0.1951,0.2011,0.2043,0.2016,0.2012,0.1953,0.1977,0.1918,0.1878,0.1772,0.1773,0.1703,0.1628,0.1558,0.1487,0.1365,0.1131,0.1066,0.0954,0.0841,0.0673,0.0336,0.0112,-0.0056,-0.0561,-0.0673,-0.0841,-0.0897,-0.0897,-0.0897,-0.0897,-0.101,-0.1066,-0.1066,-0.1066,-0.101,-0.1066,-0.1066,-0.1289,-0.1569,-0.1961,-0.2352,-0.2742,-0.3132,-0.3522,-0.3799,-0.3965,-0.4132,-0.4245,-0.4356,-0.4467,-0.4739,-0.4901,-0.512,-0.5175,-0.5395,-0.5778,-0.6055,-0.6268,-0.6647,-0.7139,-0.7359,-0.7467,-0.7741,-0.7955,-0.8162,-0.8421,-0.8896,-0.9316,-0.9777,-1.0241,-1.0667,-1.0972,-1.1276,-1.1828,-1.248,-1.291,-1.318,-1.3573,-1.3962,-1.4197,-1.443,-1.48,-1.5017,0.1505,0.1192,0.0587,0.0146,-0.0292,-0.037,-0.0301,-0.0229,-0.0156,-0.0156,-0.031,-0.0391,-0.0466,-0.0688,-0.0614,-0.0534,-0.0447,-0.0291,0.0,0.0,0.0,0.0,0.0,-0.0067,0.0,-0.0135,-0.0067,0.0067,0.0538,0.1074,0.161,0.1782,0.1919,0.1937,0.1887,0.1854,0.1877,0.1845,0.1767,0.1686,0.1662,0.1645,0.1649,0.1687,0.1628,0.1572,0.1515,0.1234,0.1122,0.1066,0.0954,0.0785,0.0505,0.028,-0.0056,-0.0505,-0.0673,-0.0785,-0.0897,-0.0897,-0.0897,-0.0897,-0.0897,-0.0954,-0.0954,-0.0954,-0.0954,-0.101,-0.1066,-0.1178,-0.1458,-0.1738,-0.2186,-0.2577,-0.3021,-0.3463,-0.363,-0.3852,-0.3965,-0.4021,-0.4132,-0.4245,-0.4408,-0.4625,-0.4791,-0.4904,-0.5069,-0.5344,-0.5673,-0.5896,-0.6431,-0.7025,-0.7192,-0.7306,-0.7574,-0.7901,-0.8055,-0.8368,-0.8844,-0.9309,-0.9718,-1.0138,-1.0565,-1.0972,-1.1326,-1.1877,-1.2323,-1.2813,-1.319,-1.3525,-1.3773,-1.401,-1.4244,-1.4523,-1.4754,0.1262,0.109,0.029,-0.0144,-0.029,-0.0435,-0.0509,-0.0512,-0.0381,-0.0308,-0.038,-0.0695,-0.076,-0.0818,-0.0749,-0.0672,-0.0585,-0.0428,0.0,0.0,0.0,0.0,0.0,-0.0202,-0.027,-0.027,-0.0202,0.0067,0.0471,0.1006,0.133,0.1358,0.1616,0.1712,0.1647,0.162,0.1707,0.1726,0.1691,0.1643,0.1718,0.1721,0.1682,0.1752,0.1684,0.1572,0.1403,0.1234,0.1066,0.101,0.0898,0.0841,0.0617,0.028,-0.0056,-0.0393,-0.0617,-0.0785,-0.0897,-0.0897,-0.0897,-0.0897,-0.0897,-0.0897,-0.0898,-0.0898,-0.0954,-0.0954,-0.101,-0.1066,-0.129,-0.1625,-0.2017,-0.2465,-0.2854,-0.3244,-0.3577,-0.3688,-0.3747,-0.3802,-0.3913,-0.4024,-0.419,-0.4408,-0.4629,-0.4688,-0.4849,-0.5069,-0.5344,-0.5622,-0.6218,-0.6864,-0.7192,-0.7306,-0.7574,-0.7842,-0.7996,-0.8315,-0.8844,-0.9152,-0.951,-0.9984,-1.0514,-1.0871,-1.1276,-1.1628,-1.2076,-1.2608,-1.3094,-1.3324,-1.3573,-1.3821,-1.4057,-1.4291,-1.4523,0.121,0.1059,0.0069,-0.0412,-0.0483,-0.0632,-0.0637,-0.0496,-0.0439,-0.0444,-0.0516,-0.0518,-0.059,-0.0874,-0.0732,-0.0657,-0.065,-0.0494,-0.0421,0.0,0.0,-0.0202,-0.0337,-0.0337,-0.0405,-0.0337,-0.0135,0.0202,0.0739,0.1074,0.1339,0.1656,0.1755,0.156,0.1567,0.1542,0.1504,0.1579,0.1537,0.15,0.1588,0.1634,0.1636,0.1684,0.1628,0.1684,0.1572,0.1515,0.1347,0.1234,0.1122,0.0954,0.0729,0.0336,0.0056,-0.0224,-0.0617,-0.0785,-0.0841,-0.0897,-0.0897,-0.0897,-0.0897,-0.0897,-0.0897,-0.0897,-0.0897,-0.0898,-0.0954,-0.101,-0.1178,-0.1513,-0.1905,-0.2296,-0.2689,-0.3077,-0.3413,-0.3524,-0.3583,-0.3638,-0.3694,-0.386,-0.4024,-0.419,-0.4411,-0.4629,-0.4791,-0.5011,-0.5234,-0.5513,-0.6,-0.6647,-0.7192,-0.7467,-0.7628,-0.7788,-0.7889,-0.8209,-0.8685,-0.9001,-0.9309,-0.9888,-1.0462,-1.082,-1.1175,-1.1528,-1.1977,-1.2569,-1.2997,-1.319,-1.342,-1.3621,-1.3773,-1.401,-1.4291,0.1183,0.103,-0.0068,-0.0472,-0.0541,-0.0685,-0.0758,-0.0622,-0.056,-0.0493,-0.0567,-0.0575,-0.0648,-0.0782,-0.0712,-0.0711,-0.0706,-0.0555,-0.0482,-0.0342,-0.0273,-0.0338,-0.0405,-0.0472,-0.054,-0.054,-0.027,0.0202,0.087,0.0992,0.1182,0.1557,0.145,0.147,0.1487,0.1395,0.1318,0.1461,0.1347,0.1347,0.1459,0.1459,0.1515,0.1572,0.1572,0.1572,0.1459,0.1403,0.129,0.1066,0.0897,0.0729,0.0505,0.0168,-0.0056,-0.0336,-0.0617,-0.0841,-0.0841,-0.0897,-0.0897,-0.0897,-0.0897,-0.0897,-0.0897,-0.0897,-0.0897,-0.0897,-0.0897,-0.0954,-0.101,-0.1289,-0.1625,-0.1961,-0.2352,-0.2742,-0.3132,-0.3357,-0.3471,-0.3641,-0.3638,-0.3691,-0.3913,-0.4076,-0.4242,-0.4519,-0.468,-0.4791,-0.5066,-0.5289,-0.5782,-0.6327,-0.6815,-0.7192,-0.7252,-0.7521,-0.7842,-0.8215,-0.8586,-0.9159,-0.9681,-0.9991,-1.036,-1.0718,-1.1124,-1.1528,-1.2017,-1.252,-1.2871,-1.3113,-1.3286,-1.3467,-1.3621,-1.3726,-1.401,0.1031,0.074,-0.0135,-0.0539,-0.0607,-0.0741,-0.081,-0.081,-0.0675,-0.054,-0.0612,-0.0778,-0.0769,-0.069,-0.0757,-0.0819,-0.0748,-0.068,-0.0542,-0.0541,-0.0473,-0.0539,-0.0674,-0.0741,-0.0671,-0.0602,-0.0333,0.0133,0.0725,0.0843,0.1014,0.1171,0.1199,0.1222,0.1195,0.1181,0.1122,0.1235,0.1234,0.129,0.129,0.129,0.1459,0.1459,0.1402,0.1231,0.1117,0.1064,0.1008,0.0894,0.0726,0.0617,0.0449,0.0168,-0.0056,-0.0336,-0.0617,-0.0785,-0.0841,-0.0897,-0.0897,-0.0897,-0.0897,-0.0897,-0.0897,-0.0897,-0.0897,-0.0897,-0.0897,-0.0898,-0.0954,-0.1066,-0.1401,-0.1736,-0.2127,-0.2517,-0.291,-0.319,-0.336,-0.353,-0.3583,-0.3635,-0.3799,-0.3965,-0.4132,-0.4353,-0.4515,-0.4625,-0.4791,-0.5014,-0.5399,-0.5891,-0.6376,-0.6652,-0.6982,-0.7306,-0.7735,-0.8049,-0.8474,-0.9316,-0.9947,-1.0051,-1.0308,-1.0616,-1.1023,-1.1427,-1.1918,-1.2421,-1.2725,-1.3075,-1.319,-1.3362,-1.3467,-1.3621,-1.3773,0.0338,-0.0202,-0.0472,-0.0674,-0.0942,-0.0876,-0.0876,-0.1009,-0.1009,-0.0942,-0.081,-0.0947,-0.0948,-0.0742,-0.0745,-0.0811,-0.0811,-0.0742,-0.0742,-0.0742,-0.0674,-0.0741,-0.0875,-0.0875,-0.0731,-0.0528,-0.0262,0.0129,0.0579,0.0821,0.1057,0.1229,0.1015,0.1054,0.1165,0.1088,0.101,0.1122,0.1178,0.1178,0.129,0.1347,0.1403,0.1403,0.1346,0.1213,0.1149,0.1109,0.0934,0.0821,0.0718,0.067,0.0449,0.0168,-0.0056,-0.0336,-0.0617,-0.0785,-0.0841,-0.0897,-0.0897,-0.0954,-0.0954,-0.0898,-0.0898,-0.0898,-0.0897,-0.0841,-0.0841,-0.0954,-0.101,-0.101,-0.1289,-0.1736,-0.2127,-0.2573,-0.2963,-0.3079,-0.3137,-0.3304,-0.3416,-0.3577,-0.3796,-0.3907,-0.3907,-0.4132,-0.4245,-0.4408,-0.4574,-0.4794,-0.5069,-0.5508,-0.5996,-0.6652,-0.7252,-0.7306,-0.7628,-0.7937,-0.8362,-0.9204,-0.9792,-0.9955,-1.0213,-1.0565,-1.0922,-1.1377,-1.1819,-1.2274,-1.2618,-1.2968,-1.3084,-1.3266,-1.3362,-1.3467,-1.3621]}]]